GEFSSGP_850_meantemp_000.txt.gz
Temperature
23 21 20 22 27 32 33 31 31 31 31 30 29 28 29 28 29 26 22 21 21 20 19 21 20 20 20 20 20 20 20 19 19 19 19 19 19 19 19 19 19 19 19 19 19 19 19 19 19
22 21 21 26 32 33 33 30 31 30 29 28 28 27 28 28 25 22 21 20 20 20 19 20 21 20 20 19 20 20 20 19 19 19 19 19 19 19 20 19 19 19 19 19 19 19 19 19 19
23 21 26 32 32 32 31 30 30 29 27 28 28 28 28 27 23 22 21 20 20 20 19 19 21 21 20 20 19 20 20 19 19 19 19 19 20 20 20 19 19 19 19 19 19 19 19 19 19
22 24 28 32 33 32 31 31 30 30 29 28 28 28 26 23 22 21 20 20 20 19 18 20 21 21 20 20 20 20 20 20 20 20 20 20 20 20 20 19 19 19 19 19 19 19 19 19 19
24 28 32 32 33 32 32 30 30 31 29 29 28 29 27 21 21 20 20 20 20 19 19 20 21 21 21 20 20 20 20 20 20 20 20 20 19 19 19 19 19 19 19 19 19 19 19 19 19
28 30 32 33 32 32 32 30 30 30 29 28 28 29 26 21 20 20 20 20 20 20 19 18 21 20 20 20 20 20 20 20 20 20 20 19 19 19 19 19 19 19 19 19 18 19 18 18 18
29 31 32 31 31 31 31 30 30 30 30 29 28 29 27 22 21 20 20 20 20 19 19 18 19 20 20 20 20 20 20 20 20 20 19 19 19 19 19 19 19 19 19 19 18 18 18 18 18
27 31 31 33 31 32 31 31 30 30 30 28 28 29 28 23 21 20 20 19 19 19 19 18 18 19 20 20 20 20 20 20 20 19 19 19 19 19 19 19 19 18 18 18 18 18 18 18 18
27 31 31 33 32 33 31 31 31 29 29 27 27 28 26 23 21 20 20 19 19 19 19 18 18 18 17 18 19 20 19 19 19 19 19 19 18 18 18 18 18 18 18 18 18 18 18 18 18
28 30 32 31 31 32 31 31 31 30 30 29 29 26 23 22 21 21 20 20 19 19 19 19 18 18 17 17 17 17 18 17 17 17 17 17 17 18 18 18 18 19 18 18 18 18 18 18 18
28 31 30 29 30 30 31 31 31 32 32 32 31 29 24 22 21 21 20 20 19 19 19 18 18 18 17 18 18 18 18 18 17 17 17 17 18 18 18 18 18 18 18 18 18 18 18 18 18
27 29 28 29 29 30 30 31 31 32 32 31 29 28 25 23 22 21 21 20 19 18 19 19 18 17 17 18 17 18 18 17 17 18 17 17 17 18 17 18 18 18 18 18 18 18 18 18 18
28 29 28 29 29 30 30 31 31 31 30 29 27 26 24 23 22 21 21 20 19 19 19 19 18 17 17 17 17 17 17 18 18 18 18 18 18 18 17 17 18 18 18 18 18 18 18 18 18
28 28 29 29 29 30 30 31 30 30 28 28 27 26 25 23 23 21 20 20 19 19 19 19 18 18 18 17 17 17 17 18 18 18 18 17 17 17 17 17 18 18 18 18 18 18 18 17 17
27 29 30 30 30 29 30 31 30 28 28 27 26 24 23 22 21 21 20 19 19 19 18 18 18 18 18 18 18 18 18 18 18 18 18 17 17 18 18 18 18 18 18 18 18 18 18 18 18
27 29 31 30 30 29 30 31 28 27 27 26 24 22 21 19 18 18 18 18 18 18 18 18 18 18 18 18 18 18 18 18 18 18 18 18 17 17 18 17 18 18 18 18 18 18 18 18 18
28 31 30 30 29 29 29 30 27 26 26 24 22 21 20 18 17 17 18 18 18 18 18 18 18 18 18 18 18 18 18 17 18 18 18 18 17 17 17 17 17 18 18 18 18 18 18 18 18
29 30 29 29 28 29 29 28 26 25 25 24 22 21 19 18 18 17 17 18 18 19 20 20 20 20 20 19 18 18 18 18 18 18 19 19 18 18 18 18 17 17 17 18 18 17 17 17 17
28 27 28 28 28 28 28 27 25 23 23 22 21 21 20 19 18 18 18 18 18 19 20 21 22 23 22 22 20 18 18 18 18 18 19 18 19 19 19 19 18 17 16 17 17 17 17 17 17
28 28 28 28 28 28 28 27 25 23 21 21 21 19 20 20 19 18 18 18 18 18 18 20 20 20 20 21 20 19 19 19 18 18 18 20 20 19 19 19 18 17 16 16 17 17 16 16 16
27 27 26 26 27 28 27 27 26 23 21 21 20 20 19 19 19 19 19 18 18 17 18 19 20 20 18 17 17 16 17 17 16 17 19 20 19 19 18 15 16 16 16 16 16 16 16 16 16
28 26 26 26 26 27 27 25 27 25 24 22 22 21 21 20 20 20 20 20 19 19 18 18 19 18 17 16 16 15 15 15 16 17 18 20 19 18 16 15 14 15 15 15 15 16 15 15 15
27 26 26 25 25 26 27 26 28 26 25 24 23 21 21 20 20 19 19 18 19 19 19 18 18 19 18 17 15 14 14 16 16 17 18 18 18 16 15 16 15 15 15 15 15 16 15 15 15
26 25 26 26 26 25 26 26 27 28 25 24 23 22 21 21 20 19 18 18 17 17 17 17 17 17 16 15 15 14 14 15 15 15 17 17 16 15 14 14 14 14 15 15 16 16 15 15 14
25 25 25 26 26 26 25 25 27 25 25 24 23 23 22 21 20 19 18 18 17 16 16 16 16 16 15 15 14 15 15 14 14 14 15 14 13 13 14 14 14 14 14 15 16 15 14 14 14
25 24 23 23 23 25 24 25 24 24 23 23 22 22 21 21 20 19 18 17 16 16 16 16 15 15 14 15 14 14 14 14 14 13 13 13 14 13 13 13 13 14 14 15 15 14 14 14 14
23 28 24 24 23 22 25 25 25 24 23 23 22 22 22 21 20 19 18 17 16 16 15 14 14 14 14 14 14 14 14 14 13 13 13 13 13 13 13 13 13 13 13 14 14 14 14 14 13
23 26 24 24 22 22 24 24 25 23 23 24 23 22 22 21 20 19 18 17 16 15 14 15 14 13 14 13 14 14 14 14 13 13 12 12 12 12 12 12 12 13 13 13 13 13 13 13 13
24 24 23 22 23 21 21 25 24 24 23 23 23 22 21 20 19 18 17 16 15 14 13 13 13 13 14 13 13 13 12 12 12 12 12 12 12 12 12 11 12 12 12 12 12 12 12 12 12
24 23 23 22 22 22 21 22 25 24 24 23 23 22 20 19 18 17 16 15 15 14 13 13 13 12 13 13 12 12 12 12 11 11 12 12 12 12 11 11 11 11 11 11 11 12 12 12 12

GEFSSGP_850_meantemp_006.txt.gz
Temperature
25 23 22 23 27 28 28 33 33 33 33 32 32 32 32 31 29 27 26 25 24 24 24 23 22 22 21 20 20 20 20 20 20 20 19 19 19 19 19 19 19 19 19 19 19 20 20 20 20
25 23 24 26 29 27 28 33 32 32 32 32 32 32 32 30 28 27 26 25 23 23 24 23 22 22 21 20 20 20 19 19 19 19 19 19 19 19 19 19 19 19 19 19 19 19 19 19 20
25 24 26 30 32 29 30 33 33 33 32 33 33 32 31 29 28 26 25 24 22 22 23 23 22 22 21 20 20 19 19 19 19 19 19 19 19 19 19 19 19 19 19 19 19 19 19 19 19
24 27 29 32 33 34 34 33 34 34 33 33 33 32 29 27 27 26 25 24 22 21 22 23 22 22 21 20 20 19 19 19 19 19 19 19 19 19 19 19 19 19 19 19 19 19 19 19 19
26 29 32 33 34 35 35 34 34 34 33 33 33 32 28 26 26 25 24 24 22 21 21 23 22 22 21 20 19 19 19 19 19 19 19 19 19 19 19 19 19 19 19 19 19 19 19 19 19
29 32 32 33 34 35 35 34 34 34 34 33 33 32 27 25 25 24 24 23 22 21 20 22 22 21 21 20 20 19 19 19 19 19 19 19 19 19 19 19 19 19 19 19 19 19 19 19 19
30 31 32 33 34 34 34 34 34 34 34 33 33 32 26 26 25 25 24 23 22 21 21 22 22 21 21 20 20 20 19 19 19 19 19 19 19 19 19 19 19 19 19 19 18 18 18 19 19
30 31 32 34 35 34 34 35 34 34 33 32 32 32 27 26 25 25 24 24 22 22 21 21 22 22 21 21 21 20 20 20 20 20 20 20 19 19 19 19 19 19 19 19 18 18 19 19 19
30 31 31 33 34 34 34 34 35 34 33 32 32 31 28 26 25 24 24 24 23 21 20 20 21 21 21 21 21 20 20 20 20 20 20 19 19 19 19 19 18 18 18 18 19 19 18 19 19
31 31 32 34 34 34 34 34 34 34 34 33 32 29 27 26 25 24 24 24 23 22 21 20 20 20 20 19 20 20 20 20 20 19 19 19 19 19 18 18 18 19 19 19 19 19 18 19 19
32 32 33 34 34 33 33 34 34 34 34 33 31 28 27 25 25 24 24 23 23 22 21 21 20 20 20 20 19 19 19 19 19 19 19 19 18 18 18 18 19 19 19 19 19 18 18 19 18
32 33 33 33 33 33 33 34 34 34 34 32 31 29 27 26 25 25 24 23 22 22 21 21 20 20 20 20 19 19 19 19 19 18 18 18 18 18 19 19 19 19 19 19 19 18 18 18 18
32 32 32 33 33 33 33 33 34 34 33 32 31 29 28 27 26 25 24 23 22 22 21 21 20 19 19 19 19 19 19 19 19 19 19 19 19 19 19 19 19 19 19 19 19 19 19 18 18
32 32 32 32 32 33 33 33 33 34 33 31 31 30 28 28 26 25 24 23 22 21 21 21 20 19 20 20 19 19 19 19 19 19 19 19 19 19 19 19 18 18 19 19 19 19 19 19 19
31 31 32 32 33 33 33 32 33 33 32 31 29 27 26 26 26 25 24 23 22 21 21 20 20 19 19 20 20 19 19 18 19 19 19 19 19 19 19 19 19 19 18 18 19 18 18 19 19
31 30 30 33 34 33 32 31 33 32 31 29 28 26 24 23 22 23 23 22 21 21 20 20 20 19 19 19 19 19 19 19 19 19 19 19 19 19 19 19 19 19 19 19 19 18 18 19 19
30 30 31 33 34 33 32 31 32 31 30 29 27 26 24 22 21 21 21 21 20 20 20 20 20 20 19 19 19 19 19 19 19 19 19 19 19 19 18 18 18 19 19 19 19 19 19 19 19
30 31 32 33 33 32 31 31 32 30 30 29 27 26 24 22 21 20 20 20 20 19 19 19 19 19 19 18 18 18 19 19 19 19 19 19 19 19 18 18 18 18 19 19 19 19 19 19 19
30 30 31 32 33 31 30 30 31 32 30 29 28 26 24 22 21 20 19 19 19 19 19 19 18 18 18 18 18 18 18 18 18 18 18 18 18 18 18 18 18 18 18 18 19 19 19 19 19
30 30 30 31 32 31 30 30 31 32 31 29 27 25 24 22 21 20 20 20 20 20 19 19 19 18 18 18 18 18 18 18 19 19 19 19 19 18 18 18 18 18 18 18 18 18 18 18 18
29 30 30 29 30 30 29 29 30 31 30 27 26 25 24 23 22 21 20 20 20 20 20 19 19 18 18 18 17 17 17 17 18 18 18 18 19 19 19 18 18 18 17 17 17 17 17 17 17
28 29 29 28 27 27 28 27 29 30 27 26 26 25 24 24 23 23 22 22 21 21 20 19 19 18 17 17 16 16 16 16 16 16 17 17 17 17 18 18 17 17 17 17 16 16 16 16 16
28 29 28 28 27 27 28 27 29 29 26 25 25 25 24 24 24 23 22 22 21 20 20 19 18 18 17 16 16 16 16 16 16 16 16 16 16 17 17 17 16 16 16 16 16 16 15 15 15
29 28 28 28 27 26 27 26 27 27 26 25 24 24 24 24 24 23 23 22 21 20 19 19 18 17 17 16 16 16 15 15 15 16 16 15 15 16 16 16 15 15 15 15 15 15 15 15 15
28 26 25 26 27 26 25 26 27 27 28 27 26 25 25 25 24 24 23 22 21 20 19 18 18 17 16 16 16 16 15 16 15 15 15 15 15 15 15 15 15 15 14 14 14 14 14 15 15
27 26 25 24 25 26 27 27 29 28 28 27 26 26 25 25 24 24 23 22 21 20 19 18 17 16 16 16 16 16 15 15 15 15 15 15 14 14 14 15 14 14 14 14 14 14 14 14 14
27 27 28 26 25 25 27 28 28 27 27 26 26 26 25 25 24 24 23 22 21 20 19 18 17 16 15 15 15 15 15 15 14 14 14 14 14 14 14 14 14 14 14 14 14 14 14 14 14
28 27 26 25 24 24 25 26 26 26 26 27 27 26 26 25 25 24 23 22 20 19 18 17 16 15 15 14 14 14 14 14 14 14 13 13 13 13 13 13 13 13 13 13 14 14 14 14 14
27 26 26 26 25 23 23 25 28 27 27 27 26 26 25 24 24 23 22 21 20 19 17 16 15 15 14 14 13 13 13 13 13 13 13 12 12 12 12 13 13 13 13 13 13 14 14 14 14
28 27 26 24 24 24 23 24 28 27 27 27 26 25 24 24 23 22 22 21 19 18 17 16 15 15 14 13 13 12 12 12 12 12 12 12 12 12 12 12 12 12 12 13 13 13 13 13 13

GEFSSGP_850_meantemp_012.txt.gz
Temperature
24 24 23 22 22 22 24 26 29 29 29 29 28 28 27 26 25 23 23 23 23 22 22 21 22 22 22 21 21 20 20 20 20 20 20 20 20 20 20 20 20 20 20 20 20 20 20 20 20
25 24 24 23 23 22 24 26 28 30 30 29 28 28 27 25 24 23 22 23 23 23 22 22 22 22 22 21 21 20 20 20 20 20 20 20 20 20 20 20 20 20 20 20 20 20 20 20 20
25 24 24 22 23 23 24 27 29 31 31 30 28 27 26 25 24 24 23 23 23 23 23 22 22 22 21 21 21 20 20 20 20 20 20 20 20 20 20 20 20 20 20 20 20 20 20 20 20
25 24 23 22 24 25 26 27 29 31 30 29 27 26 26 25 25 24 24 23 23 23 23 22 22 21 21 21 21 20 20 20 20 20 20 20 20 20 20 20 20 20 20 20 20 20 20 20 20
25 24 22 22 25 27 28 28 30 30 30 28 26 25 24 25 26 24 24 23 23 23 23 22 22 21 21 21 21 20 20 20 20 20 20 20 20 20 20 20 20 20 20 20 20 20 20 20 20
25 23 22 23 27 29 29 29 30 30 29 27 26 24 23 24 25 24 23 23 23 23 23 22 22 21 21 21 21 20 20 20 20 20 20 20 20 20 20 20 20 20 20 20 20 20 20 20 20
25 22 24 25 27 29 30 31 30 30 30 29 26 24 23 23 24 23 23 23 23 22 23 23 22 22 21 21 21 21 20 20 20 20 20 20 20 20 20 20 20 20 20 20 19 19 19 19 19
27 22 24 25 28 29 31 32 32 31 30 29 28 24 24 23 23 23 22 23 22 22 22 23 22 22 22 21 21 21 21 21 21 21 20 20 20 20 20 19 19 19 19 19 19 19 19 19 19
27 22 23 26 28 29 31 31 32 31 31 30 28 28 27 24 23 22 22 22 22 21 21 22 22 22 22 21 21 21 21 21 21 21 20 20 20 20 20 19 19 19 19 19 19 19 19 19 19
26 22 25 27 29 29 30 31 31 30 28 27 27 27 25 24 23 22 22 22 21 21 21 21 22 22 22 21 21 21 21 21 21 20 20 20 20 19 19 19 19 19 18 18 18 18 18 18 19
26 25 26 28 30 31 31 31 31 29 26 26 26 25 25 24 24 23 22 22 22 22 21 21 21 21 22 21 21 21 21 20 20 20 20 20 19 19 19 19 19 19 18 18 18 18 18 18 18
27 26 28 29 31 31 31 31 31 29 28 28 28 27 25 24 24 24 23 22 22 22 21 21 21 21 21 21 21 20 20 19 20 20 20 20 19 19 19 19 19 18 18 18 18 18 18 18 18
26 26 29 30 30 30 31 31 30 30 29 28 27 26 25 25 24 24 24 23 22 22 21 21 20 20 20 20 20 20 19 19 19 19 19 19 19 19 19 18 18 18 18 18 18 18 18 18 18
27 28 28 30 30 30 29 29 29 29 27 25 25 25 25 25 24 24 23 23 23 22 22 21 21 20 20 20 20 19 19 19 19 19 19 19 19 19 19 18 18 18 18 18 18 18 18 18 18
27 26 26 27 28 29 29 27 28 28 26 24 24 24 24 24 24 24 23 23 23 22 22 21 21 20 20 20 19 19 19 18 18 18 18 18 18 18 18 18 18 19 18 18 18 18 18 18 18
25 25 24 25 26 28 27 26 26 26 25 23 23 23 23 23 23 23 23 23 22 22 21 21 20 20 19 19 19 19 18 18 18 18 18 18 18 18 18 18 18 19 18 18 18 18 18 18 18
23 23 24 25 27 27 26 26 26 26 25 24 23 23 23 23 23 23 22 22 21 21 21 20 20 19 19 18 18 18 18 18 18 18 18 18 18 18 18 18 18 18 18 18 18 18 18 18 18
23 23 25 25 26 26 26 25 26 26 26 24 23 23 23 22 22 22 22 21 21 20 20 20 20 19 19 19 19 18 18 18 18 18 18 19 19 19 18 18 18 18 18 18 18 18 18 18 18
25 25 25 26 26 26 25 26 26 26 26 24 22 22 22 22 22 22 22 21 20 20 20 20 20 19 19 19 19 18 18 18 18 18 19 19 19 19 18 18 18 18 18 18 18 18 18 18 18
26 25 25 25 26 26 25 25 25 25 25 24 22 21 21 21 22 22 21 21 21 20 20 20 20 20 19 19 19 18 18 18 18 18 18 18 18 18 18 18 18 18 17 17 18 18 18 18 18
25 25 24 24 24 24 24 22 22 22 23 23 21 21 22 22 22 22 21 21 21 21 21 21 20 20 20 19 19 18 18 17 17 17 17 18 17 17 17 17 17 17 17 17 17 17 17 17 17
24 25 25 24 22 21 23 20 20 21 21 21 21 21 22 22 22 22 22 22 22 22 21 21 21 20 20 19 18 18 17 17 16 16 16 16 17 17 17 16 16 16 16 16 16 16 16 16 16
25 25 24 24 22 21 21 20 20 20 20 20 20 21 22 22 22 22 23 23 22 22 22 21 21 20 20 19 18 17 17 16 16 16 16 16 16 16 16 16 16 16 16 16 16 16 16 16 16
26 24 22 20 18 19 21 20 19 19 20 20 20 21 22 23 23 23 23 23 22 22 21 21 20 20 19 18 17 17 16 16 15 15 15 16 16 16 16 16 16 16 15 15 16 15 15 15 15
24 20 18 19 18 19 20 20 19 19 20 20 21 22 23 23 23 23 23 23 22 22 21 20 20 19 19 18 17 16 16 15 15 15 15 15 15 15 15 15 15 15 15 15 15 15 15 15 15
25 20 18 19 18 18 19 20 19 21 22 23 23 23 23 23 24 23 23 23 22 21 21 20 20 19 18 17 16 16 15 15 14 14 14 14 14 14 14 14 14 14 15 15 15 14 14 14 14
24 22 19 17 19 19 19 21 21 21 21 22 22 23 23 23 23 23 23 22 22 21 21 20 20 19 18 17 16 15 15 14 14 14 14 13 13 13 14 14 14 14 14 14 14 14 14 14 14
24 22 18 19 19 18 19 20 20 21 21 21 21 23 23 23 23 23 23 22 22 21 21 20 20 19 17 16 15 15 14 14 13 13 13 13 12 13 13 13 13 13 13 14 14 14 14 14 14
23 23 20 17 16 17 17 18 20 20 21 21 21 22 23 22 22 22 22 22 22 21 21 20 20 18 17 16 15 14 14 13 13 13 12 12 12 12 12 12 13 13 13 13 13 14 14 13 13
23 22 19 18 18 17 16 18 20 19 19 20 20 21 21 21 21 21 21 21 21 21 21 20 19 18 17 16 15 14 14 13 13 12 12 12 12 12 12 12 12 12 13 13 13 13 13 13 13

GEFSSGP_850_meantemp_018.txt.gz
Temperature
23 23 22 21 20 21 24 26 26 26 26 26 26 26 24 23 23 23 22 23 22 22 21 21 21 21 20 20 20 20 20 20 20 20 20 20 20 20 20 20 20 20 20 20 20 20 20 20 20
24 23 22 21 22 23 25 26 26 26 26 26 26 25 24 23 23 23 23 22 22 22 21 21 21 21 21 20 20 20 21 20 20 20 20 20 20 20 20 20 20 20 20 20 20 20 20 20 20
24 23 23 21 22 23 25 26 26 27 27 27 26 25 24 24 24 24 24 22 22 22 21 21 21 21 21 21 21 21 20 20 20 20 20 20 20 20 20 20 19 19 19 19 20 20 20 20 20
24 24 23 22 25 24 25 26 26 27 27 27 25 24 23 24 24 24 24 23 22 22 21 21 21 21 21 21 21 20 20 20 20 20 20 20 20 20 20 20 20 20 19 19 19 19 19 19 19
25 24 22 22 24 25 25 26 27 27 27 26 25 23 23 23 24 24 24 23 23 22 22 21 21 21 21 21 20 20 20 20 20 20 20 20 20 19 20 20 20 20 20 19 19 19 19 19 19
26 22 21 23 24 26 26 27 28 27 26 26 25 23 23 24 24 24 23 23 23 22 22 21 21 21 21 20 20 20 20 20 20 20 20 19 19 19 19 19 19 19 19 19 19 19 19 19 19
24 20 23 24 24 26 28 28 28 27 26 26 25 22 23 23 23 23 23 22 22 22 22 21 21 21 20 20 20 20 20 20 20 20 19 19 19 19 19 19 19 19 19 19 19 19 19 19 19
25 20 23 23 25 26 28 29 29 28 27 26 26 23 23 24 23 23 22 22 22 21 21 21 21 20 20 20 20 20 19 19 19 19 19 19 19 19 19 19 19 19 19 19 19 19 19 19 18
24 21 23 24 25 26 28 28 29 28 27 26 26 26 26 24 23 22 22 21 21 21 21 21 21 21 20 20 20 19 19 19 19 19 19 19 20 20 19 19 19 19 19 19 19 18 18 18 18
24 21 24 25 26 27 27 28 28 27 26 25 25 25 25 24 23 22 22 22 21 21 21 21 21 21 21 20 20 20 20 19 19 19 19 20 20 20 19 19 19 19 19 19 18 18 18 18 18
24 23 24 25 27 27 27 28 28 27 25 26 26 26 25 24 23 22 22 22 22 22 21 21 21 21 21 20 20 20 20 20 20 20 20 19 19 19 19 19 19 19 19 18 18 18 18 18 18
24 24 25 26 27 27 27 28 28 27 28 29 29 28 26 24 23 23 23 22 22 22 21 21 21 21 21 20 20 20 20 20 20 20 19 19 19 19 19 19 19 19 18 18 18 18 18 18 18
24 24 26 27 27 27 27 27 28 28 28 28 27 27 26 25 24 24 23 23 22 22 21 21 21 20 20 20 20 20 20 20 20 19 19 19 18 18 18 18 18 18 18 18 18 18 18 18 18
24 24 24 25 26 27 27 26 26 27 27 27 26 26 25 25 24 23 23 22 22 22 21 21 20 20 20 20 20 20 19 19 19 19 18 18 18 18 18 18 18 18 18 18 18 18 18 18 18
24 23 23 25 25 26 26 26 25 26 26 25 25 24 24 24 24 24 23 23 23 22 21 21 20 20 20 19 19 19 19 18 18 18 18 18 18 18 18 18 18 18 18 18 18 18 18 18 18
23 23 23 23 23 24 25 24 24 24 24 23 23 23 23 23 23 23 23 23 22 22 21 21 20 20 19 19 19 19 18 18 18 18 18 17 17 17 17 17 17 18 17 17 17 18 18 18 18
21 22 23 23 23 23 23 23 21 23 22 22 22 22 22 22 22 22 22 22 22 22 21 21 20 20 20 19 19 19 18 18 18 18 17 17 17 17 17 17 17 17 17 17 17 17 17 18 18
23 23 23 23 23 22 22 21 21 22 21 21 21 22 22 22 22 22 22 22 22 21 21 21 20 20 20 20 19 19 19 18 18 18 18 17 17 17 17 17 17 17 17 17 17 17 17 17 18
23 23 23 23 24 22 22 21 21 21 21 21 21 21 21 21 21 21 22 22 21 21 21 21 21 21 21 20 20 20 19 19 18 18 17 17 17 16 16 16 16 17 17 17 17 17 17 17 17
22 23 23 23 23 23 22 22 21 20 21 21 21 20 20 20 21 21 21 21 22 22 22 22 22 21 21 20 20 19 19 18 18 17 17 16 16 16 16 16 16 16 16 16 16 16 16 16 17
23 23 24 23 22 21 22 21 21 20 20 20 20 20 20 21 22 22 22 22 22 22 22 22 22 21 20 20 19 19 18 18 17 17 16 16 16 16 16 16 16 16 16 16 16 16 16 16 16
23 24 23 23 21 20 21 19 20 19 18 18 19 19 20 21 22 22 23 23 23 23 22 22 21 21 20 20 19 19 18 17 17 16 16 16 15 15 16 16 16 16 16 16 16 15 15 15 15
24 23 22 21 20 19 19 19 18 18 19 18 18 19 20 21 22 22 23 23 23 22 22 21 21 20 20 20 19 18 18 17 16 16 15 15 15 15 15 15 15 15 15 15 15 15 15 15 15
23 20 19 16 16 18 20 19 18 17 19 19 19 19 20 21 22 22 23 22 22 22 22 21 21 20 20 19 19 18 17 16 16 15 15 15 15 15 15 15 14 14 14 14 14 14 14 14 14
21 19 17 18 16 17 18 18 17 19 19 19 19 21 21 21 21 22 22 22 22 22 22 21 21 20 20 19 19 18 17 16 15 15 15 14 14 14 14 14 14 14 14 14 14 14 14 14 14
21 19 18 18 17 17 17 18 18 19 20 20 20 20 20 20 20 21 21 21 21 22 22 21 21 20 20 19 19 18 17 16 15 14 14 14 14 14 13 13 13 13 13 13 13 13 14 14 14
20 19 18 16 17 16 17 18 18 18 18 18 17 17 17 17 18 19 20 20 21 21 21 21 21 20 20 19 18 17 16 16 15 14 14 14 13 13 13 13 12 12 13 13 13 13 13 13 13
21 17 15 16 17 17 17 17 16 15 14 14 13 13 13 15 16 17 18 18 19 19 20 20 20 19 19 18 18 17 16 15 15 14 14 14 13 13 13 13 12 12 12 13 13 13 13 13 13
20 18 15 14 15 15 16 16 14 12 12 12 12 12 12 12 13 15 15 16 17 17 18 18 18 18 18 17 17 16 16 15 15 14 14 13 13 13 13 12 12 12 12 12 13 13 13 13 13
20 19 16 17 16 14 14 14 13 12 12 11 11 11 11 12 12 13 14 15 15 16 16 16 16 16 16 16 16 16 15 15 14 14 14 13 13 13 12 12 12 12 12 12 12 13 13 13 13

GEFSSGP_850_meantemp_024.txt.gz
Temperature
23 21 21 22 28 32 32 32 32 32 32 31 30 30 31 30 30 28 23 23 22 22 22 22 21 20 20 20 19 20 20 20 20 20 20 20 20 20 20 20 20 19 19 19 19 19 20 20 20
22 21 22 26 32 32 31 32 32 31 31 30 29 29 30 28 25 23 22 22 22 22 22 22 21 21 20 20 20 20 20 20 20 20 20 20 20 20 20 20 20 20 20 20 20 20 20 20 20
23 22 25 31 33 32 31 32 32 31 30 30 30 29 29 27 24 23 22 22 21 21 21 22 22 21 21 20 20 20 20 20 20 20 20 20 20 20 20 20 20 19 19 19 19 19 19 19 19
22 24 28 32 32 32 32 32 32 32 31 30 30 29 27 24 24 23 22 22 21 21 21 22 22 21 21 21 20 20 20 20 20 20 20 20 20 20 19 19 19 19 19 19 19 19 19 19 18
23 29 32 33 32 32 32 32 32 32 32 31 30 30 27 23 23 23 22 22 22 21 21 22 22 21 21 21 21 20 20 20 20 20 20 20 19 19 19 19 19 19 19 19 19 19 19 18 18
28 31 33 32 32 32 33 32 32 32 31 30 30 30 26 22 22 22 22 22 22 21 21 21 22 21 21 21 20 20 20 20 20 20 20 19 19 19 19 19 19 19 19 19 19 19 19 19 18
30 32 33 33 32 32 32 32 32 32 32 31 30 30 26 24 23 22 22 22 22 21 21 20 21 21 21 20 20 20 20 20 20 20 19 19 19 19 19 19 19 19 19 19 19 19 19 19 19
29 32 32 33 32 32 32 32 32 32 32 30 30 31 28 24 22 22 21 21 21 21 20 19 19 19 20 20 20 20 20 20 20 19 19 19 19 19 19 19 19 19 19 19 19 19 19 19 19
28 32 32 32 32 32 32 32 32 31 30 29 29 29 28 24 22 22 21 21 20 20 20 20 20 19 19 19 19 20 20 20 19 19 19 19 19 18 18 18 19 19 19 19 19 19 19 19 19
30 32 33 32 32 33 32 32 32 32 31 30 28 25 24 23 22 22 22 21 20 20 20 20 20 19 19 19 19 19 19 19 19 18 18 18 18 18 18 18 19 19 19 19 19 19 19 18 18
30 31 32 31 31 31 32 32 32 33 33 32 30 26 24 23 22 22 22 22 21 21 20 20 19 19 19 19 19 19 18 18 18 18 18 18 18 18 18 18 18 19 19 19 18 18 18 18 18
30 30 30 30 30 30 31 32 33 33 33 31 30 27 25 24 23 23 23 22 21 21 20 20 20 20 20 19 19 18 18 18 18 18 18 18 18 18 18 18 18 18 18 18 18 18 18 18 18
29 30 30 30 30 30 30 32 32 32 31 29 28 26 25 25 24 24 23 22 21 21 20 20 21 21 21 20 19 19 18 19 18 18 18 18 18 18 18 18 18 18 18 18 18 18 18 18 18
29 29 30 30 30 30 31 32 32 32 30 28 27 26 26 26 25 24 23 22 21 21 21 20 21 20 21 20 20 20 19 19 18 18 18 18 18 18 18 18 18 18 18 18 18 18 18 18 18
28 29 31 31 31 30 30 32 32 31 29 29 27 27 26 25 25 24 23 22 22 21 21 20 20 20 20 20 20 19 19 18 18 18 18 18 18 17 17 17 17 17 17 18 18 18 18 17 17
29 30 30 31 31 30 30 31 32 29 29 29 28 26 25 24 24 23 23 22 22 22 21 21 20 20 20 20 19 19 19 18 18 18 18 17 17 17 17 17 17 17 17 17 17 17 17 17 18
29 30 30 30 30 30 30 31 30 29 29 29 27 26 25 24 24 23 23 22 22 21 21 21 20 20 20 19 19 19 19 19 18 18 18 17 17 17 17 17 16 16 16 16 16 17 17 17 17
29 30 29 30 30 30 30 30 30 28 28 29 27 27 25 24 24 23 22 22 22 21 21 21 20 20 20 19 19 19 19 19 18 18 17 17 17 16 16 16 16 16 16 16 16 16 16 16 17
29 29 29 29 29 29 29 29 29 28 28 28 27 26 25 25 24 23 22 22 22 21 21 21 20 20 20 20 19 19 19 19 19 18 17 17 16 16 16 15 15 15 15 15 15 15 16 16 16
28 28 29 29 29 29 29 29 30 29 28 27 27 26 26 25 23 22 22 22 22 21 21 21 21 20 20 20 20 20 20 19 18 18 17 16 16 16 15 15 15 15 15 15 15 15 15 16 16
28 28 28 28 28 29 28 28 29 29 28 27 26 26 25 25 24 23 22 22 22 21 21 21 20 20 20 20 19 19 19 19 18 18 17 16 16 16 16 15 15 15 15 15 15 15 14 15 16
28 28 28 27 27 28 28 27 29 29 28 27 26 25 25 24 24 23 23 22 22 21 21 20 20 20 20 20 19 19 19 19 19 18 17 16 16 15 15 15 15 15 14 14 14 14 14 14 15
28 28 28 27 27 27 27 27 28 27 27 26 25 24 23 22 21 21 21 20 20 20 20 19 19 19 19 19 19 19 19 18 18 17 17 17 15 15 14 14 14 14 14 14 14 14 14 14 14
28 27 27 27 27 26 26 26 26 25 23 24 23 21 19 18 18 18 18 18 19 19 19 19 19 19 19 19 19 19 18 18 18 17 16 16 15 15 14 14 14 14 14 14 14 14 14 14 14
28 27 26 26 26 26 27 26 24 21 21 21 20 18 17 16 16 15 16 16 17 17 18 18 18 18 18 18 18 18 18 18 17 17 16 16 15 15 14 14 14 14 13 14 13 13 13 13 14
27 26 25 25 25 26 27 26 22 20 19 18 17 17 16 15 15 14 14 14 14 14 15 15 16 16 16 16 17 17 17 17 16 16 16 15 15 15 14 14 14 14 13 13 13 13 13 13 14
26 27 27 26 26 25 26 25 21 20 19 18 17 16 15 15 14 14 13 13 13 13 13 13 14 14 14 15 15 16 16 16 16 16 16 15 15 15 14 14 14 13 13 13 13 13 13 13 13
26 26 26 25 24 24 25 25 25 20 19 18 17 16 15 15 14 14 13 13 12 12 12 12 12 13 13 14 14 14 14 15 15 15 15 15 15 15 14 14 13 13 13 13 13 13 13 13 13
26 26 25 26 25 24 24 25 20 18 17 17 16 15 15 14 14 14 13 12 12 12 11 11 11 12 12 12 13 13 13 14 14 14 14 14 14 14 14 14 13 13 13 12 13 13 13 13 13
26 25 25 24 24 24 24 23 17 17 16 16 15 15 14 14 14 13 13 12 11 11 11 11 10 11 11 11 11 11 12 12 12 13 13 13 13 14 14 13 13 13 12 12 12 13 13 13 13

GEFSSGP_850_meantemp_030.txt.gz
Temperature
25 24 23 24 27 30 32 34 34 34 34 34 34 34 32 30 29 28 27 25 24 24 24 22 21 21 20 20 20 20 20 20 20 20 20 20 20 20 20 20 20 19 19 19 19 20 20 20 20
25 24 25 27 29 29 32 34 34 34 34 34 34 33 32 30 29 28 26 24 24 25 24 23 22 21 21 20 20 20 20 20 20 20 20 20 20 20 20 20 20 20 20 20 20 20 20 20 20
26 25 27 30 29 29 32 34 34 35 34 34 33 32 31 29 28 27 26 24 23 24 24 24 23 22 21 21 20 20 20 20 20 20 20 20 20 20 20 20 20 20 20 20 20 20 20 20 20
25 28 30 31 30 31 33 34 35 35 34 34 33 31 29 28 28 26 25 24 23 23 24 23 23 22 21 21 21 20 20 20 20 20 20 20 20 20 20 20 20 20 20 20 20 20 20 20 20
27 30 32 32 32 33 34 35 35 34 35 34 32 30 28 28 27 26 25 24 23 22 23 23 23 22 22 21 21 21 20 20 20 20 20 20 20 20 20 20 20 20 20 19 19 20 20 20 20
29 33 33 32 31 32 34 35 34 34 34 34 32 30 28 27 26 26 25 24 24 22 23 23 23 22 22 21 21 21 20 20 20 20 20 20 20 20 19 19 19 19 19 19 19 19 19 19 19
31 32 33 33 31 30 33 34 34 33 34 34 33 31 28 27 26 26 26 25 24 23 23 23 23 22 22 22 21 21 21 20 20 20 20 20 20 20 19 19 19 19 19 19 19 19 19 19 19
31 33 33 34 32 30 33 35 34 34 33 33 33 32 29 27 26 26 26 26 25 23 23 23 23 23 22 22 21 21 21 21 20 20 20 20 20 20 19 19 19 19 19 19 19 19 19 19 19
31 32 32 34 34 33 34 35 35 34 32 32 33 32 29 27 27 26 26 26 26 24 22 23 22 23 22 22 22 21 21 21 20 20 20 20 20 19 19 19 19 19 19 19 19 19 19 19 19
33 32 33 35 35 35 35 35 35 34 33 31 29 28 28 27 27 26 26 26 25 25 23 22 21 21 21 20 20 21 21 21 20 20 20 20 19 19 18 19 19 19 19 19 19 19 19 19 19
33 33 34 35 35 35 35 35 35 35 32 27 25 24 26 27 27 26 26 26 25 24 24 23 22 21 21 21 20 20 20 20 20 20 19 19 19 19 19 19 19 19 19 19 19 19 19 19 19
34 34 34 34 34 34 34 35 35 35 32 28 27 25 25 26 27 26 26 26 24 24 24 24 23 21 21 21 21 20 20 20 20 20 19 19 19 19 19 19 19 19 18 18 18 18 18 18 19
33 33 34 34 34 34 34 34 35 34 31 29 27 26 26 26 27 27 26 25 24 23 23 23 22 21 21 21 21 21 20 21 20 20 19 19 19 19 18 19 19 19 19 19 18 19 19 19 19
33 33 33 34 34 34 34 34 34 34 32 29 27 26 26 26 27 27 26 25 24 23 23 23 22 21 21 21 21 20 20 20 20 20 20 19 19 19 19 18 18 19 19 19 19 19 19 19 19
32 32 32 33 34 34 34 34 34 34 34 32 29 28 28 28 28 28 27 25 24 23 23 22 22 21 21 20 20 20 20 20 20 19 19 19 19 18 18 18 18 18 18 18 18 18 18 18 18
32 31 31 33 34 35 34 32 34 34 34 33 32 31 30 29 29 28 27 25 25 24 23 22 22 21 21 20 20 19 20 20 20 20 19 19 19 18 18 18 18 18 18 17 17 18 18 18 18
31 31 31 33 35 35 34 32 34 34 33 33 32 32 31 29 28 28 27 25 25 24 23 22 22 21 21 20 20 20 20 20 20 20 20 19 19 18 18 18 17 17 17 17 17 17 17 17 17
31 32 32 33 34 33 32 32 34 33 33 32 32 31 30 29 27 27 26 25 25 24 23 22 21 21 20 20 20 20 20 20 20 20 20 19 19 18 18 18 17 17 17 16 16 16 16 16 16
31 31 32 33 34 32 31 32 32 33 32 31 30 30 28 27 26 26 24 23 23 23 22 21 21 20 20 20 20 20 20 20 20 20 20 19 19 18 18 18 17 17 16 16 16 16 16 16 16
31 31 31 32 33 32 31 31 32 32 31 30 29 27 25 24 22 21 20 20 20 19 20 20 20 20 20 20 20 20 21 21 20 20 20 19 19 18 18 17 17 17 16 16 16 16 15 16 16
30 30 30 30 31 31 31 30 31 31 30 28 25 22 20 19 19 18 18 18 18 18 18 19 19 19 19 19 20 20 20 20 20 20 20 19 18 18 18 18 18 17 17 16 16 16 15 15 15
29 30 30 30 29 29 30 29 30 30 28 25 23 21 19 18 17 17 17 17 17 18 18 19 19 19 19 19 19 19 19 20 20 20 20 19 19 18 18 18 17 17 17 16 16 15 15 15 15
30 31 30 30 29 29 29 28 29 29 26 24 22 20 19 17 16 16 16 16 17 17 18 18 18 18 18 18 19 19 19 19 19 19 19 19 18 18 17 17 17 17 17 16 15 16 16 15 15
31 30 30 29 28 25 24 24 26 27 25 23 22 20 19 18 17 16 16 15 15 16 16 16 17 17 17 18 18 18 18 18 18 18 18 18 18 18 17 17 17 17 17 16 16 15 15 15 15
30 28 27 26 24 22 21 22 24 25 25 23 22 20 19 18 17 16 16 15 15 15 15 15 16 16 16 16 16 16 16 16 17 17 17 17 17 17 17 17 17 17 16 16 16 15 15 15 15
29 29 27 26 26 26 24 24 23 23 23 22 21 20 20 19 18 17 16 15 15 15 14 15 15 15 15 16 15 15 15 15 15 16 16 16 16 17 17 16 16 16 16 15 15 15 15 15 15
29 29 29 28 27 27 27 24 22 22 21 21 21 20 19 19 18 18 17 16 15 15 14 14 14 15 15 15 15 15 15 15 15 15 15 15 15 15 16 15 15 15 15 15 15 15 15 15 14
30 29 28 27 25 25 27 24 22 20 20 20 20 20 19 18 18 17 17 16 15 15 14 14 13 13 13 13 14 13 14 14 14 14 14 14 15 15 15 15 15 15 14 14 14 14 14 14 14
29 29 28 27 26 25 24 23 22 20 19 20 20 19 18 18 17 16 16 16 15 15 14 14 13 12 12 12 12 12 12 12 12 13 13 13 13 14 14 14 14 14 14 14 14 14 14 14 14
29 28 28 26 25 25 25 21 21 20 20 19 19 18 18 17 16 16 15 15 14 14 13 13 12 12 11 11 11 11 11 11 11 11 11 12 12 12 13 13 13 14 14 14 14 14 14 14 14

GEFSSGP_850_meantemp_036.txt.gz
Temperature
24 23 22 21 21 22 24 28 29 29 29 29 29 28 27 26 25 23 23 23 23 23 22 21 21 21 21 21 21 21 21 21 21 21 21 21 20 20 20 20 20 20 20 20 21 21 21 21 20
25 24 23 22 22 23 25 28 28 29 29 29 29 28 27 24 23 23 22 23 24 24 22 21 21 21 21 21 21 21 21 21 21 21 21 21 21 21 21 20 20 21 21 21 21 21 21 21 21
25 24 23 22 23 24 25 27 28 29 29 30 29 28 27 24 23 23 23 23 24 24 23 22 21 21 21 21 21 21 21 21 21 21 21 21 21 21 21 21 21 21 21 21 21 21 21 21 21
26 25 24 22 24 25 26 27 28 28 29 29 28 27 26 25 25 25 24 23 24 24 23 22 21 21 21 21 21 21 21 21 21 21 21 21 21 21 20 20 20 20 20 20 20 20 20 20 20
26 25 23 23 25 26 27 28 28 28 28 28 27 26 25 26 26 25 24 24 24 24 23 22 22 21 21 21 21 21 21 21 21 21 21 20 20 20 20 20 20 20 20 20 20 20 20 20 20
26 23 23 23 25 27 27 28 28 27 27 27 26 25 24 25 26 25 24 24 25 24 23 22 22 22 21 21 21 21 21 21 21 20 20 20 20 20 20 20 20 20 20 20 20 20 20 20 20
26 23 24 25 25 26 28 28 28 26 27 27 27 25 23 23 25 25 25 25 25 24 24 23 22 22 21 21 21 21 21 21 20 20 20 20 20 20 20 20 20 19 19 20 20 20 20 20 20
28 23 25 25 26 26 28 28 28 27 27 27 27 25 24 23 24 24 24 24 24 24 24 23 23 22 21 21 21 21 21 21 20 20 20 20 20 20 20 19 19 19 19 19 19 20 20 20 20
28 23 23 25 27 27 28 28 28 27 27 26 27 27 27 25 24 24 24 24 24 24 24 24 23 22 22 21 21 21 21 21 20 20 20 20 20 20 20 19 19 18 19 19 19 19 19 19 19
26 22 24 26 28 28 29 29 28 26 25 25 26 27 27 26 25 24 23 24 24 24 24 24 23 23 22 22 21 21 21 21 21 20 20 20 20 20 19 19 18 18 18 18 18 18 18 19 19
26 25 26 28 30 30 29 29 29 26 25 25 26 27 27 27 25 25 24 24 24 24 23 23 23 23 22 22 21 21 21 21 20 20 20 20 19 19 19 19 18 18 18 18 18 18 18 18 18
27 26 28 29 31 30 30 30 29 28 28 29 29 29 28 27 26 25 25 24 23 23 23 23 23 22 22 22 21 21 20 20 20 20 20 19 19 19 18 18 18 18 18 18 18 18 18 18 18
26 27 29 30 30 31 31 30 29 29 30 28 28 28 28 27 26 26 25 24 23 22 21 21 21 21 21 21 21 20 20 20 20 20 19 19 19 19 18 18 18 18 18 18 18 18 18 18 18
26 27 27 29 30 31 29 29 29 29 29 27 26 27 27 27 26 25 24 23 22 21 20 20 20 19 20 20 20 20 20 19 19 19 19 19 19 18 18 18 18 18 18 18 18 17 17 17 17
27 25 25 27 28 29 29 27 27 29 27 25 25 25 25 24 24 23 23 22 21 20 20 20 19 19 19 19 19 19 19 19 19 19 19 19 19 18 18 18 18 18 18 17 17 17 17 17 17
25 24 24 25 26 28 28 26 27 28 26 24 24 24 23 23 22 22 22 21 21 20 20 19 19 19 19 19 19 19 19 19 19 19 19 19 19 19 19 18 18 18 17 17 17 17 17 17 17
23 23 24 26 27 27 26 25 26 26 25 23 22 22 21 20 20 20 21 21 20 20 20 19 19 19 19 19 19 19 19 19 19 19 19 19 19 19 19 18 18 18 17 17 17 17 17 17 16
23 24 25 25 27 27 26 25 24 23 22 20 19 19 18 18 19 19 20 20 20 20 20 20 19 18 18 18 18 18 19 19 19 19 19 19 19 19 19 19 18 18 18 17 17 17 16 16 16
26 26 26 27 27 26 24 22 21 20 19 18 17 17 17 17 17 18 18 19 19 20 20 19 18 18 18 17 17 18 18 18 18 19 19 19 19 19 19 19 19 18 18 18 17 17 16 16 16
27 26 26 26 27 26 23 20 19 19 17 17 16 15 15 15 16 17 17 18 18 19 19 19 18 18 18 17 18 18 18 18 18 19 19 19 19 19 19 19 19 19 18 18 17 17 16 16 16
27 26 26 26 25 24 24 20 19 18 17 16 15 15 14 14 15 16 16 17 17 17 17 17 17 17 17 17 17 18 18 18 18 18 19 19 19 19 19 19 19 19 19 18 18 17 17 16 16
25 27 27 26 24 21 23 20 18 17 16 16 15 15 14 14 15 15 16 16 16 16 16 16 16 16 16 16 17 17 18 18 18 18 18 18 18 18 18 18 18 18 18 18 18 17 17 16 16
27 27 26 25 23 21 20 20 18 17 16 15 15 15 15 15 15 15 16 16 16 16 16 16 16 16 16 16 16 17 17 17 18 18 18 18 18 18 18 18 18 18 18 18 18 18 17 17 16
26 25 23 20 19 20 20 19 17 16 16 15 15 15 15 15 16 16 16 16 16 16 16 16 16 16 16 16 16 16 16 16 17 17 17 17 17 17 17 17 17 17 17 17 17 17 17 17 16
25 21 19 20 18 19 19 18 16 16 16 16 15 15 15 16 16 16 16 16 16 16 16 16 16 15 15 15 15 15 15 15 15 15 15 16 16 16 16 16 16 16 16 17 17 17 17 16 16
25 21 20 20 20 19 18 17 16 17 16 16 16 16 16 16 16 16 16 16 16 16 16 16 15 15 15 15 14 14 14 14 14 14 14 14 14 14 14 15 15 15 16 16 16 16 16 16 16
24 22 21 19 20 18 18 17 16 16 16 16 16 16 16 16 16 16 16 16 16 15 15 15 15 15 14 14 14 14 13 13 13 13 13 12 13 13 13 13 14 14 15 15 15 15 15 15 15
23 22 19 19 19 19 19 17 16 16 16 16 16 16 16 16 16 16 16 16 16 15 15 15 14 14 14 13 13 13 13 12 12 12 12 12 12 12 12 12 12 13 13 14 14 14 14 15 15
22 21 19 17 18 18 18 17 17 16 15 15 15 16 17 17 17 16 16 16 16 15 15 14 14 13 13 13 13 12 12 12 12 11 11 11 11 11 11 11 11 12 12 12 13 13 13 14 14
22 21 19 18 18 17 16 16 17 16 16 16 16 17 17 16 16 16 15 15 14 14 14 14 13 13 13 12 12 12 12 11 11 11 11 11 10 10 10 10 10 11 11 12 12 12 13 13 13

GEFSSGP_850_meantemp_042.txt.gz
Temperature
21 20 19 18 19 20 22 24 25 25 26 26 26 26 25 24 23 23 24 24 24 22 21 20 20 20 20 20 21 21 21 21 21 21 21 20 20 20 20 20 20 20 20 19 20 20 20 20 20
22 20 19 19 20 22 24 25 25 26 26 27 27 26 24 23 23 24 24 24 23 22 21 20 20 20 20 20 21 21 21 21 21 21 21 20 20 20 20 20 20 20 20 20 20 20 20 20 20
22 21 20 19 21 23 25 26 26 26 27 27 26 25 24 23 24 24 25 24 23 22 21 20 20 20 20 21 21 21 21 21 21 21 21 20 20 20 20 20 20 20 20 20 20 20 20 20 20
22 21 21 20 23 24 25 26 26 26 27 27 26 24 24 24 24 25 25 24 23 22 21 20 20 20 21 21 21 21 21 21 21 21 21 20 20 20 20 20 20 20 20 20 20 20 20 20 19
22 22 21 21 23 24 25 26 26 26 26 26 25 24 24 24 25 25 25 24 23 22 21 21 20 21 21 21 21 21 21 21 21 21 20 20 20 20 20 20 20 20 20 20 20 20 20 19 19
23 21 21 22 24 25 25 26 26 26 26 26 25 24 24 24 24 25 24 24 23 22 21 21 20 21 21 21 21 21 21 21 21 20 20 20 20 20 20 20 20 20 20 20 20 20 19 19 19
23 20 22 24 24 24 26 26 26 25 26 26 26 24 24 24 24 24 24 23 23 22 21 21 20 20 20 21 21 21 21 21 20 20 20 20 20 20 20 20 20 20 20 19 19 19 19 19 19
25 20 23 23 24 25 26 26 27 26 26 27 26 25 24 25 24 23 23 22 22 21 21 21 20 20 20 20 20 20 20 20 20 20 20 20 20 20 20 19 19 19 19 19 19 19 19 19 19
25 20 22 23 24 25 26 26 27 27 26 26 26 26 27 26 24 22 22 21 21 21 21 21 20 20 20 20 20 20 20 20 20 20 20 19 19 19 19 19 19 19 19 19 19 19 19 19 19
23 20 22 24 25 25 26 26 27 26 25 26 26 26 26 25 24 22 22 22 21 21 21 20 20 20 20 20 20 20 20 20 19 19 19 19 19 19 19 19 19 19 18 18 18 18 18 18 18
23 22 23 25 27 26 25 26 27 25 24 26 27 26 25 24 23 22 22 22 22 21 20 19 19 19 19 19 19 19 19 19 19 19 19 19 19 19 19 19 19 18 18 18 18 18 18 18 18
23 23 25 26 27 26 26 26 25 25 26 27 26 26 24 23 22 21 21 21 21 20 20 19 19 19 19 19 19 19 19 19 19 19 19 19 19 19 19 19 18 18 18 18 18 18 18 18 18
24 24 25 26 26 26 26 25 25 24 25 25 25 24 23 22 21 20 20 20 20 20 20 20 19 19 19 19 19 19 19 20 20 19 19 19 19 19 18 18 18 18 18 18 18 18 18 17 17
24 24 24 25 26 26 24 22 21 20 22 23 22 21 21 20 20 20 20 19 19 19 19 19 19 20 20 20 20 20 19 19 19 19 19 18 18 18 18 18 18 18 18 18 17 17 17 17 17
24 23 22 24 24 25 24 20 18 18 20 19 18 18 18 19 19 19 19 19 18 18 18 18 18 19 19 19 19 19 19 19 19 19 19 18 18 18 18 18 18 18 18 17 17 17 17 17 17
23 22 23 22 21 22 21 18 18 17 18 17 17 16 17 17 17 17 18 18 18 18 18 18 18 18 18 18 18 18 18 18 18 18 18 18 18 18 18 18 18 18 17 17 17 17 17 17 17
21 22 22 22 20 19 18 17 17 17 17 16 16 16 15 16 16 16 17 17 17 17 17 17 17 17 17 17 17 17 17 18 17 17 17 17 17 17 17 18 18 18 17 17 17 17 17 16 16
22 23 22 21 20 19 17 17 17 16 16 15 15 15 15 15 15 16 16 16 17 17 17 17 17 17 17 17 17 17 17 17 17 17 17 17 17 17 17 17 18 18 17 17 17 17 16 16 16
23 23 22 22 20 18 17 16 16 16 16 15 14 14 15 15 15 15 16 16 16 16 17 17 17 17 17 16 16 16 16 16 16 16 16 17 17 17 17 17 17 18 18 17 17 17 16 16 16
22 23 22 21 20 18 17 16 16 16 15 14 14 14 15 15 15 16 16 16 16 16 17 17 17 17 16 16 16 16 16 16 16 16 16 16 17 17 17 17 18 18 18 18 17 17 17 16 16
24 23 23 21 20 18 17 16 16 16 15 15 15 15 15 15 15 16 16 16 17 17 17 17 17 17 17 16 16 16 16 16 16 16 16 16 16 17 17 17 17 18 18 18 18 17 17 17 16
24 24 24 22 19 18 19 17 16 15 15 15 14 14 15 15 16 16 16 16 17 17 17 17 17 17 17 16 16 16 16 16 16 16 16 16 16 16 17 17 17 17 17 17 17 17 17 17 16
24 22 22 21 19 18 17 17 16 15 15 15 14 14 15 15 16 16 16 16 17 17 17 17 17 17 17 17 16 16 16 15 15 15 15 15 16 16 16 16 16 16 16 17 17 17 17 17 16
23 21 20 17 17 18 18 17 17 15 15 15 15 15 15 16 16 16 16 16 17 17 17 17 16 16 16 16 16 16 15 15 15 15 15 15 15 15 15 15 16 16 16 16 16 16 16 16 16
21 20 19 19 18 18 17 17 17 16 15 15 15 15 15 15 15 16 16 16 16 16 16 16 16 16 16 16 15 15 15 15 14 14 14 14 14 14 14 14 14 14 15 15 15 15 15 16 16
21 20 19 19 18 17 17 17 16 16 16 15 15 15 15 15 15 15 15 15 15 15 15 15 15 15 15 15 15 14 14 14 14 13 13 13 13 13 13 13 13 13 14 14 14 14 15 15 15
21 18 18 17 17 17 17 17 16 15 15 15 15 15 15 15 15 15 15 15 15 15 14 14 14 14 14 14 14 14 13 13 13 13 13 12 12 12 12 12 12 12 13 13 13 13 14 14 14
20 18 16 16 17 18 18 17 15 14 14 14 14 14 15 15 15 15 15 15 14 14 14 14 13 13 13 13 13 13 13 13 13 12 12 12 12 11 11 11 11 11 11 12 12 12 13 13 13
19 18 15 14 15 16 17 16 14 13 13 13 14 15 15 15 15 15 14 14 13 13 13 13 13 13 13 13 13 13 12 12 12 12 12 12 11 11 11 11 11 11 11 11 11 12 12 12 13
19 17 16 17 16 14 15 14 13 13 13 14 14 14 14 14 14 14 13 13 13 13 12 12 12 12 12 12 12 12 12 12 12 12 12 11 11 11 11 10 10 10 10 10 10 11 11 11 12

GEFSSGP_850_meantemp_048.txt.gz
Temperature
21 19 19 20 24 28 31 32 32 32 32 31 30 31 31 31 30 29 23 23 22 21 21 22 21 21 21 20 20 20 20 20 20 20 20 20 20 20 20 19 19 19 19 19 19 19 19 19 19
20 19 19 23 28 31 31 32 31 31 31 30 30 30 30 30 27 24 22 22 21 21 21 21 21 21 21 20 20 20 20 20 20 20 20 20 20 20 20 20 19 19 19 19 19 19 19 19 19
19 19 23 28 31 31 31 32 31 31 30 30 30 30 30 28 25 23 22 22 21 21 20 21 21 21 21 21 20 20 20 20 20 20 20 20 20 20 20 20 19 19 19 19 19 19 19 20 19
20 22 25 29 31 32 32 32 32 32 31 30 30 30 28 24 24 23 22 22 21 20 20 21 21 21 20 20 20 20 20 20 20 20 20 20 20 20 20 20 19 19 19 19 20 20 20 20 19
21 26 30 32 32 32 33 32 31 32 32 31 30 31 28 23 23 23 23 22 21 21 20 20 21 20 20 20 20 20 20 20 20 20 20 20 20 20 20 20 19 19 19 19 19 19 19 19 19
25 29 31 32 32 32 33 31 32 32 31 31 30 31 27 23 23 23 22 22 21 21 20 19 20 20 20 20 20 20 20 20 20 20 20 20 20 20 20 19 19 19 19 19 19 19 19 19 19
28 30 31 32 32 32 32 32 32 32 32 31 30 31 28 24 23 23 22 22 21 21 20 19 19 19 20 20 20 20 20 20 20 20 20 20 20 19 19 19 19 19 19 19 19 19 19 19 19
27 31 31 32 31 32 32 32 32 31 31 29 30 31 29 24 23 22 21 21 21 20 20 19 18 18 18 19 19 20 20 20 20 20 20 20 20 20 19 19 19 19 19 19 19 19 19 19 19
26 30 31 32 32 32 32 32 32 30 30 29 28 28 27 24 23 22 21 21 20 20 19 19 19 18 18 18 19 19 20 20 20 20 20 20 19 19 19 19 19 19 19 19 19 19 19 18 18
28 30 31 32 32 32 31 31 31 31 31 29 27 25 23 23 23 22 21 21 20 19 19 19 19 18 18 18 18 18 18 19 19 19 19 19 18 18 18 18 19 19 19 19 19 18 18 18 17
29 30 31 31 30 30 31 31 29 31 30 27 26 25 23 22 22 22 22 21 20 20 19 19 19 19 18 18 18 19 18 18 18 18 18 18 18 18 18 18 18 19 19 18 18 18 18 17 18
29 30 30 30 30 30 30 30 28 27 25 24 24 24 23 22 22 22 21 21 20 20 19 19 19 18 19 19 19 18 18 18 18 18 18 18 18 18 18 18 18 18 18 17 18 18 18 18 18
29 30 29 29 29 28 28 28 26 24 22 22 22 22 22 22 22 21 21 20 19 19 19 19 19 18 19 19 19 19 18 18 18 18 18 17 17 18 18 18 18 18 18 18 17 17 17 17 17
29 29 29 29 28 27 28 26 25 22 21 20 20 20 20 20 20 20 19 19 19 18 18 18 18 18 19 19 19 19 18 18 18 17 17 17 17 17 17 17 17 18 18 18 17 17 17 17 17
28 29 29 29 28 28 28 26 23 21 20 20 19 18 17 18 18 18 18 18 18 18 18 17 18 18 18 18 17 17 17 17 17 17 17 17 17 17 17 17 17 17 17 17 17 17 17 17 17
29 29 29 28 28 27 28 26 22 20 20 19 18 17 17 16 17 17 17 17 17 17 17 17 17 17 17 17 17 17 17 17 17 17 17 17 17 17 17 17 17 17 17 17 17 17 17 17 17
30 30 29 28 27 28 28 25 21 20 20 19 18 17 16 16 16 16 16 16 16 17 17 17 17 17 17 17 17 17 17 17 16 16 16 16 16 16 16 16 17 17 17 17 17 17 17 17 17
29 30 29 28 27 27 26 23 22 20 20 19 18 17 17 16 16 16 16 16 16 16 16 17 17 17 17 16 16 16 16 16 16 16 16 16 16 16 16 16 16 16 16 16 17 17 16 17 17
29 29 28 27 26 26 24 23 22 21 20 19 19 18 17 16 16 15 15 16 16 16 16 16 17 16 16 16 16 16 16 16 16 16 16 16 16 16 16 16 16 16 16 16 16 16 16 16 16
29 28 28 26 25 25 24 23 22 22 20 19 19 18 17 17 16 16 16 16 16 16 16 16 16 16 16 16 16 16 16 15 15 15 15 15 15 15 15 15 15 15 16 16 16 16 16 16 16
29 29 28 27 25 25 25 24 23 22 21 20 19 18 18 17 17 17 16 16 16 16 16 16 16 16 16 16 16 15 15 15 15 15 15 15 15 15 15 15 15 15 15 15 16 16 16 16 16
28 29 28 27 26 27 26 25 24 23 23 22 20 20 19 18 18 17 17 16 16 16 16 16 16 16 16 15 15 15 15 15 15 14 14 14 15 15 15 15 15 15 15 15 15 15 15 15 16
28 28 28 27 27 27 26 26 24 24 23 22 21 20 19 19 18 17 17 17 16 16 16 15 15 15 15 15 15 15 15 15 15 14 14 14 14 14 14 14 14 14 14 15 15 15 15 15 16
27 27 27 27 28 26 26 26 24 24 23 23 22 20 19 19 18 18 17 17 16 16 15 15 15 14 15 14 14 14 14 14 14 13 14 14 14 13 13 13 14 14 14 14 15 15 15 15 15
28 27 26 26 26 26 25 25 23 22 22 22 21 20 19 19 18 18 17 17 16 16 15 15 14 14 14 13 13 13 13 13 13 13 13 13 13 13 13 13 13 13 13 13 13 14 14 14 14
27 27 26 25 26 26 25 24 22 21 21 20 20 20 19 19 18 18 17 17 16 15 15 14 14 13 13 13 12 12 12 12 13 13 13 13 13 13 13 12 12 12 12 12 12 13 13 13 14
27 27 27 27 26 25 25 23 21 21 21 21 20 20 19 19 18 18 17 16 16 15 14 13 13 12 12 12 12 12 11 11 12 11 11 12 12 12 12 12 12 11 12 12 12 12 12 12 13
27 27 27 26 24 24 25 24 23 22 22 21 21 20 19 18 18 17 16 16 15 14 13 13 12 12 11 11 11 11 11 11 10 11 11 11 11 11 11 11 11 11 11 11 11 11 11 12 12
26 26 26 26 25 24 24 24 23 22 21 21 21 19 18 18 17 16 15 15 14 13 13 12 12 11 11 10 10 10 10 10 10 10 10 10 10 10 10 10 11 11 11 11 11 11 11 11 11
26 25 25 25 24 24 24 24 22 22 21 20 19 19 18 17 16 15 15 14 13 13 12 12 11 11 10 10 9 9 9 9 9 9 9 9 9 9 9 10 10 10 10 10 10 10 10 10 10

GEFSSGP_850_meantemp_054.txt.gz
Temperature
23 22 21 22 24 25 26 30 33 34 34 34 34 34 33 31 30 28 27 26 25 24 24 23 23 23 22 21 21 20 20 20 19 19 19 19 19 19 19 19 19 19 19 19 19 19 19 19 19
22 21 22 25 26 25 27 31 33 34 34 34 34 34 33 30 29 28 27 25 24 24 24 23 23 23 22 22 21 20 20 20 20 19 19 19 19 19 19 19 19 19 19 19 19 19 19 20 20
22 23 25 29 29 29 31 33 34 35 34 34 34 33 31 30 28 27 26 25 23 23 23 23 23 23 22 22 21 20 20 20 20 19 19 19 19 19 19 19 19 19 19 19 19 19 20 20 20
23 25 27 30 32 34 34 35 35 35 34 34 34 32 29 28 28 26 25 24 22 22 23 23 23 23 22 22 21 21 20 20 20 19 19 19 19 19 19 19 19 19 19 19 19 20 20 20 20
24 28 30 32 34 35 36 35 35 35 34 34 33 30 28 27 27 26 25 24 22 21 23 23 23 22 22 22 21 21 21 20 20 20 19 19 19 19 19 19 19 19 19 19 19 20 20 20 20
27 31 31 33 34 35 36 35 35 35 34 34 32 30 28 27 26 26 25 25 23 22 22 23 22 22 22 22 21 21 21 21 20 20 20 20 20 20 20 20 19 19 19 19 20 20 20 20 20
28 31 31 33 34 35 36 35 35 34 34 33 32 30 27 27 27 26 26 25 24 22 22 23 22 22 22 22 21 21 21 21 21 20 20 20 20 20 20 19 19 20 19 19 19 20 20 20 20
29 31 31 33 34 35 36 35 35 34 33 33 32 30 28 27 27 26 26 26 25 23 22 22 22 22 22 22 21 21 21 21 21 20 20 20 20 20 20 20 20 19 19 19 19 20 20 20 20
29 30 30 33 34 35 35 35 34 34 32 31 30 30 28 27 27 26 26 26 25 24 22 21 20 21 21 21 21 21 21 21 21 20 20 20 20 20 19 20 20 19 19 19 19 19 19 19 19
30 30 31 34 35 35 35 34 34 33 31 29 28 28 27 27 27 26 26 26 25 24 23 22 21 20 20 20 20 20 20 20 20 20 20 20 20 19 19 19 19 19 19 19 19 19 19 19 19
31 31 32 34 34 34 34 33 32 32 29 27 27 28 27 27 26 26 26 26 24 24 23 23 21 20 20 20 20 20 19 19 20 19 19 19 19 19 19 19 19 19 19 19 19 19 19 19 19
32 32 33 33 33 33 33 33 31 29 28 27 26 26 27 27 26 26 25 25 24 23 23 22 21 20 20 20 20 20 20 20 19 19 19 19 19 19 19 19 19 18 18 18 18 18 19 19 18
32 33 33 33 33 33 32 31 30 28 26 25 25 25 25 25 25 24 24 23 23 22 22 22 21 20 20 20 20 19 19 19 19 19 19 19 19 19 19 19 19 19 18 18 18 18 18 18 18
33 33 33 33 33 33 32 31 30 27 25 24 23 22 22 22 22 22 22 21 21 21 21 21 20 20 19 19 19 19 19 19 19 19 19 18 18 18 18 18 18 18 18 18 18 18 18 18 18
32 32 32 32 32 32 31 30 28 25 24 23 22 21 20 20 20 20 20 20 20 20 20 20 19 19 19 18 18 18 18 18 18 18 18 18 18 17 17 17 17 17 17 17 18 18 17 17 17
32 31 30 31 32 31 31 28 26 25 24 22 21 20 19 19 19 19 19 19 19 19 19 19 19 18 18 18 18 18 18 18 18 18 18 17 17 17 17 17 17 17 17 17 17 17 17 17 17
30 29 29 29 29 30 30 26 25 24 24 22 21 20 19 19 18 18 18 18 18 18 18 18 18 18 18 18 18 17 17 17 17 17 17 17 17 17 17 16 16 16 16 16 16 16 16 16 17
27 27 26 26 28 29 28 26 27 25 24 23 22 21 20 19 18 18 18 18 18 18 18 18 18 18 18 17 17 17 17 17 17 17 17 17 17 16 16 16 16 16 16 16 16 16 16 16 16
29 27 26 26 28 29 28 27 27 26 25 24 22 21 20 19 19 18 18 18 18 17 17 17 17 17 17 17 17 17 17 17 17 17 16 16 16 16 16 16 16 15 15 15 15 15 15 16 16
30 28 27 27 28 28 28 27 27 26 25 24 22 21 21 20 19 18 18 18 18 17 17 17 17 17 17 17 17 17 17 17 17 17 16 16 16 16 15 15 15 15 15 15 15 15 15 15 15
28 27 27 27 28 28 27 25 24 25 24 24 23 22 22 21 20 20 19 19 18 18 17 17 17 16 16 16 16 16 16 16 16 16 16 16 15 15 15 15 15 15 15 15 15 15 15 15 15
27 28 28 28 27 25 24 21 20 21 23 24 24 23 23 22 21 21 20 19 19 18 18 17 17 16 15 15 15 15 15 15 15 15 15 15 15 15 15 15 14 14 14 14 14 14 14 15 15
28 29 28 26 24 24 22 20 19 19 20 23 24 24 23 22 22 21 20 20 19 19 18 18 17 16 15 15 14 14 14 14 14 14 14 14 14 14 15 14 14 14 14 14 14 14 14 14 15
31 29 25 22 21 20 20 20 19 19 21 23 24 24 23 22 22 21 20 20 19 19 18 18 17 16 15 14 14 13 13 13 13 13 13 13 14 14 14 14 14 14 14 14 14 14 14 14 14
30 28 24 21 19 19 20 20 21 23 24 24 24 24 23 23 22 21 21 20 19 19 18 17 16 15 15 14 13 13 13 12 12 12 13 13 13 14 14 14 14 13 13 13 13 13 14 14 14
29 29 26 25 24 22 22 21 23 25 24 25 25 24 24 23 22 22 21 20 19 18 18 17 16 15 14 14 13 12 12 12 12 12 12 12 12 12 13 13 13 13 13 13 13 13 13 13 13
29 29 30 29 28 26 24 23 23 25 25 25 25 25 24 23 22 21 20 19 19 18 17 16 15 14 14 13 13 12 12 12 11 11 11 11 11 12 12 12 12 12 12 12 12 12 12 13 13
30 30 29 28 26 26 26 24 23 24 25 25 25 24 24 23 22 21 20 19 18 17 16 15 15 14 13 13 12 12 12 11 11 10 10 10 10 10 11 11 11 11 11 11 12 12 12 12 12
29 29 28 28 27 26 26 24 25 25 25 25 25 24 23 22 21 20 19 18 17 16 15 15 14 13 13 12 12 11 11 10 10 10 10 10 10 10 10 10 10 10 11 11 11 11 11 11 12
30 29 28 26 26 27 26 24 27 26 26 25 24 23 22 21 20 19 18 17 16 15 15 14 13 12 12 12 11 11 10 10 10 9 9 9 9 9 9 9 10 10 10 10 11 11 11 11 11

GEFSSGP_850_meantemp_060.txt.gz
Temperature
22 21 20 20 19 19 21 24 27 28 29 29 29 28 27 26 25 23 22 23 24 23 22 22 22 22 22 21 21 20 20 20 20 20 20 20 20 20 20 20 19 19 19 19 19 19 19 19 19
22 21 20 20 19 21 23 26 27 29 29 29 28 28 27 25 23 22 22 23 24 23 22 22 22 22 21 21 21 20 20 20 20 20 20 20 20 20 20 20 20 20 20 20 20 20 20 20 19
22 21 20 19 20 22 25 27 28 29 30 30 28 28 27 26 23 23 23 23 23 23 23 22 22 22 21 21 21 20 20 20 20 20 20 20 20 20 20 20 20 20 20 20 20 20 20 20 20
22 20 20 19 21 24 26 28 29 30 30 29 28 26 26 26 25 24 23 23 23 23 22 22 22 22 22 21 21 21 20 20 20 20 20 20 20 20 20 20 20 20 20 20 20 20 20 20 20
21 21 20 20 22 26 28 30 30 30 29 28 27 25 24 25 25 24 23 23 23 23 22 22 22 22 22 21 21 21 21 20 20 20 20 20 20 20 20 20 20 20 20 20 20 20 20 20 20
21 21 20 21 24 28 30 31 30 29 28 27 26 25 24 23 24 23 23 23 23 23 22 22 22 22 22 21 21 21 21 20 20 20 20 20 20 20 20 20 20 20 20 20 20 20 20 20 20
22 20 21 23 25 27 30 30 29 28 27 27 26 24 24 23 24 23 23 23 23 23 23 22 22 22 22 21 21 21 21 21 20 20 20 20 20 20 20 20 20 20 20 20 20 20 20 20 20
24 20 22 23 25 27 29 29 28 27 27 27 26 24 24 23 23 23 23 23 23 23 23 22 22 22 22 21 21 21 21 21 20 20 20 20 20 20 20 19 19 19 19 19 20 20 20 20 20
25 21 20 23 25 26 28 27 27 26 26 26 26 26 25 24 23 23 22 22 22 22 22 22 22 22 21 21 21 20 20 20 20 20 20 20 20 20 19 19 19 19 19 19 19 19 19 19 19
24 20 22 25 26 26 27 27 26 25 24 24 25 25 25 24 24 23 22 21 21 21 21 21 21 21 21 20 20 20 20 20 20 20 20 19 19 19 19 19 18 18 18 18 18 18 18 19 19
24 23 24 26 27 27 26 25 25 24 23 23 23 24 24 24 23 23 22 21 21 21 21 21 21 20 20 20 19 19 19 19 19 19 19 19 19 19 18 18 18 18 18 18 18 18 18 18 18
25 25 26 27 28 27 26 25 24 23 22 22 23 23 23 23 23 22 22 21 21 21 20 20 20 20 19 19 19 19 19 19 19 19 19 19 18 18 18 18 18 18 18 18 17 17 17 17 17
25 25 27 27 27 26 25 24 22 22 21 22 22 22 22 22 21 21 21 21 21 21 20 20 20 19 19 19 19 19 19 19 19 18 18 18 18 18 18 18 18 18 18 17 17 17 17 17 17
26 26 26 26 26 25 24 23 22 21 21 20 20 20 20 20 20 21 21 21 21 21 20 20 19 19 19 19 19 19 19 19 18 18 18 18 18 18 18 18 18 17 17 17 17 17 17 17 17
27 25 24 25 25 25 24 21 21 20 20 19 19 19 19 19 20 20 20 20 20 20 20 19 19 19 19 19 18 18 18 18 18 18 18 18 18 18 18 17 17 17 17 17 17 17 16 16 16
24 23 23 23 24 24 22 20 20 20 19 18 18 18 18 18 18 19 19 19 19 19 19 19 18 18 18 18 18 18 18 18 18 17 17 17 17 17 17 17 17 17 17 17 17 16 16 16 16
22 22 22 23 23 24 21 19 20 19 19 18 18 18 18 18 18 18 18 18 19 18 18 18 18 18 18 18 18 18 17 17 17 17 17 17 17 17 17 17 17 17 17 16 16 16 16 16 16
21 22 22 22 23 22 20 19 19 18 18 18 18 18 18 18 18 18 18 18 18 18 18 18 18 18 18 18 17 17 17 17 17 17 17 16 16 16 16 16 16 16 16 16 16 16 16 15 15
23 22 22 22 22 20 19 18 18 18 18 18 18 18 18 18 18 18 18 18 18 18 18 18 18 18 18 18 17 17 17 17 16 16 16 16 16 15 15 15 15 15 15 15 15 15 15 15 15
23 22 21 21 21 20 18 18 18 18 18 18 18 18 19 18 18 19 19 19 19 18 18 18 18 18 18 17 17 17 16 16 16 16 15 15 15 14 14 14 14 15 15 15 15 14 14 14 14
22 21 21 20 20 20 19 17 17 17 17 18 19 19 19 19 19 19 19 19 19 19 18 18 18 18 17 17 17 16 16 16 15 15 15 15 14 14 14 14 14 14 14 14 14 14 14 14 14
22 23 23 21 19 17 18 17 17 17 17 18 19 19 19 19 19 19 19 19 19 19 18 18 17 17 17 16 16 16 15 15 14 14 14 14 14 14 14 13 13 14 14 14 14 14 14 14 14
23 23 22 21 18 17 17 17 16 16 16 17 18 19 20 20 20 20 20 20 19 19 18 17 17 16 16 15 15 15 14 14 13 13 13 13 13 13 13 13 13 13 13 13 13 13 13 13 13
23 21 19 17 17 17 17 17 17 16 16 17 18 20 20 20 20 20 20 19 19 18 18 17 16 16 15 15 14 14 14 13 13 12 12 12 12 12 12 12 12 12 12 12 13 13 13 13 13
22 20 19 19 17 17 17 17 17 17 18 18 19 20 21 20 20 20 20 19 19 18 17 17 16 16 15 15 14 14 13 13 12 12 12 11 11 11 12 12 12 12 12 12 12 12 12 12 13
24 21 20 20 18 17 17 17 17 18 19 19 20 20 20 20 20 20 19 19 18 18 17 16 16 15 14 14 13 13 12 12 12 11 11 11 11 11 11 11 11 11 11 11 11 11 12 12 12
24 22 21 18 17 16 17 17 18 19 19 19 20 20 20 20 20 19 19 18 18 17 16 16 15 14 14 13 13 12 12 11 11 11 11 11 10 10 10 10 10 10 10 11 11 11 11 11 11
24 23 19 19 18 18 18 18 17 19 19 19 19 20 20 20 19 19 18 18 17 16 16 15 14 14 13 12 12 12 11 11 11 10 10 10 10 10 10 10 10 10 10 10 10 10 10 11 11
24 23 20 18 18 18 18 18 19 19 18 18 19 20 20 20 19 19 18 17 17 16 15 14 14 13 12 12 12 11 11 10 10 10 10 9 9 9 9 9 9 9 10 10 10 10 10 10 10
24 23 20 20 19 17 17 18 20 19 19 19 20 20 20 19 19 18 17 17 16 15 14 14 13 12 12 11 11 11 10 10 10 10 9 9 9 9 9 9 9 9 9 9 9 9 9 10 10

GEFSSGP_850_meantemp_066.txt.gz
Temperature
20 20 19 19 18 18 19 21 23 25 25 26 26 25 23 22 23 22 21 22 21 21 20 20 20 20 20 20 21 21 21 20 20 20 20 20 20 19 19 19 19 19 19 19 19 19 19 19 19
20 19 19 19 18 20 22 23 25 25 26 26 26 25 23 21 21 21 22 21 21 21 21 20 20 20 20 20 20 20 20 20 20 20 20 20 20 19 19 19 19 19 19 19 19 19 19 19 19
20 19 19 17 19 20 22 25 25 26 27 26 25 24 23 21 22 23 23 22 21 21 21 20 20 20 20 20 20 20 20 20 20 20 20 20 20 19 19 19 19 19 19 19 19 19 19 19 19
20 19 19 17 20 21 22 24 25 26 27 26 25 23 22 21 22 23 23 22 21 21 21 20 20 20 20 20 20 20 20 20 20 20 20 20 19 19 19 19 19 19 19 19 19 19 19 19 19
20 19 18 18 19 21 23 25 26 26 25 25 24 21 20 21 23 23 23 22 22 21 21 20 20 20 20 20 20 20 20 20 20 19 19 19 19 19 19 19 19 19 19 19 19 19 19 19 18
20 18 18 19 21 23 24 26 25 25 25 24 23 21 20 21 22 22 22 22 21 21 21 20 20 20 20 20 20 20 20 19 19 19 19 19 19 19 19 19 19 19 19 19 19 19 19 19 18
20 17 19 20 21 23 25 26 25 24 24 24 23 20 19 20 21 22 22 21 21 21 21 20 20 20 20 20 20 20 20 19 19 19 19 19 19 19 19 19 19 19 19 19 19 19 19 19 19
21 17 20 20 21 23 24 25 24 24 24 24 23 20 20 20 21 21 21 21 20 20 20 20 20 20 20 20 20 20 19 19 19 19 19 19 18 18 18 18 18 18 18 18 19 19 19 19 19
21 18 18 20 22 23 24 24 24 24 23 23 22 22 22 21 21 21 21 20 20 20 20 20 20 20 20 20 19 19 19 19 19 19 18 18 18 18 18 18 18 18 18 18 18 18 18 19 18
21 18 20 21 22 23 24 23 23 23 22 21 20 21 21 21 20 21 21 21 21 20 20 20 20 20 20 19 19 19 19 19 19 19 18 18 18 18 18 18 18 18 18 18 18 18 18 18 18
20 19 21 22 24 24 23 22 22 21 20 20 19 19 20 20 20 20 21 21 21 21 20 20 20 20 19 19 19 19 19 19 19 19 18 18 18 18 18 18 18 18 18 18 18 18 18 18 18
20 21 22 23 24 23 22 21 20 19 19 19 19 20 19 19 19 20 20 20 20 20 20 20 20 19 19 19 19 18 18 18 18 18 18 18 18 18 18 18 18 17 17 17 17 17 17 17 17
21 21 23 22 22 21 21 20 19 18 18 19 19 19 19 19 19 19 20 20 20 20 20 19 19 19 19 18 18 18 18 18 18 18 18 18 18 17 18 17 17 17 17 17 17 17 17 17 17
22 22 22 22 21 21 19 18 18 17 18 19 19 18 18 18 18 19 19 19 19 19 19 19 19 19 18 18 18 18 18 18 18 17 17 17 17 17 17 17 17 17 17 17 17 17 17 17 17
23 22 21 20 20 20 20 18 18 17 18 18 18 18 18 18 18 18 19 19 19 19 19 19 19 18 18 18 18 17 17 17 17 17 17 17 17 17 17 16 16 17 17 17 17 16 16 16 16
22 20 20 20 20 20 19 18 18 17 18 17 17 17 18 18 18 18 18 19 19 19 19 18 18 18 18 18 17 17 17 17 17 17 16 16 16 16 16 16 16 16 16 16 16 16 16 16 16
20 20 20 20 20 19 18 17 17 17 17 17 17 17 18 18 18 18 18 18 19 19 19 18 18 18 18 17 17 17 17 17 16 16 16 16 16 16 16 16 16 16 16 16 16 16 15 15 15
21 20 20 19 19 19 17 17 17 17 17 17 17 17 18 18 18 18 18 19 19 19 18 18 18 18 18 17 17 17 17 17 16 16 16 16 16 16 15 15 15 15 15 15 15 15 15 15 15
21 20 20 19 19 18 17 17 17 17 17 17 17 17 18 18 18 18 18 18 19 19 19 18 18 18 18 17 17 17 17 16 16 16 16 15 15 15 15 15 15 14 14 14 14 14 14 14 14
21 20 19 19 19 18 17 17 17 17 17 17 17 17 18 18 18 18 18 18 19 19 19 18 18 18 18 17 17 17 16 16 16 15 15 15 14 14 14 14 14 14 14 14 14 14 14 14 13
21 20 19 19 19 18 18 18 17 17 17 17 17 18 18 18 19 19 19 19 19 19 18 18 18 18 17 17 16 16 16 15 15 15 14 14 14 13 13 13 13 13 13 13 13 13 13 13 13
21 21 20 19 18 16 17 17 17 16 16 17 17 18 18 19 19 19 19 19 19 19 18 18 17 17 17 16 16 15 15 15 14 14 14 13 13 13 12 12 12 12 12 13 13 13 13 13 13
20 20 19 18 17 16 16 16 16 16 17 17 17 18 19 19 19 19 19 19 19 18 18 17 17 17 16 16 15 15 14 14 13 13 13 12 12 12 12 12 12 12 12 12 12 12 12 12 12
20 18 17 15 15 17 16 16 16 16 17 17 18 19 19 20 20 19 19 19 19 18 18 17 17 16 16 15 15 14 14 13 13 12 12 12 12 11 11 11 11 11 11 11 11 12 12 12 12
19 17 17 17 16 16 16 16 16 17 17 17 18 19 20 20 20 20 19 19 19 18 18 17 17 16 15 15 14 14 13 13 12 12 11 11 11 11 11 10 10 10 10 10 11 11 11 11 11
19 18 18 19 18 16 16 16 16 18 18 19 19 19 20 20 20 20 19 19 19 18 17 17 16 15 15 14 13 13 12 12 12 11 11 11 10 10 10 10 10 10 10 10 10 10 10 11 11
19 18 17 16 16 17 16 16 17 18 18 18 18 19 20 20 20 20 19 19 18 18 17 16 15 15 14 13 13 12 12 11 11 11 11 10 10 10 10 10 9 9 9 9 9 10 10 10 10
20 17 15 16 17 18 18 17 17 19 19 18 18 19 20 20 20 19 19 19 18 17 16 15 15 14 13 13 12 12 11 11 11 10 10 10 10 10 9 9 9 9 9 9 9 9 9 9 10
21 19 15 14 16 16 17 17 17 18 18 17 18 20 20 20 20 19 19 18 17 16 16 15 14 13 13 12 12 11 11 11 10 10 10 10 10 9 9 9 9 9 9 9 9 9 9 9 9
22 20 17 18 17 15 16 17 18 17 17 18 19 20 20 20 19 19 18 17 17 16 15 14 13 13 12 12 11 11 11 10 10 10 10 9 9 9 9 9 9 9 9 9 8 9 9 9 9

GEFSSGP_850_meantemp_072.txt.gz
Temperature
21 20 20 21 25 29 30 31 31 31 31 30 29 30 30 29 28 26 21 21 21 20 20 20 20 20 20 20 20 20 20 20 20 20 20 20 20 19 19 19 19 19 19 19 19 19 19 19 18
20 20 21 24 28 31 30 31 30 30 30 29 29 29 29 26 23 22 21 20 20 20 20 20 20 20 20 20 20 20 20 20 20 20 20 20 19 19 19 19 19 19 19 19 19 19 19 19 19
20 20 24 28 30 30 30 31 30 30 30 29 29 28 27 25 22 21 21 20 20 20 19 20 20 20 20 20 20 20 20 20 20 20 20 20 19 19 19 19 19 19 19 19 19 19 19 19 19
21 23 25 29 30 30 30 30 30 31 30 29 29 28 24 21 22 21 20 20 20 19 19 20 20 20 20 20 20 20 20 20 20 20 20 19 19 19 19 19 19 19 18 19 19 19 19 19 19
22 26 29 30 30 30 30 30 30 31 30 29 29 28 24 20 21 21 20 20 20 20 19 19 20 20 20 20 20 20 20 20 20 19 19 19 19 19 19 19 18 18 18 18 19 19 19 19 19
25 28 30 30 30 30 30 30 30 30 29 28 28 27 23 20 20 20 20 20 20 20 19 19 20 19 19 19 19 19 19 19 19 19 19 19 19 19 19 19 18 18 18 18 18 19 19 19 19
27 29 30 30 30 30 30 29 30 29 29 28 28 27 23 20 20 20 19 20 20 20 19 18 19 19 19 19 19 19 19 19 19 19 19 19 19 19 18 18 18 18 18 18 18 18 18 18 19
26 29 29 30 29 30 29 29 28 28 27 26 27 27 24 20 19 19 19 19 19 19 19 18 18 18 19 19 19 19 19 19 19 19 19 18 18 18 18 18 18 18 18 18 18 18 18 18 18
24 28 29 30 30 30 29 29 28 27 26 25 25 25 23 20 19 19 19 19 19 19 19 19 19 18 18 18 18 18 19 19 18 18 18 18 18 18 18 18 18 18 18 18 18 18 18 18 18
26 28 29 29 29 30 29 28 28 28 27 25 23 22 21 20 19 19 19 19 19 19 19 19 18 18 18 18 18 18 18 18 18 18 18 18 18 18 17 17 18 18 18 18 18 18 18 18 17
27 28 29 29 28 28 28 28 27 28 28 26 24 22 21 20 20 20 20 19 19 19 19 19 18 18 18 18 18 18 18 18 18 18 18 18 18 18 17 18 18 18 18 18 17 17 17 17 17
27 28 27 27 27 27 28 27 27 26 25 23 23 22 21 21 21 21 20 19 19 19 19 19 19 18 18 18 18 18 18 18 18 18 18 18 18 18 17 17 17 17 17 17 17 17 17 17 17
27 28 27 27 27 27 27 27 26 24 23 22 21 21 21 21 21 20 20 20 19 19 19 19 19 18 18 19 18 18 18 18 18 18 18 18 17 17 17 17 17 17 17 17 17 17 17 17 17
28 27 27 27 27 26 27 26 25 23 22 21 21 21 21 21 21 20 19 19 19 19 19 19 19 19 19 19 18 18 18 18 18 17 17 17 17 17 17 17 17 17 16 16 17 16 16 17 16
27 28 28 27 27 26 27 26 24 22 21 21 21 20 20 20 19 19 19 19 19 19 19 19 19 19 19 18 18 18 17 17 17 17 17 17 17 17 17 16 16 16 16 16 16 16 16 16 16
28 28 28 28 27 26 27 26 24 21 22 21 20 19 19 19 19 19 18 19 18 18 18 18 18 18 18 18 18 17 17 17 16 16 16 16 16 16 16 16 16 16 16 15 15 15 15 16 16
28 28 28 27 27 27 27 26 23 22 22 21 21 20 19 19 18 18 18 18 18 18 18 18 18 18 17 17 17 17 17 17 16 16 16 16 16 16 15 15 15 15 15 15 15 15 15 15 15
28 28 28 27 26 26 26 25 23 22 22 22 21 20 20 19 18 18 18 18 18 18 18 18 18 18 18 17 17 17 17 16 16 16 16 15 15 15 15 15 14 14 14 14 14 14 14 14 14
28 28 27 26 25 26 25 24 23 22 22 22 22 21 20 20 19 18 18 18 18 18 18 18 18 18 17 17 17 16 16 16 15 15 15 15 15 14 14 14 14 14 14 14 14 14 14 14 14
27 27 27 25 25 25 25 24 23 22 22 21 21 21 20 20 19 18 18 18 18 18 18 18 18 17 17 17 17 16 16 15 15 15 15 14 14 14 14 13 13 13 13 13 13 13 14 14 14
27 27 27 26 25 25 25 24 23 23 22 21 21 21 21 20 20 19 18 18 18 18 18 17 17 17 17 17 16 16 15 15 15 14 14 14 13 13 13 13 13 12 13 13 13 13 13 13 14
27 27 26 25 25 25 25 24 24 23 23 22 22 21 21 21 21 20 19 19 18 18 17 17 17 17 17 16 16 15 15 15 15 14 14 13 13 12 12 12 12 12 12 12 12 13 12 12 13
26 26 26 26 26 26 25 25 25 24 23 23 23 22 22 22 21 21 20 19 19 18 18 17 17 17 16 16 15 15 15 14 14 14 13 13 13 12 12 11 11 11 11 11 11 11 11 12 12
26 26 25 26 27 26 25 25 25 25 24 25 24 23 23 22 22 21 20 19 19 18 18 17 17 16 16 16 15 15 14 14 13 13 13 13 13 12 12 11 11 11 11 11 10 11 11 11 11
26 27 26 26 26 26 25 25 25 25 25 25 25 24 23 23 22 21 20 20 19 18 18 17 17 16 16 15 15 14 13 13 13 12 13 12 12 12 12 11 10 10 10 10 10 10 10 10 11
27 27 26 26 26 26 25 26 26 26 25 24 24 24 24 23 22 21 21 20 19 18 18 17 16 16 15 15 14 14 13 13 13 12 12 12 12 12 11 10 10 10 10 10 10 10 10 10 10
28 28 28 27 27 26 26 26 26 26 25 25 25 24 24 23 22 21 20 20 19 18 17 17 16 15 15 14 13 13 12 12 12 11 11 11 11 11 11 10 10 10 10 10 10 10 10 10 10
28 28 27 27 26 26 26 26 27 26 26 26 26 25 24 23 22 21 20 19 18 18 17 16 16 15 14 13 13 13 12 12 11 11 11 11 10 10 10 10 10 10 9 9 9 9 10 9 10
27 27 27 27 27 26 26 27 28 27 27 27 26 25 25 24 22 21 20 19 18 17 17 16 15 14 14 13 13 12 12 11 11 11 10 10 10 10 10 10 10 9 9 9 9 9 9 9 9
28 28 27 26 26 26 26 27 28 28 28 27 27 25 24 23 22 21 19 18 18 17 16 16 15 14 13 13 12 12 12 11 11 11 10 10 10 10 10 10 9 9 9 9 9 9 9 9 9

GEFSSGP_850_meantemp_078.txt.gz
Temperature
23 22 21 22 26 26 25 28 32 33 33 33 33 31 29 28 27 25 26 24 23 23 23 22 21 21 21 20 20 20 20 20 19 19 19 19 19 19 19 19 19 19 19 19 19 19 19 19 19
22 22 23 26 27 25 24 27 31 33 34 33 32 31 29 27 27 26 25 24 22 22 22 22 21 21 21 20 20 20 20 20 19 19 19 19 19 19 19 19 19 19 19 19 19 19 19 19 19
22 23 26 29 29 26 26 29 32 34 34 33 32 30 28 27 26 25 24 23 22 21 22 22 21 21 20 20 20 20 20 19 19 19 19 19 19 19 19 19 19 19 19 19 19 19 19 19 19
22 25 28 30 30 31 30 32 33 34 33 32 31 28 26 26 26 25 24 23 22 21 22 22 21 21 20 20 20 20 20 19 19 19 19 19 19 19 19 19 19 19 19 19 19 19 19 19 19
24 28 30 30 31 31 31 33 34 33 32 31 29 27 25 26 25 25 24 23 22 21 21 22 21 21 20 20 20 20 20 19 19 19 19 19 19 19 19 19 19 19 19 19 19 19 19 19 19
27 30 30 31 31 31 31 31 32 31 30 30 28 26 24 25 25 25 24 24 23 21 21 22 21 21 20 20 20 20 20 19 19 19 19 19 19 19 19 19 19 19 19 18 18 19 19 19 19
28 30 30 32 32 31 32 32 32 31 29 29 28 26 24 25 25 25 25 24 23 22 21 21 21 20 20 20 20 20 20 19 19 19 19 19 19 19 19 19 19 19 19 19 18 19 19 19 19
29 30 30 32 33 32 33 32 31 30 29 29 29 27 23 24 25 25 24 24 23 22 21 20 20 20 20 20 20 20 20 19 19 19 19 19 19 19 19 19 19 19 19 19 19 18 18 19 19
29 29 30 32 33 32 32 31 31 30 29 28 28 26 24 24 24 24 24 24 23 22 21 21 20 20 19 19 19 19 19 19 19 19 19 19 19 18 18 18 18 18 18 18 18 18 18 19 19
30 29 31 33 33 32 31 30 30 30 28 26 24 24 24 23 24 24 24 24 23 22 22 21 20 20 19 19 19 19 19 19 19 19 18 18 18 18 18 18 18 18 18 18 18 18 18 18 18
31 31 32 33 32 32 31 30 29 29 25 23 22 23 23 24 24 24 24 23 22 22 22 21 20 20 20 19 19 19 19 19 19 18 18 18 18 18 18 18 18 18 18 18 18 18 18 18 18
31 32 32 32 31 31 31 29 28 25 23 22 23 23 24 25 25 24 24 23 22 22 21 21 20 20 20 19 19 19 19 19 19 18 18 18 18 18 18 18 18 18 17 17 18 18 18 18 18
31 31 31 30 30 30 29 28 25 23 23 24 24 24 25 25 24 24 23 22 22 21 21 20 20 19 19 19 19 19 19 19 18 18 18 18 18 18 18 18 18 17 17 17 17 17 17 17 17
31 31 30 29 29 28 28 27 25 22 23 24 24 24 24 24 24 23 22 22 21 21 20 20 19 19 19 19 19 19 18 18 18 18 18 18 17 17 17 17 17 17 17 17 17 17 17 17 17
30 29 28 27 28 27 26 24 23 22 23 24 24 24 24 23 23 22 21 21 21 20 20 20 19 19 19 19 18 18 18 18 17 17 17 17 17 17 17 17 17 17 17 16 16 16 16 16 17
29 28 26 26 26 27 26 21 20 21 23 24 24 23 23 22 22 21 21 20 20 20 19 19 19 19 19 18 18 18 18 18 17 17 17 17 17 17 17 16 16 16 16 16 16 16 16 16 16
28 26 25 25 26 27 25 20 20 21 22 23 24 23 22 22 21 21 20 20 20 19 19 19 19 18 18 18 18 18 18 18 17 17 17 17 16 16 16 16 16 16 16 16 16 16 16 16 16
28 27 26 26 27 27 25 21 20 21 22 23 23 23 22 22 21 21 20 20 19 19 19 19 19 18 18 18 18 18 18 17 17 17 17 16 16 16 16 15 15 15 15 15 15 15 15 15 15
30 28 27 26 27 27 26 23 22 22 22 23 22 22 22 21 21 20 20 19 19 19 19 19 18 18 18 18 18 17 17 17 17 17 16 16 16 15 15 15 15 15 15 15 15 15 14 15 15
30 28 27 27 28 28 26 23 23 23 23 22 22 22 22 21 21 20 20 20 19 19 19 19 18 18 18 18 18 18 17 17 17 16 16 15 15 15 15 14 14 14 14 14 14 14 14 14 14
29 28 28 28 28 27 26 24 22 23 23 23 22 22 22 22 21 20 20 20 19 19 19 19 18 18 18 18 17 17 17 17 17 16 16 15 15 14 14 14 14 13 13 13 14 14 14 13 14
29 29 29 28 26 25 25 23 22 23 24 24 23 23 23 22 22 21 21 20 20 19 19 19 18 18 18 17 17 17 16 16 16 16 16 15 15 14 14 13 13 13 13 13 13 13 13 13 13
30 30 28 27 25 24 25 24 23 22 23 24 24 24 24 23 22 22 21 21 20 20 20 19 18 18 18 17 17 16 16 16 16 15 15 15 14 14 14 13 13 13 13 12 13 13 13 13 13
31 29 26 23 22 22 24 25 23 24 24 25 25 25 24 24 23 23 22 21 21 20 20 19 19 18 18 17 16 16 16 15 15 15 15 14 14 14 14 14 13 13 12 12 12 12 12 12 12
30 27 24 21 20 22 25 26 25 26 26 26 26 25 25 24 24 23 23 22 21 21 20 20 19 18 17 17 16 16 15 15 15 14 14 14 14 14 14 13 13 13 12 12 12 12 12 12 12
30 29 26 25 24 25 26 26 27 28 28 27 27 26 25 25 24 24 23 22 22 21 21 20 19 18 17 16 16 15 15 14 14 14 14 14 13 13 13 13 12 12 12 11 11 11 11 11 12
30 29 30 28 27 25 26 27 27 28 28 28 27 26 26 25 25 24 23 23 22 21 21 20 19 18 17 16 16 15 15 14 14 14 13 13 13 13 13 12 12 12 12 11 11 11 11 11 11
31 31 30 28 27 26 25 25 25 27 27 28 28 27 27 26 25 25 24 23 22 21 20 19 18 17 17 16 15 15 15 14 13 13 13 12 12 12 12 12 12 12 11 11 11 11 11 11 11
30 30 29 29 28 26 23 24 27 27 28 28 28 27 27 27 26 25 24 23 22 21 20 19 18 17 16 16 15 15 14 13 13 13 13 12 12 12 12 12 12 11 11 11 11 11 11 11 11
30 30 29 28 27 28 27 26 29 29 30 29 29 28 27 27 26 25 24 22 21 21 20 19 18 17 16 16 15 14 14 13 13 13 13 12 12 12 12 12 11 11 11 11 11 11 11 11 11

GEFSSGP_850_meantemp_084.txt.gz
Temperature
21 21 21 20 19 19 20 21 22 22 23 23 24 24 24 23 23 21 20 21 22 21 21 21 21 21 20 20 20 20 20 20 19 19 19 19 19 19 19 19 19 19 19 19 19 19 19 19 19
22 21 20 20 19 20 21 22 23 23 23 22 23 24 24 22 20 19 20 21 22 22 21 21 21 21 20 20 20 20 20 19 19 19 19 19 19 19 19 19 19 19 19 19 19 19 19 19 19
22 21 20 19 20 20 22 22 23 23 23 22 22 23 23 21 20 20 21 22 22 21 21 21 21 21 20 20 20 20 20 19 19 19 19 19 19 19 19 19 19 19 19 19 19 19 19 19 19
22 21 20 19 21 22 23 23 24 24 22 22 22 22 22 22 21 21 21 22 21 21 21 21 21 20 20 20 20 20 20 19 19 19 19 19 19 19 19 19 19 19 19 19 19 19 19 19 19
21 21 19 20 22 24 24 25 24 24 22 21 21 21 21 22 22 22 21 21 22 21 21 21 20 20 20 20 20 20 20 20 19 19 19 19 19 19 19 19 19 19 19 19 19 19 19 19 19
22 20 20 21 23 25 25 25 24 23 21 21 21 21 20 21 22 21 21 22 22 21 21 21 20 20 20 20 20 20 20 20 19 19 19 19 19 19 19 19 19 19 19 19 19 19 19 19 19
22 20 21 23 24 25 25 24 23 22 21 20 21 20 20 20 21 21 21 21 21 21 21 21 20 20 20 20 20 20 20 19 19 19 19 19 19 19 18 18 18 19 19 19 19 19 19 19 19
23 21 22 22 24 24 24 23 22 21 20 20 21 20 20 20 21 20 21 21 21 21 21 21 20 20 20 20 20 20 19 19 19 19 19 18 18 18 18 18 18 18 18 18 18 19 19 19 19
24 21 21 22 24 24 24 23 21 21 20 20 21 21 20 21 20 20 20 21 21 21 21 21 20 20 20 20 20 19 19 19 19 19 19 18 18 18 18 18 18 18 18 18 18 18 18 19 19
25 21 22 24 25 24 23 22 21 21 20 19 21 21 21 21 20 20 20 20 20 20 20 20 20 20 20 19 19 19 19 19 18 18 18 18 18 18 18 18 18 18 18 18 18 18 18 18 18
25 23 25 25 25 24 22 21 21 20 19 19 20 21 20 20 20 20 20 20 20 20 20 20 20 20 19 19 19 19 19 18 18 18 18 18 18 18 17 17 17 17 18 18 18 18 18 18 18
25 25 26 25 25 23 22 21 20 19 19 20 20 21 20 20 20 20 20 20 20 20 20 19 20 19 19 19 19 19 18 18 18 18 18 18 17 17 17 17 17 17 17 17 17 17 17 17 17
26 25 26 25 24 22 21 20 19 19 19 20 20 20 20 20 20 20 20 20 20 20 19 19 19 19 19 19 19 19 18 18 18 18 18 18 17 17 17 17 17 17 17 17 17 17 17 17 17
26 26 25 24 23 22 21 20 19 18 20 20 20 20 20 20 20 20 20 20 20 20 20 19 19 19 19 19 19 18 18 18 18 17 17 17 17 17 17 17 17 17 16 16 16 16 16 16 16
26 24 24 23 23 22 22 20 19 19 19 19 20 20 20 20 20 20 20 20 20 20 20 19 19 19 19 19 19 18 18 18 18 17 17 17 17 17 17 16 16 16 16 16 16 16 16 16 16
24 23 22 22 22 22 21 20 19 19 19 18 19 19 19 19 19 19 20 20 20 20 20 19 19 19 19 19 18 18 18 18 17 17 17 17 17 17 16 16 16 16 16 16 16 15 15 16 16
22 22 22 22 22 22 21 19 19 19 19 18 18 18 18 18 19 19 19 20 20 20 20 19 19 19 19 18 18 18 17 17 17 17 17 17 16 16 16 16 16 15 15 15 15 15 15 15 15
22 22 23 22 22 22 20 19 19 19 19 18 18 18 18 18 18 19 19 20 20 19 19 19 19 19 18 18 18 17 17 17 17 17 16 16 16 16 16 15 15 15 15 15 15 15 15 15 15
25 24 23 23 23 21 20 19 19 18 18 18 18 18 18 18 19 19 19 19 19 19 19 19 19 18 18 18 18 17 17 17 17 16 16 16 16 16 15 15 15 15 14 14 14 14 14 14 14
25 24 23 23 23 21 19 19 19 19 18 18 18 18 19 19 19 19 19 19 19 19 19 19 19 18 18 18 18 17 17 17 16 16 16 16 15 15 15 15 15 14 14 14 14 14 14 14 14
25 24 23 22 22 21 20 19 19 18 18 19 19 19 19 19 19 19 19 19 19 19 19 19 19 18 18 18 17 17 17 16 16 16 16 15 15 15 15 14 14 14 14 13 13 13 13 13 13
24 25 24 23 20 19 20 18 18 18 18 18 18 19 19 19 19 19 19 19 19 19 19 19 19 19 18 18 17 17 17 16 16 16 15 15 15 14 14 14 14 14 13 13 13 13 13 13 13
24 24 23 22 19 18 18 18 18 18 18 18 18 19 19 20 20 20 20 20 20 20 19 19 19 18 18 18 17 17 17 16 16 15 15 15 14 14 14 14 13 13 13 13 13 13 12 12 12
24 22 20 18 17 18 18 18 18 17 18 19 19 19 20 20 20 20 20 20 20 20 19 19 19 18 18 17 17 17 16 16 15 15 15 14 14 14 14 13 13 13 13 13 13 12 12 12 12
24 21 19 19 18 18 19 19 18 19 20 20 20 20 21 20 20 20 20 20 20 20 20 19 19 18 18 17 17 17 16 16 15 15 15 14 14 14 13 13 13 13 13 13 12 12 12 12 12
24 21 20 20 19 18 18 19 19 21 21 22 21 21 21 21 21 21 21 21 20 20 20 19 19 18 18 17 17 16 16 15 15 15 14 14 14 13 13 13 13 13 13 12 12 12 12 12 11
24 22 21 19 18 18 18 19 20 21 21 21 21 21 21 21 21 21 21 21 21 21 20 20 19 19 18 17 17 16 16 15 15 14 14 14 14 13 13 13 13 13 12 12 12 12 12 11 11
24 23 19 19 19 19 19 19 18 21 21 21 21 21 22 22 22 22 22 22 22 21 21 20 19 19 18 18 17 16 16 15 15 14 14 14 13 13 13 13 13 13 12 12 12 12 12 11 11
23 23 20 18 18 18 18 19 20 20 20 20 21 22 23 23 22 22 22 22 22 21 21 20 19 19 18 18 17 16 16 15 15 14 14 14 13 13 13 13 13 12 12 12 12 11 11 11 11
23 23 20 20 20 18 18 19 22 21 21 21 22 23 24 24 23 23 23 22 22 21 21 20 20 19 19 18 17 17 16 15 15 15 14 14 13 13 13 13 13 12 12 12 12 11 11 11 11

GEFSSGP_850_meantemp_090.txt.gz
Temperature
20 20 19 19 18 18 20 21 21 21 21 20 20 20 20 20 20 20 19 20 21 20 20 20 20 20 20 20 20 20 20 20 20 20 20 20 19 19 19 19 19 19 19 18 18 18 18 18 18
20 20 19 19 19 20 21 21 21 21 21 21 21 20 20 20 19 19 19 20 20 20 20 20 20 20 20 20 20 20 20 20 20 20 20 19 19 19 19 19 19 19 18 18 18 18 18 18 18
20 19 19 18 19 20 21 21 21 22 21 21 21 20 20 19 19 19 20 20 20 20 20 20 20 20 20 20 20 20 20 20 20 19 19 19 19 19 19 19 19 19 19 18 18 18 18 18 18
20 19 19 18 19 20 21 22 21 21 21 21 20 20 20 20 20 20 20 20 20 20 20 20 20 20 20 20 20 19 19 19 19 19 19 19 19 19 19 19 19 19 19 18 18 18 18 18 18
20 19 18 18 19 20 21 22 22 21 21 20 20 20 19 20 20 20 20 20 20 20 20 20 20 20 20 19 19 19 19 19 19 19 19 19 19 19 19 19 19 19 18 18 18 18 18 18 17
20 18 18 18 20 21 22 22 21 21 20 20 20 19 19 20 20 20 20 20 20 20 20 19 19 19 19 19 19 19 19 19 19 19 19 19 19 18 18 18 18 18 18 18 18 18 18 18 17
20 17 19 20 20 21 22 21 21 20 20 20 20 19 19 19 20 20 20 19 19 19 19 19 19 19 19 19 19 19 19 19 19 19 19 18 18 18 18 18 18 18 18 18 18 18 18 17 17
21 17 20 19 21 22 22 21 21 20 20 20 20 19 18 19 19 19 19 19 19 19 19 19 19 19 19 19 19 19 19 19 19 18 18 18 18 18 18 18 18 18 18 18 18 18 18 17 17
21 18 18 20 21 22 21 20 20 20 19 19 19 19 20 19 19 19 19 18 19 19 19 19 19 19 19 19 19 19 19 18 18 18 18 18 18 18 18 18 18 18 18 18 18 17 17 17 17
21 18 20 21 22 21 21 20 20 19 19 19 19 19 19 19 18 18 18 18 19 19 19 19 19 19 19 19 19 18 18 18 18 18 18 18 18 18 18 17 17 17 17 17 17 17 17 17 17
20 19 21 22 23 22 21 20 19 19 18 19 19 18 18 18 18 19 19 19 19 19 19 19 19 19 19 19 18 18 18 18 18 18 18 18 17 17 17 17 17 17 17 17 17 17 17 17 17
20 21 22 22 22 21 20 19 19 19 19 20 19 19 19 18 19 19 19 19 19 19 19 19 19 19 18 18 18 18 18 18 18 18 18 17 17 17 17 17 17 17 17 17 17 17 17 17 17
22 22 22 22 22 21 20 19 19 18 19 19 19 18 18 18 19 19 19 19 19 19 19 19 18 18 18 18 18 18 18 18 18 17 17 17 17 17 17 17 17 17 17 17 17 17 17 17 17
23 22 21 21 21 20 19 19 19 18 18 18 18 18 18 18 19 19 19 19 19 19 19 19 18 18 18 18 18 18 18 18 17 17 17 17 17 17 16 16 16 16 16 16 16 16 16 16 16
23 21 20 20 20 20 19 19 18 18 18 18 18 18 18 18 18 19 19 19 19 19 19 19 18 18 18 18 18 18 18 17 17 17 17 17 16 16 16 16 16 16 16 16 16 16 16 16 16
22 21 21 21 20 20 20 19 19 18 18 18 18 17 18 18 18 19 19 19 19 18 19 18 18 18 18 18 18 17 17 17 17 17 17 16 16 16 16 16 16 16 15 15 15 15 15 15 15
21 21 21 21 20 20 19 19 18 18 18 17 17 17 17 18 18 18 18 19 19 18 18 18 18 18 18 18 17 17 17 17 17 16 16 16 16 16 15 15 15 15 15 15 15 15 15 15 15
22 21 21 21 21 20 19 18 18 18 17 17 17 17 18 18 18 18 18 18 18 18 18 18 18 18 18 17 17 17 17 17 16 16 16 16 15 15 15 15 15 15 15 14 14 14 14 14 14
23 22 21 21 21 20 19 18 18 17 17 17 17 17 18 18 18 18 18 18 18 18 18 18 18 18 18 17 17 17 17 17 16 16 16 15 15 15 15 15 15 14 14 14 14 14 14 14 14
22 21 21 21 20 20 18 18 18 17 17 17 17 17 18 18 18 18 18 18 18 18 18 18 18 18 18 17 17 17 17 16 16 16 15 15 15 15 15 14 14 14 14 14 14 13 13 13 13
22 21 21 21 20 19 19 19 18 17 17 17 18 18 18 18 18 18 18 18 18 18 18 18 18 18 18 17 17 17 16 16 16 16 15 15 15 15 14 14 14 14 14 13 13 13 13 13 13
22 22 22 21 19 18 18 18 18 17 17 17 17 18 18 18 18 18 18 18 18 18 18 18 18 18 17 17 17 17 17 17 16 16 15 15 15 14 14 14 14 13 13 13 13 13 13 13 13
22 21 20 19 18 18 18 18 17 17 17 17 17 18 18 18 19 19 19 19 18 18 18 18 18 18 17 17 17 17 17 16 16 15 15 15 15 14 14 14 13 13 13 13 13 13 12 12 12
21 20 18 16 16 18 18 18 18 16 17 18 18 18 19 19 19 19 19 19 18 18 18 18 18 18 18 17 17 17 16 16 16 16 15 15 14 14 14 13 13 13 13 13 12 12 12 12 12
21 19 18 19 17 18 18 17 17 18 18 18 18 19 19 19 19 19 19 19 19 19 19 18 18 18 18 17 17 17 16 16 16 16 15 15 14 14 14 13 13 13 13 12 12 12 12 12 12
20 20 19 20 19 18 18 18 18 19 19 20 20 20 20 20 20 20 20 20 19 19 19 19 19 18 18 18 17 17 16 16 16 15 15 15 14 14 13 13 13 13 12 12 12 12 12 12 11
20 19 19 17 18 18 18 18 18 19 19 19 19 20 20 20 20 20 20 20 20 20 20 19 19 19 18 18 17 17 16 16 16 15 15 14 14 14 13 13 13 13 12 12 12 12 12 12 11
21 18 16 17 18 19 19 19 19 20 20 19 18 19 20 21 21 21 21 21 21 20 20 20 19 19 19 18 18 17 16 16 15 15 15 14 14 14 13 13 13 13 12 12 12 12 12 12 11
20 19 17 15 16 18 19 19 19 19 19 19 19 21 22 22 22 22 22 22 21 21 20 20 20 19 19 18 18 17 16 16 15 15 15 14 14 14 13 13 13 13 13 12 12 12 12 12 12
21 19 17 18 18 16 17 18 20 19 19 19 20 22 23 23 23 22 22 22 22 21 21 21 20 20 19 19 18 17 17 16 16 15 15 14 14 14 13 13 13 13 13 13 13 12 12 12 12

GEFSSGP_850_meantemp_096.txt.gz
Temperature
20 20 20 21 25 29 29 29 29 28 28 26 26 26 27 27 27 25 21 21 20 20 19 20 20 20 20 20 20 20 20 20 20 19 19 19 19 19 19 19 19 18 18 18 18 18 18 18 18
20 20 21 24 28 29 29 29 28 28 27 25 25 25 26 25 23 21 21 20 20 20 19 19 20 20 20 20 20 20 20 20 20 19 19 19 19 19 19 19 18 18 18 18 18 18 18 18 18
20 20 24 28 29 29 29 29 29 28 26 25 25 25 25 24 22 20 20 20 20 19 19 19 20 19 19 19 20 20 20 20 20 19 19 19 19 19 19 19 18 18 18 18 18 18 18 18 18
21 23 26 29 29 29 29 29 28 28 26 25 26 25 24 21 21 20 20 20 20 19 19 19 20 19 19 19 19 20 20 20 19 19 19 19 19 19 19 19 18 18 18 18 18 18 18 18 18
22 26 29 29 30 29 29 28 28 28 27 26 26 26 24 20 20 20 20 20 20 20 19 19 19 19 19 19 19 19 19 19 19 19 19 19 19 19 19 19 18 18 18 18 18 18 18 18 18
25 28 29 30 29 29 29 28 28 28 27 26 25 26 22 20 19 19 20 20 20 20 19 19 19 19 19 19 19 19 19 19 19 19 19 19 19 18 18 18 18 18 18 18 18 18 18 18 18
27 29 29 29 29 29 29 27 28 28 27 26 25 26 22 19 19 19 20 20 20 20 19 18 18 19 19 19 19 19 19 19 19 19 19 19 18 18 18 18 18 18 18 18 18 18 18 18 18
25 29 29 29 29 29 29 27 26 26 26 24 24 25 23 19 19 19 19 19 19 19 19 19 19 18 18 18 19 19 19 19 19 19 19 18 18 18 18 18 18 18 18 18 18 18 18 18 18
25 28 29 30 29 30 29 28 26 25 25 24 23 23 22 19 19 19 19 19 19 19 19 19 19 18 18 18 18 18 19 19 18 18 18 18 17 17 17 17 18 18 18 18 18 18 18 18 18
26 29 29 29 29 30 28 27 27 26 26 25 23 21 20 19 19 19 19 19 19 18 18 18 18 18 18 18 18 18 18 18 18 17 17 17 17 17 17 17 17 17 17 17 17 17 17 17 17
28 28 29 29 28 28 28 27 26 27 27 25 24 21 19 19 19 19 19 19 19 18 18 18 18 18 18 18 18 18 18 18 17 17 17 17 17 17 17 17 17 17 17 17 17 17 17 17 17
28 29 28 28 27 27 27 27 27 26 25 22 22 21 20 19 19 19 19 19 19 18 18 18 18 18 18 18 18 18 18 18 17 17 17 17 17 17 17 17 17 17 17 17 17 17 16 16 16
28 29 28 27 27 26 26 27 26 25 23 21 21 20 20 19 19 19 19 19 18 18 18 18 18 18 18 18 18 18 18 18 17 17 17 17 17 17 17 17 17 17 16 16 16 16 16 16 16
29 28 28 27 27 26 26 26 25 24 22 21 21 20 19 19 19 19 18 18 18 18 18 18 18 18 18 18 18 18 18 18 17 17 17 17 17 17 16 16 16 16 16 16 16 16 16 16 16
28 28 29 28 27 26 26 27 26 24 22 21 21 20 19 19 19 18 18 18 18 18 18 18 18 18 18 18 18 18 17 17 17 17 17 17 16 16 16 16 16 16 16 16 16 15 15 15 16
29 29 29 29 28 26 26 27 26 23 22 22 21 20 19 18 18 18 18 18 18 18 18 18 18 18 18 18 18 17 17 17 17 17 16 16 16 16 16 16 16 15 15 15 15 15 15 15 15
29 30 29 29 28 27 27 27 26 23 22 22 21 20 19 18 18 18 18 18 18 18 18 18 18 18 18 18 18 17 17 17 17 16 16 16 16 16 15 15 15 15 15 15 15 15 15 15 15
29 29 29 29 28 27 27 27 26 24 23 22 21 20 19 18 18 18 18 18 18 18 18 18 18 18 18 18 17 17 17 17 16 16 16 16 15 15 15 15 15 15 15 15 14 14 14 14 15
29 29 29 29 28 27 27 27 26 25 23 23 21 20 19 19 18 18 18 18 18 18 18 18 18 18 18 17 17 17 17 16 16 16 16 15 15 15 15 15 15 14 14 14 14 14 14 15 14
29 29 29 28 27 27 27 27 26 25 24 23 22 21 20 19 18 17 17 17 18 18 18 18 18 18 18 17 17 17 17 16 16 16 16 15 15 15 15 14 14 14 14 14 14 14 14 14 14
29 29 29 28 27 27 26 27 26 25 23 22 22 21 20 20 19 18 17 17 18 18 18 18 18 18 18 17 17 17 17 16 16 16 15 15 15 15 14 14 14 14 14 14 13 13 13 14 14
29 29 28 28 27 28 27 27 27 26 24 23 22 21 21 20 20 19 18 18 18 18 18 18 18 18 18 17 17 17 17 16 16 16 15 15 15 14 14 14 14 14 14 14 14 13 13 13 15
29 28 28 28 28 28 27 27 28 26 25 24 23 22 21 21 20 19 19 18 18 18 18 18 18 18 18 17 17 17 16 16 16 16 15 15 15 14 14 14 14 14 14 13 13 13 13 13 14
28 27 27 27 28 27 27 27 27 27 26 26 24 22 22 21 20 20 19 18 18 18 18 18 18 18 18 18 17 17 16 16 16 16 15 15 15 14 14 14 14 14 13 13 13 13 13 13 13
28 28 27 27 27 28 27 27 28 28 27 26 25 23 22 21 21 20 19 19 18 18 18 18 18 18 18 18 17 17 17 16 16 16 15 15 15 15 14 14 14 13 13 13 13 13 13 12 12
28 28 27 26 27 28 27 27 28 28 26 25 24 24 22 22 21 20 20 19 18 18 18 18 18 18 18 18 18 17 17 16 16 16 16 15 15 15 14 14 14 13 13 13 13 13 12 12 12
28 28 29 28 28 27 28 28 28 27 26 26 25 24 23 22 22 21 20 20 19 19 18 18 18 18 18 18 18 18 17 16 16 16 16 15 15 15 14 14 14 13 13 13 13 13 12 12 12
28 29 28 28 26 26 27 28 28 27 27 26 26 25 24 23 22 22 21 20 20 19 19 18 18 18 18 18 18 18 17 17 16 16 16 15 15 15 14 14 14 13 13 13 13 12 12 12 12
27 27 27 28 27 26 26 28 29 28 28 27 26 25 24 24 23 22 22 21 20 20 19 19 19 19 19 18 18 18 17 17 17 16 16 16 15 15 14 14 14 14 13 13 13 13 12 12 12
28 28 28 26 26 27 27 28 29 28 28 27 27 26 25 24 24 23 22 21 21 20 20 19 19 19 19 19 18 18 18 17 17 16 16 16 15 15 15 14 14 14 13 13 13 13 13 12 12

GEFSSGP_850_meantemp_102.txt.gz
Temperature
23 23 22 23 26 26 26 29 32 31 31 31 30 30 29 28 26 24 24 24 23 22 22 21 21 21 20 20 20 19 19 19 19 19 19 19 18 18 18 18 18 18 18 18 18 18 18 18 18
23 22 24 26 27 26 27 30 31 31 31 30 30 29 29 27 26 25 25 24 22 22 22 21 21 20 20 20 20 19 19 19 19 19 19 18 19 19 18 18 18 18 18 18 18 18 18 18 18
23 23 26 29 28 28 29 31 31 32 30 30 30 29 28 26 25 25 24 23 22 21 21 21 21 20 20 20 20 19 19 19 19 19 19 19 19 19 18 18 18 18 18 18 18 18 18 18 18
23 26 28 29 30 31 32 32 32 32 31 30 30 29 26 25 25 24 24 23 21 20 21 21 21 20 20 20 19 19 19 19 19 19 19 19 19 18 18 18 18 18 18 18 18 18 18 18 18
25 28 29 29 30 32 33 33 32 32 31 30 29 27 25 24 24 24 23 23 21 20 21 21 21 20 20 20 19 19 19 19 19 19 19 19 19 19 19 19 19 18 19 18 18 18 18 18 18
27 29 29 30 32 33 34 33 32 32 31 30 29 27 25 24 24 23 23 22 21 20 20 21 20 20 20 19 19 19 19 19 19 19 19 19 19 19 19 19 19 18 18 18 18 18 18 18 18
28 29 30 31 32 33 33 32 32 32 30 30 29 27 24 23 23 23 23 22 22 21 20 21 20 20 20 19 19 19 19 19 19 19 19 19 19 19 19 18 18 18 18 18 18 18 18 18 19
29 30 30 32 32 32 33 32 32 31 30 29 29 27 24 23 23 23 23 22 22 21 20 20 20 20 20 19 19 19 19 19 19 19 19 19 19 18 18 18 18 18 18 18 18 18 18 18 18
29 30 30 31 32 33 33 32 31 30 30 29 28 26 24 23 23 23 23 22 22 21 20 19 19 19 19 19 19 19 19 19 19 19 19 18 18 18 18 18 18 18 18 18 18 18 18 18 18
30 30 31 33 33 33 32 32 31 31 30 28 26 25 23 23 23 23 22 22 21 21 20 20 19 19 19 19 19 19 19 19 18 18 18 18 18 18 17 18 18 18 18 18 18 18 18 18 18
32 31 32 33 33 32 32 32 31 31 28 27 26 25 24 23 23 22 22 22 21 21 20 20 19 19 19 19 19 19 18 18 18 18 18 18 18 18 18 18 18 18 18 18 18 18 17 17 17
32 32 32 32 32 32 32 32 31 30 28 26 25 24 23 23 22 22 22 22 21 21 20 20 19 19 19 19 19 19 19 18 18 18 18 18 18 18 17 17 18 17 17 17 17 17 17 17 17
32 32 32 32 32 32 31 31 30 29 27 26 25 24 23 23 22 22 21 21 20 20 20 20 19 19 19 19 19 19 19 18 18 18 18 18 18 18 18 18 18 17 17 17 17 17 17 17 17
33 33 32 32 31 31 32 31 30 29 27 26 25 24 23 22 22 21 21 20 20 20 20 19 19 19 19 19 19 19 19 18 18 18 18 18 18 18 17 17 17 17 17 17 17 17 17 17 17
32 32 31 31 31 31 31 30 29 29 27 26 25 24 23 22 21 21 20 20 20 20 19 19 19 19 19 19 19 19 18 18 18 18 18 18 17 17 17 17 17 17 17 17 17 17 17 17 17
32 31 29 30 31 31 31 28 29 28 27 26 25 24 23 22 21 20 20 19 19 19 19 19 18 19 19 19 18 18 18 18 18 18 18 17 17 17 17 17 17 17 17 17 17 16 16 16 17
30 29 29 30 31 32 31 29 29 28 27 26 25 24 22 21 21 20 20 19 19 19 19 18 18 19 19 18 18 18 18 18 18 17 17 17 17 17 17 17 17 17 16 16 16 16 16 16 16
30 30 30 30 31 32 31 30 29 28 28 27 25 24 22 21 20 20 19 19 19 19 18 18 18 18 18 18 18 18 18 18 17 17 17 17 17 17 17 16 17 16 16 16 16 16 16 16 16
31 31 31 31 32 31 30 30 30 29 28 27 25 24 23 21 20 20 19 19 19 18 18 18 18 18 18 18 18 18 17 17 17 17 17 17 16 17 16 16 16 16 16 16 16 16 16 16 16
32 31 31 31 32 31 30 29 28 28 27 26 25 24 23 21 20 20 19 19 18 18 18 18 18 18 18 18 18 18 17 18 17 17 17 17 16 16 16 16 16 16 16 15 15 16 16 16 16
31 31 31 30 31 31 29 27 26 27 27 26 26 24 23 21 21 20 19 19 18 18 18 18 18 18 18 18 18 17 18 17 17 17 17 16 16 16 16 16 16 15 15 15 15 15 15 16 16
31 32 31 31 30 29 28 26 25 26 26 26 26 25 24 22 21 20 19 19 18 18 18 18 18 18 18 18 18 18 18 17 17 17 17 16 16 16 16 16 15 15 15 15 15 15 15 15 16
31 32 31 31 29 27 26 26 25 26 26 26 26 25 24 23 21 20 20 19 19 18 18 18 18 18 18 18 18 18 18 18 17 17 17 16 16 16 16 15 15 15 15 15 15 15 15 15 15
32 32 31 29 26 23 23 25 26 27 28 28 27 26 24 23 22 21 20 19 19 19 18 18 18 18 18 18 18 18 18 17 17 17 17 16 16 16 16 15 15 15 15 15 15 15 15 15 15
32 30 28 25 23 22 23 25 26 29 30 29 28 26 25 24 22 21 21 20 19 19 18 18 18 18 18 18 18 18 17 17 17 17 17 17 16 16 16 15 15 15 15 15 15 15 14 14 15
31 30 28 25 24 24 24 25 28 29 30 29 27 26 25 24 23 22 21 20 20 19 19 19 18 18 18 18 18 18 17 17 17 17 17 17 17 16 16 16 16 15 15 15 15 14 14 14 14
31 31 31 28 27 26 25 26 27 28 28 29 28 26 26 24 24 23 22 21 20 20 19 19 18 18 18 18 18 18 18 17 17 17 17 17 17 17 16 16 16 15 15 15 15 14 14 14 14
32 31 30 28 27 26 26 23 23 25 26 28 28 27 26 25 24 23 23 22 21 20 20 19 19 18 18 18 18 18 18 18 17 17 17 17 17 17 16 16 16 15 15 15 15 14 14 14 14
30 30 29 29 28 27 25 23 24 24 26 27 28 28 27 26 25 24 23 22 22 21 20 19 19 19 18 18 18 18 18 18 18 17 17 17 17 17 16 16 16 15 15 15 15 15 14 14 14
30 29 28 27 27 27 27 25 26 26 26 28 28 27 27 26 25 25 24 23 22 21 20 20 19 19 18 18 18 18 18 18 17 17 17 17 17 16 16 16 16 15 15 15 15 15 15 14 14

GEFSSGP_850_meantemp_108.txt.gz
Temperature
22 22 21 21 19 19 20 22 24 24 25 26 26 25 24 24 23 21 21 21 22 21 21 21 21 20 20 20 20 19 19 20 19 19 19 19 19 19 19 18 18 18 18 18 18 18 18 18 18
22 22 21 20 20 20 21 23 24 25 26 26 25 25 24 23 21 21 20 21 22 22 21 21 21 20 20 20 20 19 19 19 19 19 19 19 19 19 18 18 18 19 19 19 18 18 18 18 18
22 21 21 19 20 21 23 25 25 26 27 26 25 24 23 22 21 21 21 22 22 22 21 21 21 20 20 20 20 19 19 19 19 19 19 19 19 19 19 19 19 19 19 19 19 18 18 18 18
22 21 21 20 21 23 25 26 26 27 27 26 24 23 23 23 22 22 22 22 22 21 21 21 21 20 20 20 20 19 19 19 19 19 19 19 19 19 19 19 19 19 19 19 19 18 18 18 18
22 22 20 20 22 25 27 28 28 27 26 25 24 22 22 22 23 22 22 22 22 21 21 21 20 20 20 20 20 20 19 19 19 19 19 19 19 19 19 19 19 19 19 19 19 18 18 18 18
22 21 20 21 24 27 28 28 28 26 25 24 23 22 21 22 22 21 21 21 22 21 21 20 20 20 20 20 20 20 19 19 19 19 19 19 19 19 19 19 19 19 19 19 19 18 18 18 18
22 20 21 23 25 27 28 29 28 26 25 24 24 21 21 20 21 21 21 21 21 21 21 20 20 20 20 20 20 20 19 19 19 19 19 19 19 19 19 19 19 19 19 19 19 18 18 18 18
24 21 22 23 25 27 29 29 28 27 25 25 24 21 21 20 20 21 21 21 21 21 20 20 20 20 20 20 20 20 19 19 19 19 19 19 18 18 18 18 18 18 18 18 18 18 18 18 18
25 21 21 23 25 27 29 28 27 26 25 24 24 23 23 21 20 20 19 20 20 20 20 20 20 20 20 20 19 19 19 19 19 19 18 18 18 18 18 18 18 18 18 18 18 18 18 18 18
25 21 23 26 27 27 29 28 27 26 24 23 23 23 22 21 20 20 19 19 19 19 20 20 20 20 19 19 19 19 19 19 19 18 18 18 18 18 18 18 18 18 18 18 18 18 18 18 18
25 24 26 27 28 29 28 28 28 25 23 23 23 22 21 21 20 20 19 20 20 20 19 19 19 19 19 19 19 19 19 19 18 18 18 18 18 18 17 17 18 18 18 18 18 18 18 17 17
26 26 28 28 29 29 28 28 26 25 25 25 25 23 22 21 20 20 20 19 19 19 19 19 19 19 19 19 19 19 19 18 18 18 18 18 18 17 17 17 17 17 17 17 17 17 17 17 17
26 27 28 29 29 29 28 27 26 25 25 24 23 22 22 22 21 20 20 20 19 19 19 19 19 19 19 19 19 19 18 18 18 18 18 18 18 18 17 17 17 17 17 17 17 17 17 17 17
26 27 27 28 28 28 27 26 25 24 24 23 22 22 22 22 21 20 19 19 19 19 19 19 19 19 19 19 19 18 18 18 18 18 18 18 18 18 17 17 17 17 17 17 17 17 17 17 17
28 26 26 26 27 27 27 25 25 24 23 22 22 22 21 21 21 20 20 19 19 19 18 18 19 19 18 18 18 18 18 18 18 18 18 18 17 17 17 17 17 17 17 17 17 16 16 16 16
25 25 24 26 26 27 26 24 24 24 23 22 21 20 20 20 21 20 20 19 19 18 18 18 18 18 18 18 18 18 18 18 18 18 18 18 17 17 17 17 17 17 17 16 16 16 16 16 16
23 23 24 25 26 26 25 23 23 23 23 21 21 20 20 20 20 20 19 19 19 18 18 18 18 18 18 18 18 18 18 18 18 18 18 17 17 17 17 17 17 17 16 16 16 16 16 16 16
22 23 25 25 26 26 24 23 22 22 22 21 20 20 20 19 19 19 19 19 19 18 18 18 18 18 18 18 18 18 18 18 18 18 18 17 17 17 17 17 17 16 16 16 16 16 16 16 16
25 25 25 26 27 25 24 23 22 22 21 21 20 20 19 19 19 19 19 19 18 18 18 18 18 18 18 18 18 18 18 18 17 17 17 17 17 17 17 17 16 16 16 16 16 16 16 16 16
26 25 25 26 27 25 23 22 22 21 21 21 20 20 19 19 18 19 18 18 18 18 18 18 18 18 18 18 18 18 18 18 17 17 17 17 17 17 17 16 16 16 16 16 16 16 16 16 16
26 25 26 26 26 23 23 21 21 21 21 21 20 20 20 19 19 19 19 18 18 18 18 18 18 18 18 18 18 18 17 17 17 17 17 17 17 17 16 16 16 16 16 16 15 16 16 16 16
25 27 27 27 24 20 22 20 20 20 20 20 20 20 20 20 19 19 19 18 18 18 18 18 18 18 18 18 18 18 18 18 18 18 17 17 17 16 16 16 16 16 15 15 15 15 15 15 16
26 27 26 25 22 20 20 20 19 19 20 20 20 20 20 20 19 19 19 19 18 18 18 18 18 18 18 18 18 18 18 18 18 17 17 17 16 16 16 16 16 15 15 15 15 15 15 15 15
27 26 23 20 19 19 19 19 19 19 19 20 20 20 20 20 19 19 19 19 18 18 18 18 18 18 18 18 18 18 18 18 17 17 17 17 17 16 16 16 15 15 15 15 15 15 15 15 15
26 23 21 21 19 19 19 19 19 20 20 20 20 20 20 20 19 19 19 18 18 18 18 18 18 18 18 18 18 18 18 17 18 17 17 17 17 17 16 16 16 15 15 15 15 15 15 15 15
25 23 21 21 20 19 19 19 19 21 21 21 21 21 20 20 20 20 20 19 19 18 18 18 18 18 18 18 18 17 17 17 17 17 17 17 17 17 16 16 16 16 16 15 15 15 15 15 15
25 24 22 20 20 19 19 19 20 20 21 21 21 20 20 20 20 20 20 20 19 19 19 19 19 19 18 18 18 17 17 17 17 17 17 17 17 17 16 16 16 16 15 15 15 15 15 15 15
25 23 20 20 20 20 19 19 19 20 20 20 20 20 20 20 20 20 20 20 20 20 19 19 19 19 19 18 18 18 18 17 17 17 17 17 17 17 16 16 16 16 15 15 15 15 15 15 15
24 23 20 19 19 19 19 19 20 19 19 19 20 20 20 20 20 20 20 20 20 20 19 19 19 19 18 18 18 18 18 18 17 17 17 17 17 17 16 16 16 16 16 15 15 15 15 15 15
24 22 20 20 20 18 18 19 21 20 19 19 20 21 21 21 20 20 20 20 20 20 19 19 19 19 19 18 18 18 18 18 17 17 17 17 17 17 16 16 16 16 16 16 15 15 15 15 15

GEFSSGP_850_meantemp_114.txt.gz
Temperature
21 20 20 19 19 19 21 22 22 23 23 23 23 23 22 21 21 21 21 21 21 20 20 20 20 20 20 20 20 20 20 20 19 19 19 19 19 19 19 18 18 18 18 18 18 18 18 18 18
21 20 20 19 19 20 21 22 22 23 23 23 23 23 22 21 21 21 20 20 21 21 20 20 20 20 20 20 20 20 20 20 19 19 19 19 19 19 19 18 18 18 18 18 18 18 18 18 18
21 20 19 18 19 20 22 23 23 24 24 23 23 22 22 21 21 21 21 21 21 21 20 20 20 20 20 20 20 20 20 20 19 19 19 19 19 19 18 18 18 18 18 18 18 18 18 17 17
21 20 19 18 20 21 23 24 24 24 24 23 23 22 21 21 21 21 21 21 21 20 20 20 20 20 20 20 20 20 20 20 19 19 19 19 19 19 18 18 18 18 18 18 18 18 17 17 17
21 20 18 18 20 21 23 24 24 24 23 23 22 21 21 21 21 22 21 21 21 20 20 20 20 20 20 20 20 20 20 20 19 19 19 19 19 18 18 18 18 18 18 18 18 17 17 17 17
21 18 18 19 21 23 24 25 24 24 23 23 22 21 20 21 21 22 21 21 21 20 20 20 20 20 20 20 20 20 19 19 19 19 19 19 18 18 18 18 18 18 18 18 17 17 17 17 17
20 17 19 20 21 23 25 25 24 23 23 23 23 20 19 20 21 21 21 21 20 20 20 20 20 19 19 19 19 19 19 19 19 19 19 18 18 18 18 18 18 18 18 17 17 17 17 17 17
22 18 20 20 22 24 25 25 25 24 23 23 23 20 20 20 20 21 20 20 20 20 20 20 19 19 19 19 19 19 19 19 19 19 18 18 18 18 18 18 18 18 18 17 17 17 17 17 17
22 18 19 21 22 24 25 24 24 24 23 22 22 22 22 21 20 20 19 19 19 19 19 19 19 19 19 19 19 19 19 19 18 18 18 18 18 18 18 17 17 18 17 17 17 17 17 17 17
21 18 20 22 23 24 25 24 24 23 22 21 21 21 22 21 20 19 19 19 19 19 19 19 19 19 19 19 19 18 19 19 18 18 18 18 18 17 17 17 17 17 17 17 17 17 17 17 17
20 20 22 23 25 25 24 24 24 22 21 22 22 21 21 20 19 19 19 19 19 19 19 19 19 19 19 19 19 18 18 18 18 18 18 18 17 17 17 17 17 17 17 17 17 17 17 17 17
21 22 23 25 26 25 25 24 23 23 23 24 24 23 21 20 20 19 19 19 19 19 19 19 19 19 19 19 18 18 18 18 18 18 18 17 17 17 17 17 17 17 17 17 17 17 17 17 17
22 23 25 25 25 25 24 23 23 22 23 24 23 22 21 20 19 19 19 19 19 19 18 18 18 19 18 18 18 18 18 18 18 18 17 17 17 17 17 17 17 17 17 17 17 17 17 17 17
24 24 24 25 25 25 23 23 22 22 23 22 22 21 21 20 19 19 19 18 18 18 18 18 18 18 18 18 18 18 18 18 18 17 17 17 17 17 17 17 17 17 17 16 16 16 16 16 16
24 23 23 24 24 24 24 23 22 22 21 21 20 20 20 19 19 19 19 19 19 18 18 18 18 18 18 18 18 18 18 18 17 17 17 17 17 17 17 17 17 16 16 16 16 16 16 16 16
23 22 23 23 24 24 24 23 22 22 20 19 19 19 19 19 19 19 19 19 18 18 18 18 18 18 18 18 18 18 18 17 17 17 17 17 17 17 16 16 16 16 16 16 16 16 16 16 16
21 21 22 23 24 24 23 22 21 21 20 19 19 18 18 18 18 18 19 18 18 18 18 18 18 18 18 18 18 18 17 17 17 17 17 17 17 16 16 16 16 16 16 16 16 16 16 16 16
22 22 22 22 23 23 22 21 20 20 20 19 19 18 18 18 18 18 18 18 18 18 18 18 17 18 18 18 17 17 17 17 17 17 17 17 17 16 16 16 16 16 16 16 16 16 16 16 16
22 22 21 22 23 23 22 20 20 19 19 19 18 18 18 18 18 18 18 18 17 17 17 17 17 17 17 17 17 17 17 17 17 17 17 16 16 16 16 16 16 16 16 15 15 15 15 16 16
22 22 22 22 23 23 21 20 20 19 19 19 19 19 19 18 18 18 18 17 17 17 17 17 18 17 18 17 18 17 17 17 17 17 17 16 16 16 16 16 16 15 15 15 15 15 15 15 16
22 22 22 22 22 21 21 20 20 20 19 19 19 19 19 18 18 18 18 17 17 17 17 17 17 17 17 17 17 17 17 17 17 16 16 16 16 16 16 16 15 15 15 15 15 15 15 15 15
22 23 23 23 21 20 20 20 20 19 18 18 18 18 18 18 18 18 18 18 18 17 17 17 17 17 17 17 17 17 17 17 17 17 17 16 16 16 16 16 15 15 15 15 15 15 15 15 15
23 23 22 22 20 19 19 19 19 18 19 18 18 18 19 19 18 18 18 18 18 18 17 17 17 17 17 17 17 17 17 17 17 17 17 16 16 16 16 15 15 15 15 15 15 15 15 15 15
23 22 20 17 18 19 19 19 19 18 19 19 18 19 19 19 18 18 18 18 18 18 17 17 17 17 17 17 17 17 17 17 17 17 17 16 16 16 16 15 15 15 15 15 15 15 15 15 15
23 20 19 20 18 18 18 18 18 19 19 19 18 19 19 19 19 18 18 18 17 18 17 17 17 17 17 17 17 17 17 17 17 17 17 17 16 16 16 16 15 15 15 15 15 15 15 15 15
21 20 19 20 19 18 18 18 19 20 19 19 19 19 19 19 19 19 18 18 18 18 17 17 17 17 17 17 17 17 17 17 17 17 17 17 16 16 16 16 15 15 15 15 15 15 15 15 15
21 20 19 18 18 18 18 18 19 19 19 18 18 18 18 19 19 19 19 18 18 18 18 18 18 17 17 17 17 17 17 17 17 17 17 16 16 16 16 16 15 15 15 15 15 15 15 15 15
22 19 17 17 18 19 19 19 19 20 19 18 18 18 18 19 19 19 19 19 19 19 18 18 18 18 18 17 17 17 17 17 17 17 16 16 16 16 16 16 16 15 15 15 15 15 14 14 14
21 19 17 16 17 18 19 19 19 19 19 18 18 18 18 19 19 19 19 19 19 19 18 18 18 18 18 18 18 17 17 17 17 17 17 16 16 16 16 16 16 15 15 15 15 15 15 14 14
21 19 17 18 18 16 17 19 20 18 18 18 18 18 19 19 19 19 19 19 19 19 19 18 18 18 18 18 18 17 17 17 17 17 17 17 16 16 16 16 16 16 15 15 15 15 15 15 15

GEFSSGP_850_meantemp_120.txt.gz
Temperature
21 21 20 22 26 29 29 29 30 29 29 28 27 28 28 28 28 26 22 22 21 20 19 20 20 20 20 20 20 19 19 19 19 19 19 19 19 19 18 18 18 18 18 18 18 18 18 18 18
21 20 21 25 29 29 29 30 30 30 29 27 27 27 27 27 25 22 21 21 20 20 19 19 20 20 20 20 20 20 19 19 19 19 19 19 19 18 18 18 18 18 18 18 18 18 18 18 18
21 21 24 29 29 29 30 30 30 29 28 27 27 27 27 26 23 22 21 20 20 20 19 19 20 20 20 20 20 20 19 19 19 19 19 18 18 18 18 18 18 18 18 18 18 18 18 18 18
21 23 26 29 30 30 30 31 30 30 28 27 28 27 25 22 22 21 20 20 20 19 19 19 20 20 20 20 20 19 19 19 19 19 19 18 18 18 18 18 18 18 18 18 18 18 18 18 18
23 27 29 30 30 30 31 30 30 30 29 28 28 28 25 21 21 21 20 20 20 20 19 19 20 20 20 20 20 19 19 19 19 18 18 18 18 18 18 18 18 18 18 18 18 18 18 17 17
26 28 30 30 30 30 31 30 30 30 29 28 28 28 25 21 21 20 20 20 20 20 19 19 20 20 20 19 19 19 19 19 19 18 18 18 18 18 18 18 18 18 18 18 18 18 17 17 17
27 29 30 30 30 30 31 30 30 30 30 28 28 28 24 21 20 20 20 20 20 20 19 19 19 19 19 19 19 19 19 19 19 19 18 18 18 18 18 18 18 18 18 18 18 17 17 17 17
26 29 30 30 30 30 31 30 30 30 29 27 27 28 26 21 20 20 20 20 20 20 19 19 18 18 19 19 19 19 19 19 19 19 18 18 18 18 18 18 18 18 18 18 17 17 17 17 17
25 29 30 31 30 31 31 30 29 28 28 27 26 26 24 21 20 19 19 19 19 19 19 19 18 18 18 18 18 18 18 18 18 18 18 18 17 17 17 17 17 18 18 18 17 17 17 17 17
27 29 30 31 31 31 30 30 30 29 29 28 26 24 22 21 20 19 19 19 19 19 19 19 18 18 18 18 18 18 18 18 17 17 18 17 17 17 17 17 17 17 17 17 17 17 17 17 17
28 29 30 30 30 30 30 30 30 30 30 29 27 24 21 20 20 20 20 19 19 19 18 18 18 18 18 18 18 18 17 18 17 17 17 17 17 17 17 17 17 17 17 17 17 17 17 17 17
28 29 29 29 30 30 30 30 30 30 29 28 27 25 22 21 20 20 20 19 19 18 18 18 18 18 18 18 18 17 17 17 17 17 17 17 17 17 17 17 17 17 17 17 17 17 16 17 17
28 29 29 29 30 30 29 30 29 29 28 26 25 24 22 21 20 20 20 19 19 18 18 18 18 18 18 18 18 17 17 17 17 17 17 17 17 17 17 17 17 17 16 17 17 16 16 16 17
29 29 30 30 30 29 30 30 29 29 27 26 25 23 22 21 21 20 19 18 18 18 18 18 18 18 18 18 18 18 17 17 17 17 17 17 17 17 17 17 17 16 16 16 16 16 16 16 16
28 29 30 31 30 30 30 30 30 28 26 26 25 23 22 21 20 20 19 18 18 18 18 18 18 18 18 18 18 18 17 17 17 17 17 17 17 17 17 17 17 16 16 16 16 16 16 16 16
29 30 30 31 31 30 30 30 30 27 26 26 25 23 22 21 20 19 19 18 18 18 17 17 17 18 18 18 18 17 17 17 17 17 17 17 17 17 17 17 16 16 16 16 16 16 16 16 16
29 30 30 30 30 30 30 30 29 27 27 26 25 24 22 21 20 19 18 18 18 18 17 17 17 17 17 17 17 17 17 17 17 17 17 17 17 17 17 17 16 16 16 16 16 16 16 16 16
29 30 30 30 30 30 30 30 29 27 26 26 25 24 22 21 20 19 18 18 18 17 17 17 17 17 17 17 17 17 17 17 17 17 17 17 17 17 16 16 16 16 16 16 16 16 16 16 16
29 29 29 30 30 29 30 29 29 27 27 26 25 24 22 21 20 19 18 18 18 17 17 17 17 17 17 17 17 17 17 17 17 17 17 17 17 16 16 16 16 16 16 16 16 16 16 16 16
28 28 29 30 30 29 29 29 29 28 27 26 25 24 23 21 20 19 18 17 17 17 17 17 17 17 17 17 17 17 17 17 17 17 17 17 16 16 16 16 16 16 16 16 16 16 16 16 16
28 28 29 29 29 29 29 29 29 28 26 25 24 24 23 22 21 19 18 17 17 17 17 17 17 17 17 17 17 17 17 17 17 17 17 16 16 16 16 16 16 16 16 16 16 15 15 16 16
28 29 29 28 29 29 29 28 29 28 27 26 25 24 23 22 21 20 18 18 17 17 17 17 17 17 17 17 17 17 17 17 17 17 17 16 16 16 16 16 16 16 16 16 16 15 15 15 16
29 29 28 28 28 29 29 28 29 28 28 27 26 24 23 22 21 20 19 18 17 17 17 17 17 17 17 17 17 17 17 17 17 17 17 16 16 16 16 16 16 16 16 15 15 15 15 16 16
29 28 28 28 29 28 28 28 29 30 28 28 26 25 23 22 21 20 19 18 17 17 17 17 17 17 17 17 17 17 17 17 17 17 16 16 16 16 16 16 16 16 15 15 15 15 15 15 15
28 28 27 27 27 28 28 28 28 29 28 27 26 25 23 22 21 20 19 18 18 17 17 17 17 17 17 17 17 17 17 17 17 17 17 17 16 16 16 16 16 16 15 15 15 15 15 15 15
28 28 27 27 27 28 28 28 29 28 27 26 25 24 23 22 21 20 19 18 18 17 17 17 17 17 17 17 17 17 17 17 17 17 17 17 17 16 16 16 16 16 15 15 15 15 15 15 15
28 28 30 28 28 27 28 29 29 28 27 26 25 24 23 22 21 20 19 19 18 17 17 17 17 17 17 17 17 17 17 17 17 17 17 17 16 16 16 16 16 16 15 15 15 15 15 15 15
29 29 28 28 26 26 28 28 29 28 27 26 26 25 23 22 21 20 19 19 18 18 17 17 17 17 17 17 17 17 17 17 17 17 17 16 16 16 16 16 16 16 16 15 15 15 15 15 15
28 28 28 28 28 27 27 28 29 28 27 27 26 24 23 22 21 20 20 19 18 18 17 17 17 17 17 17 17 17 17 17 17 17 17 17 16 16 16 16 16 16 16 15 15 15 15 15 15
28 28 28 27 27 27 27 28 28 28 27 26 25 23 22 22 21 20 20 19 18 18 18 17 17 17 17 17 17 17 17 17 17 17 17 17 16 16 16 16 16 16 15 15 15 15 15 15 15

GEFSSGP_850_meantemp_126.txt.gz
Temperature
24 24 23 23 24 25 27 30 32 32 31 31 31 31 30 29 27 25 25 25 23 22 22 22 21 21 20 20 20 19 19 19 19 19 19 18 18 18 18 18 18 18 18 18 18 18 18 18 18
24 23 25 26 25 25 28 31 32 31 31 31 31 30 30 28 27 26 25 24 22 22 22 22 21 21 20 20 20 19 19 19 19 19 19 18 18 18 18 18 18 18 18 18 18 18 18 18 18
24 24 27 27 26 27 29 32 32 32 31 31 31 30 29 28 27 26 25 23 22 21 21 22 21 21 20 20 20 19 19 19 19 18 18 18 18 18 18 18 18 18 18 18 18 18 18 18 18
24 27 28 28 28 31 32 32 33 32 32 31 31 30 28 27 26 25 24 23 22 21 21 22 21 21 20 20 20 19 19 19 19 18 18 18 18 18 18 18 18 18 18 18 18 18 18 18 18
26 28 28 28 30 32 33 33 33 32 32 31 31 29 27 26 26 25 24 23 22 21 21 22 21 21 20 20 19 19 19 19 18 18 18 18 18 18 18 18 18 18 18 18 18 18 18 18 18
28 30 28 29 31 33 33 33 33 32 32 31 31 29 26 25 25 24 24 23 22 21 21 21 21 21 20 20 19 19 19 19 18 18 18 18 18 18 18 18 18 18 18 18 18 18 18 18 18
29 30 29 31 32 33 33 33 33 32 32 31 31 29 25 25 24 24 23 23 22 21 21 21 21 21 20 20 19 19 19 18 18 18 18 18 18 18 18 18 18 18 18 18 18 18 18 18 18
29 30 30 31 32 33 34 33 33 32 32 31 30 28 25 24 24 24 23 23 22 21 20 21 20 20 20 20 19 19 19 18 18 18 18 18 18 18 18 18 18 18 18 18 18 18 18 18 18
30 30 30 31 32 33 34 34 33 32 32 31 29 28 26 25 24 24 23 23 22 21 20 20 19 20 19 19 19 19 19 18 18 18 18 18 18 18 18 18 18 18 18 18 18 18 18 18 18
31 30 31 33 34 34 34 33 33 33 31 30 27 26 25 24 24 24 23 23 22 21 20 20 19 19 19 18 19 18 18 19 18 18 18 18 17 18 17 18 18 18 18 18 18 18 18 18 18
32 31 32 34 34 34 34 33 33 32 30 29 27 26 25 24 24 23 23 23 22 21 21 20 19 19 19 18 19 18 18 18 18 18 18 18 18 18 18 18 18 18 18 18 18 18 18 18 18
32 33 33 34 34 34 33 33 33 32 31 30 29 27 25 25 24 24 23 23 22 21 21 20 19 19 19 19 18 18 18 18 18 18 18 18 18 18 18 18 18 18 18 18 18 17 18 18 18
32 33 33 33 33 33 33 33 32 31 31 30 29 27 26 25 25 24 23 23 22 21 21 20 19 19 19 19 19 18 18 18 18 18 18 18 18 18 18 18 18 18 17 18 17 17 17 17 18
33 33 33 33 33 34 34 33 32 30 30 30 29 28 26 26 25 24 23 22 21 21 21 20 19 19 19 19 19 19 18 18 18 18 18 18 18 18 18 18 18 17 17 17 17 17 17 17 17
33 33 33 33 33 34 34 32 31 30 30 30 30 28 27 26 25 23 22 22 21 20 20 20 19 19 19 19 19 18 18 18 18 18 18 18 18 18 18 18 18 17 17 17 17 17 17 17 17
33 32 31 33 34 34 33 31 31 30 30 30 30 28 27 25 24 23 22 21 21 20 20 19 19 18 18 18 18 18 18 18 18 18 18 18 18 17 17 17 17 17 17 17 17 17 17 17 17
31 31 31 32 33 34 33 31 31 30 30 31 30 29 27 25 24 23 22 21 20 20 19 19 19 18 18 18 18 18 18 18 18 18 18 18 17 17 17 17 17 17 17 17 17 17 17 17 17
31 31 31 31 33 33 33 32 31 31 31 31 30 29 27 25 24 23 22 21 20 19 19 19 18 18 18 18 18 18 18 18 18 18 18 18 18 17 17 17 17 17 17 17 17 17 17 17 17
32 32 31 32 34 33 32 32 32 31 31 31 30 28 27 25 24 22 21 20 20 19 19 18 18 18 17 17 17 18 18 18 17 18 18 18 17 17 17 17 17 17 17 17 17 17 17 17 17
32 31 32 32 33 33 32 32 32 31 31 30 30 28 27 25 23 22 21 20 19 19 18 18 18 18 17 17 18 18 18 17 17 17 18 17 17 17 17 17 17 17 17 17 17 17 17 17 17
31 31 31 31 32 32 32 31 30 30 30 29 29 28 27 25 24 22 21 20 19 19 18 18 18 17 17 17 17 17 17 17 17 17 17 17 17 17 17 17 17 17 17 17 17 17 17 17 17
30 32 32 32 31 30 30 29 29 29 28 29 29 28 27 26 24 23 21 20 19 19 18 18 18 17 17 17 17 17 17 17 17 17 17 17 17 17 17 17 17 17 17 17 17 17 17 17 17
31 32 32 31 30 29 29 29 28 28 27 27 28 28 27 26 24 23 21 20 19 19 18 18 17 17 17 17 17 17 17 18 17 17 17 17 17 17 17 17 17 17 17 17 17 17 17 17 17
32 32 31 31 29 27 27 27 27 27 27 28 29 28 27 26 24 23 21 20 19 19 18 18 17 17 17 17 17 17 17 17 17 17 17 17 17 17 17 17 17 17 17 17 17 17 17 17 17
32 30 28 28 27 26 26 26 27 29 30 30 29 28 27 26 24 23 22 20 19 19 18 18 18 17 17 17 17 17 17 17 17 17 17 17 17 17 17 17 17 17 17 17 16 17 17 17 17
31 30 28 27 26 26 25 25 28 30 31 30 29 28 27 26 24 23 22 21 20 19 18 18 18 17 17 17 17 17 17 17 17 17 17 17 17 17 17 17 17 17 17 16 16 16 16 16 17
30 30 31 29 28 27 26 26 28 30 30 30 29 28 27 26 25 23 22 21 20 19 19 18 18 18 17 17 17 17 17 17 17 17 17 17 17 17 17 17 17 17 17 16 16 16 16 16 16
32 31 30 29 27 27 27 26 26 27 28 28 29 28 27 26 25 23 22 21 20 19 19 18 18 18 17 17 17 17 17 17 17 17 17 17 17 17 17 17 17 17 17 17 16 16 16 16 16
31 30 30 29 29 27 27 26 27 27 27 28 28 28 27 26 25 23 22 21 20 20 19 18 18 18 17 17 17 17 17 17 17 17 17 17 17 17 17 17 17 17 17 17 17 16 16 16 16
31 30 29 28 27 28 27 26 28 27 28 28 28 27 26 25 24 23 22 21 20 20 19 18 18 18 17 17 17 17 17 17 17 17 17 17 17 17 17 17 17 17 16 16 17 16 16 16 16

GEFSSGP_850_meantemp_132.txt.gz
Temperature
23 22 22 21 20 20 22 24 26 27 27 27 27 26 25 25 23 22 21 22 22 22 21 21 21 20 20 20 20 20 19 19 19 19 19 19 19 19 19 19 18 18 18 18 18 18 18 18 18
23 23 22 21 20 21 23 25 26 27 28 27 26 26 25 24 22 21 21 22 22 22 21 21 21 20 20 20 20 19 19 19 19 19 19 19 19 18 18 18 18 18 18 18 18 18 18 18 18
23 23 22 19 20 21 23 26 27 28 28 27 26 25 25 23 22 22 22 22 22 22 21 21 21 20 20 20 20 19 19 19 19 19 19 18 18 18 18 18 18 18 18 18 18 18 18 18 17
23 22 22 20 21 23 24 26 27 28 28 27 26 24 24 24 23 23 22 22 22 22 21 21 21 20 20 20 20 19 19 19 19 19 18 18 18 18 18 18 18 18 18 18 18 18 18 18 17
23 22 20 20 22 25 26 27 27 27 27 26 25 23 23 23 24 23 22 22 22 22 21 21 21 20 20 20 20 19 19 19 19 18 18 18 18 18 18 18 18 18 18 18 18 18 18 18 17
23 21 20 21 23 26 27 28 28 27 26 26 24 23 22 22 23 22 22 22 22 22 21 21 21 20 20 20 19 19 19 19 18 18 18 18 18 18 18 18 18 18 18 18 18 18 18 18 17
23 20 21 22 24 25 27 28 27 27 26 26 25 22 22 21 22 22 22 22 22 22 21 21 21 20 20 20 19 19 19 19 18 18 18 18 18 18 18 18 18 18 18 18 18 18 18 18 17
25 21 22 23 24 26 28 28 28 28 27 26 25 22 22 22 22 22 21 21 21 21 21 21 21 20 20 20 19 19 19 19 18 18 18 18 18 18 18 18 18 18 18 18 18 18 18 18 17
25 21 21 23 25 26 28 28 28 27 26 26 26 25 24 23 22 21 20 21 21 21 21 21 21 20 20 20 19 19 19 18 18 18 18 18 18 18 18 18 18 18 18 18 18 18 18 18 18
25 21 23 26 26 27 28 28 27 26 25 24 24 24 24 22 22 21 20 20 21 21 21 21 21 20 20 20 19 19 18 18 18 18 18 18 18 18 18 18 18 18 18 18 18 18 18 18 18
25 24 26 27 28 28 28 28 28 26 24 24 24 24 23 22 22 21 21 21 21 21 21 20 20 20 20 20 19 19 19 18 18 18 18 18 18 18 18 18 18 18 18 18 18 18 18 18 18
26 26 28 29 29 29 28 28 28 26 26 27 27 25 23 23 22 21 21 21 21 21 21 21 20 20 20 20 20 19 19 19 18 18 18 18 18 18 18 18 18 18 18 18 18 18 18 18 18
26 26 28 29 29 29 29 28 27 27 28 27 26 25 24 23 22 22 21 21 21 21 21 20 20 20 20 20 19 19 19 19 18 18 18 18 18 18 18 18 18 18 18 18 18 18 18 18 17
26 27 28 29 29 29 28 28 27 26 26 25 25 24 24 23 23 22 21 21 21 20 20 20 20 20 20 19 19 19 19 19 18 18 18 18 18 18 18 18 18 18 18 17 17 17 17 17 17
28 26 26 27 28 29 28 27 26 27 26 24 24 23 23 23 23 23 22 21 21 20 20 20 20 20 19 19 19 19 19 19 18 18 18 18 18 18 18 18 17 17 17 17 17 17 17 17 17
26 25 25 26 28 28 27 26 26 27 25 24 23 23 23 23 23 22 22 21 21 20 20 19 19 19 19 19 19 19 18 18 18 18 18 18 18 18 18 18 17 17 17 17 17 17 17 17 17
24 24 25 26 28 28 27 25 26 26 25 24 23 22 22 22 22 22 22 22 21 20 20 19 19 19 19 19 18 18 18 18 18 18 18 18 18 18 18 18 17 17 17 17 17 17 17 17 17
23 24 25 26 28 28 26 26 25 26 25 24 23 22 22 22 22 21 22 21 21 20 20 19 19 19 19 18 18 18 18 18 18 18 18 18 18 18 17 17 17 17 17 17 17 17 17 17 17
25 25 25 26 28 27 26 25 25 25 25 23 22 22 21 21 22 21 21 21 20 20 19 19 19 19 18 18 18 18 18 18 18 18 18 18 17 17 17 17 17 17 17 17 17 17 17 17 17
25 25 25 26 27 27 25 25 24 24 24 24 23 22 22 21 21 21 21 21 20 20 19 19 19 19 18 18 18 18 18 18 18 18 18 17 17 17 17 17 17 17 17 17 17 17 17 17 17
25 25 26 26 27 26 25 24 23 24 24 23 23 22 22 22 21 21 21 21 20 20 19 19 19 19 18 18 18 17 17 17 17 17 17 17 17 17 17 17 17 17 17 17 17 17 17 17 17
25 27 27 27 25 23 24 22 23 22 22 22 22 22 22 22 22 21 21 21 20 20 19 19 19 18 18 18 18 18 17 17 18 18 17 17 17 17 17 17 17 17 17 17 17 17 17 17 17
26 27 27 27 24 22 22 22 21 21 22 22 21 22 22 22 22 22 21 21 20 20 19 19 18 18 18 18 18 18 18 18 18 17 17 17 17 17 17 17 17 17 17 17 17 17 17 17 17
28 27 25 22 20 21 22 22 21 20 21 21 21 21 22 22 22 21 21 20 20 19 19 18 18 18 18 17 17 18 18 17 17 17 17 17 17 17 17 17 17 17 17 17 17 17 17 17 17
27 23 21 22 20 20 21 21 20 21 22 22 21 21 22 22 21 21 20 20 20 19 19 18 18 18 17 17 17 17 17 18 18 17 17 17 17 17 17 17 17 17 17 17 17 17 17 17 17
25 22 21 22 21 20 21 21 21 22 22 22 22 22 21 21 21 21 21 20 20 19 19 18 18 18 17 17 17 17 17 17 17 17 17 17 17 17 17 17 17 17 17 17 17 17 17 17 17
26 23 22 20 21 20 20 21 21 22 21 21 22 21 21 21 21 20 20 20 20 19 19 18 18 18 18 18 17 17 17 17 17 17 17 17 17 17 17 17 17 17 17 17 17 17 16 17 17
26 24 20 20 21 20 21 21 20 21 21 21 20 20 20 20 20 20 20 20 19 19 19 18 18 18 18 18 17 17 17 17 17 17 17 17 17 17 17 17 17 17 17 17 17 16 16 16 16
25 24 21 19 19 20 20 20 22 21 21 20 20 20 21 20 20 20 20 20 19 19 18 18 18 18 18 17 17 17 17 17 17 17 17 17 17 17 17 17 17 17 17 17 16 16 16 16 16
24 23 21 20 20 19 19 20 22 21 20 20 20 20 20 20 20 20 20 19 19 18 18 18 18 18 18 17 17 17 17 17 17 17 17 17 17 17 17 17 17 17 17 17 16 16 16 16 16

GEFSSGP_850_meantemp_138.txt.gz
Temperature
22 21 20 20 19 19 21 23 24 24 24 25 25 24 23 22 22 21 21 21 21 20 20 19 19 19 20 20 20 20 20 19 19 19 19 19 19 19 19 18 18 18 18 18 18 18 18 18 18
22 21 20 20 19 21 22 23 24 24 24 25 24 24 22 21 21 21 20 21 21 21 20 20 19 19 20 20 20 20 19 19 19 19 19 19 19 19 18 18 18 18 18 18 18 18 18 18 18
22 21 21 19 20 21 23 24 24 24 25 25 24 23 22 21 21 21 21 21 21 21 20 20 20 20 20 20 20 19 19 19 19 19 19 19 19 18 18 18 18 18 18 18 18 18 18 18 17
22 21 21 19 22 22 23 24 24 24 25 25 24 22 22 21 22 22 21 21 21 21 20 20 20 20 20 20 19 19 19 19 19 19 19 18 18 18 18 18 18 18 18 18 18 18 18 17 17
22 21 19 20 21 22 23 24 24 24 24 24 23 22 21 21 22 22 22 21 21 21 20 20 20 20 20 19 19 19 19 19 19 19 18 18 18 18 18 18 18 18 18 18 18 17 17 17 17
22 19 19 20 22 23 24 25 24 24 24 24 23 21 20 21 22 22 22 21 21 21 20 20 20 20 20 19 19 19 19 19 19 18 18 18 18 18 18 18 18 18 18 18 17 17 17 17 17
21 18 20 21 22 23 25 25 24 24 23 24 23 20 19 20 21 22 21 21 21 21 20 20 20 20 19 19 19 19 19 19 18 18 18 18 18 18 18 18 18 18 18 17 17 17 17 17 17
22 19 21 20 22 24 25 25 25 24 24 24 24 21 20 20 21 21 21 21 20 20 20 20 20 19 19 19 19 19 19 18 18 18 18 18 18 18 18 18 18 18 18 17 17 17 17 17 17
22 19 20 21 23 24 25 25 25 25 24 24 23 23 23 21 20 20 20 20 20 20 20 20 20 19 19 19 19 19 18 18 18 18 18 18 18 18 18 18 18 18 18 17 17 17 17 17 17
22 19 21 22 23 24 25 25 25 24 23 23 23 23 22 21 20 20 20 20 20 20 20 20 20 19 19 19 18 18 18 18 18 18 18 18 18 18 18 18 18 17 17 17 17 17 17 17 17
21 21 22 24 25 25 25 25 25 24 23 23 23 22 22 21 20 21 21 21 20 20 20 20 19 19 19 19 18 18 18 18 18 18 18 18 18 18 18 18 18 17 17 17 17 17 17 17 17
21 22 24 25 26 25 25 25 24 24 25 26 25 25 23 21 21 21 21 21 20 20 20 20 19 19 19 19 19 18 18 18 18 18 18 18 18 18 18 18 18 18 17 17 17 17 17 17 17
23 23 25 26 26 25 25 24 24 24 25 25 24 23 23 22 22 21 21 21 21 20 20 20 20 19 19 19 18 18 18 18 18 18 18 18 18 18 18 18 18 17 17 17 17 17 17 17 17
24 24 24 25 25 25 24 24 24 24 25 24 24 23 22 22 21 21 20 20 20 20 20 20 20 19 19 19 18 18 18 18 18 18 18 18 18 18 18 17 17 17 17 17 17 17 17 17 17
24 23 23 24 25 25 25 24 23 24 24 23 22 22 21 21 21 21 21 21 21 20 20 20 20 19 19 19 18 18 18 18 18 18 18 18 17 17 17 17 17 17 17 17 17 17 17 17 17
23 23 23 24 24 25 25 24 23 23 23 22 21 21 21 21 21 21 21 21 20 20 20 20 19 19 19 19 18 18 18 18 18 18 18 17 17 17 17 17 17 17 17 17 17 17 17 17 17
21 22 23 24 24 25 24 24 23 23 22 21 21 21 21 21 21 21 21 20 20 20 20 19 19 19 19 19 18 18 18 18 18 18 17 17 17 17 17 17 17 17 17 17 17 17 17 17 17
22 23 23 23 24 24 23 22 22 22 22 21 21 21 21 21 21 21 20 20 20 19 19 19 19 18 18 18 18 18 17 17 17 17 17 17 17 17 17 17 17 17 17 17 17 17 17 17 17
23 23 22 22 24 23 22 22 21 21 21 21 21 21 21 21 21 20 20 20 20 19 19 19 18 18 18 18 18 18 17 17 17 17 17 17 17 17 17 17 17 17 17 17 17 17 17 16 16
22 22 22 22 23 23 22 22 21 21 21 21 21 21 21 21 21 20 20 20 19 19 19 19 18 18 18 18 18 18 18 17 17 17 17 17 17 17 17 17 17 17 17 17 17 17 16 16 16
22 22 22 23 23 22 23 22 21 21 21 21 21 21 21 21 21 20 20 20 20 19 19 19 18 18 18 18 18 17 17 17 17 17 17 17 17 17 17 17 17 17 17 17 17 17 16 16 16
21 22 23 23 22 20 22 21 22 20 20 20 21 21 21 21 21 21 20 20 20 19 19 19 18 18 18 18 17 17 17 17 17 17 17 17 17 17 17 17 17 17 17 16 16 16 16 16 16
22 23 23 22 21 20 20 21 20 20 20 20 20 21 21 21 21 21 21 20 20 19 19 19 18 18 18 18 17 17 17 17 17 17 17 17 17 17 17 17 17 17 16 16 16 16 16 16 16
23 22 20 18 18 20 21 20 20 19 20 20 20 20 21 21 21 21 21 20 20 19 19 18 18 18 17 17 17 17 17 17 17 17 17 17 17 17 17 17 17 16 16 16 16 16 16 16 16
23 20 19 20 19 19 19 19 19 20 20 20 20 20 20 20 20 21 20 20 20 19 19 18 18 18 17 17 17 17 17 17 17 17 17 17 17 17 17 17 17 17 16 16 16 16 16 16 16
21 20 19 20 20 19 19 19 19 20 20 20 20 20 20 20 20 20 20 20 20 19 19 18 18 18 17 17 17 17 17 17 17 17 17 17 17 17 17 17 17 17 16 16 16 16 16 16 16
21 20 19 18 19 19 19 19 20 20 19 19 19 19 19 20 20 20 20 20 19 19 19 18 18 18 17 17 17 17 17 17 17 17 17 17 17 17 17 17 17 16 16 16 16 16 16 16 16
21 18 17 17 18 20 20 20 19 20 19 19 18 18 18 19 20 20 20 20 19 19 18 18 18 17 17 17 17 17 17 17 17 17 17 17 17 17 17 17 16 16 16 16 16 16 16 16 16
20 19 17 16 17 18 20 20 20 19 19 18 18 18 18 19 19 19 19 19 19 19 18 18 18 17 17 17 16 16 16 16 16 17 16 16 17 17 16 16 16 16 16 16 16 16 16 16 16
21 19 17 19 18 17 18 19 20 18 18 18 18 18 19 19 19 19 19 19 18 18 18 18 17 17 17 17 17 16 16 16 16 16 16 16 16 16 16 16 16 16 16 16 16 16 16 16 16

GEFSSGP_850_meantemp_144.txt.gz
Temperature
22 21 20 22 27 30 29 30 30 30 30 29 28 28 28 28 27 25 22 22 21 20 19 20 19 19 19 19 19 19 19 19 19 19 19 19 19 19 19 18 18 18 18 18 18 18 18 18 18
21 21 22 26 30 30 29 30 30 29 29 28 28 28 28 26 24 22 21 21 20 20 19 19 19 19 19 19 19 19 19 19 19 19 19 19 19 18 18 18 18 18 18 18 18 18 18 18 18
21 22 25 30 30 30 29 30 30 29 28 28 28 27 27 25 22 21 21 20 20 20 19 19 20 19 19 19 19 19 19 19 19 19 19 19 18 18 18 18 18 18 18 18 18 18 18 18 18
22 24 27 30 30 30 30 30 30 30 29 28 28 27 25 22 22 21 20 20 20 19 19 19 20 19 19 19 19 19 19 19 19 19 19 18 18 18 18 18 18 18 18 18 18 18 18 18 17
24 28 30 31 30 30 31 30 30 30 30 29 28 27 24 21 21 21 20 20 20 20 19 19 20 20 19 19 19 19 19 19 19 19 18 18 18 18 18 18 18 18 18 18 18 18 18 18 17
27 30 31 30 30 31 31 30 30 30 29 28 28 27 23 21 21 21 20 20 20 20 19 19 19 19 19 19 19 19 19 19 19 18 18 18 18 18 18 18 18 18 18 18 18 18 18 17 17
28 31 31 31 30 30 31 30 30 30 30 29 28 28 23 21 21 21 20 20 21 20 19 18 19 19 19 19 19 19 19 19 18 18 18 18 18 18 18 18 18 18 18 18 18 18 17 17 17
27 31 31 31 31 31 31 30 30 30 29 28 28 28 25 21 21 20 20 20 20 20 19 19 18 18 18 19 19 19 19 18 18 18 18 18 18 18 18 17 18 18 18 18 17 17 17 17 17
26 30 31 31 31 31 31 31 30 29 28 27 27 27 25 22 21 20 20 20 20 19 19 19 19 18 18 18 18 18 18 18 18 18 18 18 17 17 17 17 18 18 18 18 17 17 17 17 17
28 30 31 31 31 31 31 31 30 30 29 28 26 24 22 21 20 20 20 20 19 19 19 19 19 18 18 18 18 18 18 18 18 17 17 17 17 17 17 17 18 18 18 18 17 17 17 17 17
29 30 31 31 30 30 31 31 30 31 31 30 27 24 22 21 21 20 20 20 20 19 19 19 18 18 18 18 18 18 18 18 17 17 17 17 17 17 17 17 17 17 17 17 17 17 17 17 17
29 30 29 30 30 30 31 31 31 31 30 29 27 25 23 22 21 21 21 20 19 19 19 19 18 18 18 18 18 18 18 18 18 17 17 17 17 17 17 17 17 17 17 17 17 17 17 17 17
29 30 30 30 30 30 30 31 30 30 29 28 26 24 23 23 22 21 21 20 19 19 19 19 18 18 18 18 18 18 18 18 18 17 17 17 17 17 17 17 17 17 17 17 17 17 17 17 17
30 30 30 30 30 30 30 31 30 30 28 27 25 24 24 23 22 21 20 20 19 19 19 19 19 19 19 18 18 18 18 18 18 17 17 17 17 17 17 17 17 17 17 17 17 17 17 17 17
29 30 31 31 31 30 31 31 31 29 28 27 26 24 23 22 22 21 20 20 19 19 19 19 19 19 19 18 18 18 18 18 17 17 17 17 17 17 17 17 17 17 17 17 17 17 17 17 17
30 30 30 31 31 30 30 31 31 28 28 27 26 24 23 22 21 21 20 20 19 19 19 19 19 19 19 19 18 18 18 18 17 17 17 17 17 17 17 17 17 17 17 17 17 17 17 17 17
30 30 30 30 31 31 31 31 30 28 28 27 26 25 23 22 21 20 20 20 19 19 19 19 19 19 19 18 18 18 18 17 17 17 17 17 17 17 17 17 17 17 17 17 17 17 17 17 17
30 30 30 30 30 30 30 31 30 28 28 28 27 25 24 22 21 20 20 20 19 19 19 19 19 19 19 18 18 18 18 17 17 17 17 17 17 17 17 17 17 17 17 17 17 16 16 17 17
29 29 29 30 30 30 30 30 30 29 28 28 27 26 24 23 22 20 20 19 19 19 19 19 19 19 18 18 18 18 17 17 17 17 17 17 17 17 17 17 17 17 17 17 17 17 16 17 17
28 29 29 29 29 29 30 30 30 29 28 27 27 25 24 23 22 20 20 19 19 19 19 19 19 19 18 18 18 18 17 17 17 17 17 17 17 17 17 17 17 17 17 17 17 17 17 17 17
28 29 29 29 29 29 29 30 30 29 28 27 26 25 25 24 22 21 20 19 19 19 19 19 18 18 18 18 18 17 17 17 17 17 17 17 17 17 17 17 17 17 17 17 17 17 17 17 17
28 29 29 29 29 30 29 29 30 29 29 28 27 26 25 24 23 22 21 20 19 19 19 19 18 18 18 18 17 17 17 17 17 17 17 17 17 17 17 17 17 17 17 17 17 17 17 17 17
29 29 29 29 29 29 29 29 30 29 29 29 28 26 25 24 23 22 21 20 20 19 19 18 18 18 18 18 18 17 17 17 17 17 17 17 17 17 17 17 17 17 17 17 17 16 17 17 17
29 28 28 28 29 28 29 29 29 30 29 29 27 26 24 24 23 22 21 20 19 19 18 18 18 18 18 18 18 17 17 17 17 17 17 17 17 17 17 17 17 17 17 17 17 16 17 17 17
28 28 27 27 28 28 29 28 29 29 28 28 27 25 24 23 22 21 20 20 19 18 18 18 18 18 18 18 17 17 17 17 17 17 17 17 17 17 17 17 17 17 17 17 17 16 16 16 16
28 28 28 27 28 29 28 28 29 28 27 26 25 25 24 23 22 21 20 20 19 19 18 18 18 18 18 17 17 17 17 17 16 17 17 17 17 17 17 17 17 17 17 16 17 16 16 16 16
28 29 30 29 29 28 29 29 29 28 27 26 25 24 24 23 22 21 20 20 19 19 18 18 18 18 17 17 17 17 17 16 16 17 17 17 17 17 17 16 16 16 16 16 16 16 16 16 16
30 30 29 29 27 27 28 28 29 28 27 27 26 25 23 23 22 21 20 20 19 18 18 18 18 18 17 17 17 17 17 17 16 16 16 17 17 16 16 16 16 16 16 16 17 16 16 16 16
28 28 29 29 29 28 27 28 29 28 27 26 26 24 23 23 22 21 20 19 19 18 18 18 17 17 17 17 17 17 16 16 16 16 16 16 17 16 16 16 16 16 16 16 16 16 16 16 16
29 29 29 28 27 28 28 28 27 28 27 26 25 23 22 22 21 20 19 19 18 18 17 17 17 17 17 17 17 17 17 16 16 16 16 16 16 16 16 16 16 16 16 16 16 16 16 16 16

GEFSSGP_850_meantemp_150.txt.gz
Temperature
25 24 24 25 26 26 29 31 31 31 31 31 31 30 29 28 27 25 25 23 22 22 22 21 20 20 20 20 19 19 19 19 19 19 19 19 19 19 18 18 18 18 18 18 18 18 18 18 18
25 24 26 27 26 26 29 31 31 32 32 31 31 30 29 27 27 25 24 22 22 22 21 21 20 20 20 19 19 19 19 19 19 19 19 19 18 18 18 18 18 18 18 18 18 18 18 18 18
25 25 27 28 27 28 30 32 32 32 32 31 30 29 28 27 26 25 23 22 21 20 21 21 20 20 20 19 19 19 19 19 19 19 18 18 18 18 18 18 18 18 18 18 18 18 18 18 18
25 27 28 29 29 31 32 32 33 32 32 31 30 29 27 26 25 24 23 22 21 20 21 21 20 20 20 19 19 19 19 19 19 19 18 18 18 18 18 18 18 18 18 18 18 18 18 18 18
27 28 28 28 31 33 34 33 32 32 32 31 30 28 26 26 25 24 23 22 21 20 21 21 20 20 20 19 19 19 19 19 18 18 18 18 18 18 18 18 18 18 18 18 18 18 18 18 18
29 29 28 28 31 33 34 33 33 32 32 31 29 27 26 25 24 24 24 23 22 20 21 21 20 20 20 19 19 19 19 18 18 18 18 18 18 18 18 18 18 18 18 18 18 18 18 18 18
30 29 29 30 32 33 34 33 33 32 32 31 29 27 25 25 25 24 24 23 22 21 21 21 21 20 20 19 19 19 19 19 18 18 18 18 18 18 18 18 18 18 18 18 18 18 18 18 18
30 31 31 32 32 32 34 33 33 32 32 31 30 27 26 25 25 24 24 23 22 21 20 20 20 20 20 19 19 19 19 18 19 18 18 18 18 18 18 18 18 18 18 18 18 18 18 18 18
31 30 30 32 33 33 33 33 33 32 31 30 29 28 26 25 25 24 24 23 22 21 20 20 19 20 19 19 19 19 19 19 19 19 18 18 18 18 18 18 18 18 18 18 18 18 18 18 18
31 30 31 33 34 34 33 33 33 31 30 28 27 27 26 25 25 24 24 23 22 22 21 20 20 19 19 18 19 19 19 19 18 18 18 18 18 18 18 18 18 18 18 18 18 18 18 18 18
33 32 33 34 34 34 34 33 33 32 29 28 27 26 25 25 25 24 24 24 23 22 22 21 20 20 19 19 19 19 18 19 18 18 18 18 18 18 18 18 18 18 18 18 18 18 18 18 18
33 34 34 33 34 34 34 34 33 32 30 29 28 26 26 25 25 25 24 23 23 22 22 21 20 20 20 19 19 19 19 19 18 18 18 18 18 18 18 18 18 18 18 18 18 18 18 18 18
33 34 34 34 34 34 34 33 32 31 31 30 28 27 26 26 25 24 24 23 22 22 22 21 20 20 20 20 19 19 19 19 19 19 18 18 18 18 18 18 18 18 18 18 18 18 18 18 18
34 34 34 34 34 34 34 33 32 32 31 30 29 27 26 26 25 24 24 23 22 22 22 21 20 20 20 20 19 19 19 19 19 19 18 18 18 18 18 18 18 18 18 18 18 18 18 18 18
33 33 34 34 34 34 34 32 32 31 31 31 29 28 27 26 25 25 24 23 22 22 21 21 20 20 19 19 19 19 19 19 19 19 18 18 18 18 18 18 18 18 18 18 18 18 18 18 18
33 32 32 34 34 34 33 31 31 31 31 31 30 28 27 26 25 25 24 23 22 21 21 20 20 19 19 19 19 19 19 19 19 19 18 19 18 18 18 18 18 18 18 18 18 18 18 18 18
32 32 32 33 34 34 33 31 31 31 31 31 30 28 27 26 25 25 24 23 22 21 20 20 20 19 19 19 19 19 19 19 19 19 18 18 18 18 18 18 18 18 18 18 18 18 18 18 18
32 33 33 33 34 34 32 31 31 31 31 31 30 29 27 26 25 24 23 22 21 21 20 20 20 19 19 19 19 19 19 19 19 18 18 18 18 18 18 18 18 18 18 18 18 18 18 18 18
33 33 33 33 34 33 32 32 32 32 32 32 31 29 27 26 25 24 23 22 21 20 20 20 20 19 19 19 19 19 19 19 18 18 18 18 18 18 18 18 18 18 18 18 18 18 18 18 18
32 32 32 33 34 33 32 32 33 33 33 32 30 29 28 26 25 24 23 22 21 20 20 20 19 19 19 19 19 19 19 18 18 18 18 18 18 18 18 18 18 18 18 18 18 18 18 18 18
32 32 32 32 33 33 32 31 32 32 32 31 30 29 29 27 25 24 23 22 21 20 20 19 19 19 19 19 19 18 18 18 18 18 18 18 18 18 18 18 18 18 18 18 18 18 18 18 18
31 32 33 32 32 31 32 30 31 31 31 31 31 30 29 27 26 24 23 22 21 20 20 19 19 19 19 19 18 18 18 18 18 18 18 18 18 18 18 18 18 18 18 18 18 18 18 18 18
32 33 32 32 31 31 32 31 30 30 30 30 30 30 29 27 26 24 23 22 21 20 20 19 19 19 19 18 18 18 18 18 18 18 18 18 18 18 18 18 18 18 18 18 18 18 18 18 18
32 32 32 31 31 29 30 30 30 30 29 29 30 29 28 27 26 24 23 22 21 20 20 19 19 19 18 18 18 18 18 18 18 18 18 18 18 18 18 18 18 18 18 18 18 18 18 18 18
32 30 29 29 29 29 31 30 30 30 30 30 30 29 28 27 26 24 23 22 21 20 20 19 19 18 18 18 18 18 18 18 18 18 18 18 18 18 18 18 18 18 18 18 17 18 18 18 18
31 31 29 28 28 29 30 29 30 31 31 30 30 29 28 27 26 24 23 22 21 20 20 19 19 18 18 18 18 18 18 18 18 18 18 18 18 18 18 18 18 18 17 17 17 17 17 17 17
31 31 32 31 30 29 29 29 30 31 31 30 29 28 28 27 26 24 23 22 21 20 20 19 19 18 18 18 18 18 18 18 17 17 17 17 18 17 17 18 17 17 17 17 17 17 17 17 17
32 32 31 30 28 28 28 29 28 29 29 30 29 28 27 26 25 24 23 22 21 21 20 19 19 19 18 18 18 18 18 17 17 17 17 17 17 17 17 17 17 17 17 17 17 17 17 17 17
31 31 31 30 30 29 28 27 29 28 29 29 29 27 27 26 25 24 23 22 21 20 20 19 19 18 18 18 18 17 17 17 17 17 17 17 17 17 17 17 17 17 17 17 17 17 17 17 17
32 31 31 29 29 29 29 27 28 27 28 29 28 26 26 25 24 23 22 21 21 20 19 19 18 18 18 18 17 17 17 17 17 17 17 17 17 17 17 17 17 17 17 17 17 17 17 17 17

GEFSSGP_850_meantemp_156.txt.gz
Temperature
24 24 23 23 22 21 23 25 26 26 26 26 26 25 24 23 22 20 20 20 21 21 20 20 20 20 20 20 20 20 20 19 19 19 19 19 19 19 19 19 19 19 18 18 18 18 18 18 18
25 24 24 23 21 22 24 25 26 26 26 26 25 25 23 21 20 19 20 21 21 21 20 20 20 20 20 20 20 19 19 19 19 19 19 19 19 19 18 18 18 18 18 18 18 18 18 18 18
25 24 23 21 22 22 24 26 26 26 26 26 25 25 24 22 20 20 21 21 21 21 20 20 20 20 20 20 19 19 19 19 19 19 19 19 19 18 18 18 18 18 18 18 18 18 18 18 17
25 24 23 21 23 24 25 26 26 26 26 25 25 24 23 22 22 21 21 21 21 21 20 20 20 20 20 20 19 19 19 19 19 19 19 19 18 18 18 18 18 18 18 18 18 18 18 17 17
25 24 21 22 23 25 26 27 27 26 25 25 24 23 22 22 22 21 21 21 21 21 20 20 20 20 20 20 19 19 19 19 19 18 18 19 18 18 18 18 18 18 18 18 18 18 18 17 17
25 22 21 22 24 26 27 27 27 25 24 24 23 22 21 21 22 21 21 21 22 21 21 20 20 20 20 20 19 19 19 19 19 19 19 18 18 18 18 18 18 18 18 18 18 18 18 17 17
24 21 22 23 25 26 27 27 26 25 25 24 24 22 21 20 22 21 21 22 21 21 21 20 20 20 20 20 20 19 19 19 19 19 19 18 18 18 18 18 18 18 18 18 18 18 18 17 17
26 22 23 23 25 26 27 27 26 25 25 25 24 22 21 21 21 21 21 21 21 21 21 21 20 20 20 20 19 19 19 19 19 18 18 18 18 18 18 18 18 18 18 18 18 18 18 17 17
27 22 22 24 25 26 27 26 26 26 25 24 24 24 22 21 21 21 20 20 21 21 21 21 20 20 20 20 19 19 19 19 19 18 18 18 18 18 18 18 18 18 18 18 18 18 18 17 17
26 22 24 26 27 27 28 27 26 25 24 24 23 23 22 22 21 21 21 21 20 20 21 21 21 20 20 20 19 19 19 19 19 18 18 18 18 18 18 18 18 18 18 18 18 18 18 18 17
26 25 26 28 28 29 28 27 26 25 23 23 23 23 22 22 22 21 21 21 21 21 21 20 20 20 20 20 20 19 19 19 19 18 18 18 18 18 18 18 18 18 18 18 18 18 18 18 17
27 27 28 29 29 29 28 28 26 26 25 25 25 24 23 22 22 22 21 21 21 21 21 21 20 20 20 20 20 19 19 19 19 18 18 18 18 18 18 18 18 18 18 18 18 18 18 18 18
27 27 29 29 29 29 29 28 27 26 26 25 24 24 23 23 23 22 22 21 21 21 21 21 20 20 20 20 20 19 19 19 19 18 18 18 18 18 18 18 18 18 18 18 18 18 18 18 18
27 28 28 29 29 29 28 27 26 26 25 24 24 24 24 23 23 22 22 22 21 21 21 20 20 20 20 19 19 19 19 19 19 18 18 18 18 18 18 18 18 18 18 18 18 18 18 18 18
28 27 26 27 28 29 28 26 25 26 25 24 23 24 24 24 24 23 23 22 22 21 21 20 20 20 20 19 19 19 19 19 19 19 18 18 18 18 18 18 18 18 18 18 18 18 18 18 18
26 26 26 27 28 28 27 25 25 26 25 24 24 24 24 24 24 23 23 22 22 21 21 20 20 20 19 19 19 19 19 19 19 19 18 18 18 18 18 18 18 18 18 18 18 18 18 18 18
24 25 26 26 28 28 26 25 25 26 25 24 24 24 23 24 23 23 23 23 22 22 21 20 20 20 20 19 19 19 19 19 19 18 18 18 18 18 18 18 18 18 18 18 18 18 18 18 18
24 25 26 26 28 28 26 25 25 25 25 24 24 24 23 23 23 23 23 23 22 22 21 20 20 20 20 19 19 19 19 18 18 18 18 18 18 18 18 18 18 18 18 18 18 18 18 17 18
25 26 26 27 28 28 26 26 25 25 25 24 23 23 23 23 23 23 23 22 22 21 21 21 20 20 20 19 19 19 19 19 18 18 18 18 18 18 18 18 18 18 18 18 18 18 18 17 17
26 26 26 27 28 28 26 26 26 25 24 24 24 23 23 23 23 23 23 22 22 21 21 21 20 20 20 20 19 19 19 19 18 18 18 18 18 18 18 18 18 18 18 18 18 17 17 17 17
26 26 26 27 27 27 27 25 25 24 24 24 24 23 23 23 23 22 22 22 22 21 21 20 20 20 20 19 19 19 18 18 18 18 18 18 18 18 18 18 18 18 18 18 18 18 17 17 17
25 27 28 28 26 24 25 23 23 23 23 23 23 23 23 23 23 22 22 22 22 21 21 20 20 20 19 19 19 19 19 19 19 19 18 18 18 18 18 18 18 18 18 18 18 18 17 18 18
26 28 28 28 26 24 24 23 22 22 22 22 22 23 23 23 23 22 22 22 22 21 21 20 20 19 19 19 19 18 19 19 19 18 18 18 18 18 18 18 18 18 18 18 18 17 17 18 18
28 27 25 22 21 22 23 23 22 21 22 22 22 23 23 23 23 22 22 22 21 21 20 20 19 19 19 19 18 18 18 18 18 18 18 18 18 18 18 18 18 18 18 18 18 17 17 17 18
27 23 21 22 21 21 22 23 22 23 23 23 22 22 22 22 22 22 22 21 21 21 20 20 19 19 19 18 18 18 18 18 18 18 18 18 18 18 18 18 18 18 18 18 18 17 17 17 17
25 22 21 22 22 21 22 23 22 23 23 23 23 23 22 22 22 22 22 21 21 20 20 19 19 19 18 18 18 18 18 18 18 18 18 18 18 18 18 18 18 18 18 17 17 17 17 17 17
26 23 21 20 22 22 21 22 23 23 22 22 22 22 21 22 22 22 21 21 21 20 20 20 19 19 18 18 18 18 18 17 17 17 18 18 18 18 17 17 17 17 17 17 17 17 17 17 17
26 24 20 20 21 21 22 22 21 22 21 21 21 20 21 21 21 21 21 21 20 20 20 19 19 18 18 18 18 17 17 17 17 17 17 17 17 17 17 17 17 17 17 17 17 17 17 17 17
26 25 22 19 19 20 21 21 22 21 21 21 20 20 21 21 21 21 21 20 20 20 20 19 19 18 18 18 18 17 17 17 17 17 17 17 17 17 17 17 17 17 17 17 17 17 17 17 17
25 24 21 21 21 19 20 20 22 21 21 21 20 20 20 20 21 21 20 20 20 19 19 19 19 18 18 18 18 17 17 17 17 17 17 17 17 17 17 17 17 17 17 17 16 16 16 16 16

GEFSSGP_850_meantemp_162.txt.gz
Temperature
23 23 23 23 21 20 22 23 23 23 23 23 23 23 21 20 20 20 19 20 20 19 19 19 19 19 19 19 19 19 19 19 19 19 19 19 19 18 18 18 18 18 18 18 18 18 18 18 18
24 23 23 23 20 20 22 23 23 23 23 23 23 22 20 19 18 19 19 19 20 20 19 19 19 19 19 19 19 19 19 19 19 19 19 19 18 18 18 18 18 18 18 18 18 18 18 18 17
24 23 23 20 21 21 22 23 23 23 24 24 23 21 20 19 19 19 20 20 19 20 19 19 19 19 19 19 19 19 19 19 19 19 19 19 18 18 18 18 18 18 18 18 18 18 18 17 17
24 24 23 20 22 22 23 23 23 24 24 23 22 21 20 19 20 20 20 20 20 20 19 19 19 19 19 19 19 19 19 19 19 19 19 18 18 18 18 18 18 18 18 18 17 17 17 17 17
24 24 20 21 22 23 23 24 24 23 23 23 21 20 19 19 20 21 20 20 20 20 19 19 19 19 19 19 19 19 19 19 19 19 18 18 18 18 18 18 18 18 18 18 17 17 17 17 17
25 21 20 21 23 24 24 24 24 23 23 22 21 19 18 19 20 20 20 20 20 20 19 19 19 19 19 19 19 19 19 19 19 19 19 19 18 18 18 18 18 18 18 17 17 17 17 17 17
23 20 21 22 22 23 24 24 23 23 22 22 21 19 18 19 20 20 20 20 20 20 19 19 19 19 19 19 19 19 19 19 19 18 18 18 18 18 18 18 18 18 18 17 17 17 17 17 17
25 20 22 22 23 24 24 24 24 23 23 22 22 19 19 19 20 20 20 19 19 19 19 19 19 19 19 19 19 19 19 18 18 18 18 18 18 18 18 18 18 18 17 17 17 17 17 17 17
25 20 21 23 23 24 24 24 24 24 23 22 22 22 21 20 20 20 19 19 19 19 19 19 19 19 19 19 19 18 18 18 18 18 18 18 18 18 18 18 18 18 17 17 17 17 17 17 17
24 21 24 24 24 24 24 24 24 23 22 22 21 21 21 20 20 20 20 19 19 20 19 19 19 19 19 19 19 18 18 18 18 18 18 18 18 18 18 18 18 18 17 17 17 17 17 17 17
24 23 24 25 26 25 24 24 24 23 22 22 21 21 21 20 20 20 20 21 20 20 20 20 19 19 19 19 19 19 18 18 18 18 18 18 18 18 18 18 18 18 17 17 17 17 17 17 17
24 24 25 26 26 25 25 24 23 23 24 24 24 23 21 20 20 21 21 21 21 20 20 20 20 19 19 19 19 19 18 18 18 18 18 18 18 18 18 18 18 18 18 17 17 17 17 17 17
24 25 26 26 26 25 25 24 24 23 24 24 23 22 21 21 21 21 21 21 21 21 20 20 20 20 19 19 19 19 19 19 18 18 18 18 18 18 18 18 18 18 18 17 17 17 17 17 17
25 25 25 25 26 25 24 24 23 23 24 23 22 22 21 21 21 21 21 21 21 21 21 20 20 20 19 19 19 19 19 19 18 18 18 18 18 18 18 18 18 18 18 17 17 17 17 17 17
25 24 24 24 25 25 24 24 23 23 23 22 21 21 21 21 21 21 21 21 21 21 21 20 20 20 19 19 19 19 19 19 18 18 18 18 18 18 18 17 18 18 17 17 17 17 17 17 17
24 23 24 24 24 25 25 24 23 23 23 22 21 21 20 21 21 21 21 21 21 21 21 20 20 20 19 19 19 19 19 18 18 18 18 18 18 18 17 17 17 17 17 17 17 17 17 17 17
22 23 23 24 24 24 24 24 23 23 23 22 21 21 21 21 21 21 21 21 21 21 21 20 20 20 19 19 19 18 18 18 18 18 18 18 18 18 17 17 17 17 17 17 17 17 17 17 17
23 23 23 23 24 24 24 23 22 22 22 22 21 21 21 21 22 22 21 21 21 21 21 20 20 20 19 19 18 18 18 18 18 18 18 18 18 18 17 17 17 17 17 17 17 17 17 17 17
23 23 23 23 24 24 23 23 22 22 22 22 21 21 21 22 22 22 22 21 21 21 21 20 20 20 19 19 19 18 18 18 18 18 18 18 18 18 17 17 17 17 17 17 17 17 17 17 17
23 23 23 23 24 24 23 22 22 21 21 22 21 21 22 22 21 21 21 21 21 21 21 21 20 20 19 19 19 18 18 18 18 18 18 18 18 18 17 18 17 17 17 17 17 17 17 17 17
23 23 23 24 23 23 23 22 22 22 22 22 22 22 22 22 22 22 21 21 21 21 21 21 20 20 19 19 19 18 18 18 18 18 18 18 18 18 18 17 17 17 17 17 17 17 17 17 17
23 23 23 24 23 21 23 22 22 21 21 21 21 22 22 22 22 22 22 22 22 21 21 21 20 20 19 19 18 18 18 18 18 18 18 18 18 18 18 17 17 17 17 17 17 17 17 17 17
23 24 23 23 22 21 21 21 21 20 21 20 21 21 22 22 22 22 22 22 22 21 21 20 20 20 19 19 18 18 18 18 18 18 18 18 18 18 18 17 17 17 17 17 17 17 17 17 17
24 22 20 18 19 21 22 21 21 19 20 21 21 21 22 22 22 22 22 21 21 21 20 20 20 19 19 19 18 18 18 18 18 18 18 18 18 18 18 17 17 17 17 17 17 17 17 17 17
23 20 20 20 19 20 20 21 20 20 20 20 21 21 22 22 22 21 21 21 21 21 20 20 19 19 19 18 18 18 18 18 18 18 18 18 18 18 18 18 17 17 17 17 17 17 17 17 17
22 21 20 21 20 20 20 20 20 21 20 21 21 21 21 21 21 21 21 21 21 21 20 20 19 19 19 18 18 18 18 18 18 18 18 18 18 18 18 18 17 17 17 17 17 17 17 17 17
21 20 19 18 19 20 20 20 20 21 20 20 20 20 21 21 21 21 21 21 21 20 20 19 19 19 19 18 18 18 17 17 17 18 18 18 17 17 17 17 17 17 17 17 17 17 17 17 16
21 18 17 18 19 20 21 21 20 21 20 19 19 19 20 21 21 21 21 20 20 20 19 19 19 18 18 18 18 18 17 17 17 17 17 17 17 17 17 17 17 17 17 17 17 17 17 16 16
21 20 17 16 18 19 20 20 20 19 19 19 18 19 20 21 21 21 20 20 20 19 19 19 19 18 18 18 18 17 17 17 17 17 17 17 17 17 17 17 17 17 17 16 16 16 16 16 16
22 20 18 20 19 17 19 20 20 19 19 19 19 19 20 21 21 20 20 20 20 19 19 19 18 18 18 17 17 17 17 17 17 17 17 17 17 17 17 17 16 16 16 16 16 16 16 16 16

GEFSSGP_850_meantemp_168.txt.gz
Temperature
24 23 23 24 29 31 29 29 29 29 28 27 27 27 27 26 26 24 21 21 20 19 18 19 19 19 19 19 19 19 19 19 19 19 19 18 18 18 18 18 18 18 18 18 18 18 18 18 18
23 23 24 28 31 29 29 29 29 28 27 27 26 26 26 23 22 21 20 20 20 19 19 18 19 19 19 19 19 19 19 19 19 19 18 18 18 18 18 18 18 18 18 18 18 18 18 18 17
24 24 28 32 31 30 29 29 29 28 27 27 26 25 24 22 21 20 20 20 20 19 19 19 19 19 19 19 19 19 19 19 18 18 18 18 18 18 18 18 18 18 18 18 18 18 18 17 17
24 27 30 32 30 30 30 29 29 29 27 27 26 25 23 21 21 20 20 20 20 19 19 18 19 19 19 19 19 18 18 18 18 18 18 18 18 18 18 18 18 18 18 18 18 18 18 17 17
26 30 32 31 30 30 30 29 29 29 28 27 27 25 22 20 20 20 19 20 20 19 19 18 19 19 19 19 18 18 18 18 18 18 18 18 18 18 18 18 18 18 18 18 18 17 17 17 17
30 32 32 31 30 30 30 29 29 29 27 26 26 25 21 19 20 20 20 20 20 20 19 18 19 19 19 19 18 18 18 18 18 18 18 18 18 18 18 18 18 18 18 18 18 18 17 17 17
31 32 32 31 30 30 30 29 29 29 28 27 26 25 22 20 20 20 20 20 20 20 19 18 18 18 19 19 18 18 18 18 18 18 18 18 18 18 18 18 18 18 18 18 18 17 17 17 18
29 33 32 31 31 30 30 29 28 29 27 25 26 26 23 20 19 19 19 19 19 19 19 18 18 18 18 18 18 18 18 18 18 18 18 18 18 18 18 17 18 18 18 18 17 17 17 17 17
29 32 32 31 31 31 30 30 28 27 27 25 25 25 23 20 19 19 19 19 19 19 19 19 18 18 18 18 18 18 18 18 18 18 18 18 17 17 17 17 18 18 18 17 17 17 17 17 17
31 32 32 32 32 32 30 30 29 28 28 26 24 22 21 20 19 20 20 20 19 19 19 19 19 18 18 18 18 18 18 18 18 17 17 18 17 17 17 17 18 18 18 18 17 17 17 17 17
32 32 32 31 31 31 31 30 29 30 29 28 25 22 21 20 20 20 20 20 19 19 19 18 18 18 18 18 18 18 18 18 17 17 17 17 17 17 17 17 17 17 17 17 17 17 17 17 17
31 31 31 31 30 30 31 30 30 29 29 27 25 23 21 21 21 21 21 20 19 19 19 19 18 18 18 18 18 18 18 18 18 17 17 17 17 17 17 17 17 17 17 17 17 17 17 17 17
31 31 30 30 30 30 30 30 30 29 27 26 24 23 22 22 21 21 21 20 19 19 19 19 18 18 18 18 18 18 18 18 18 17 17 17 17 17 17 17 17 17 17 17 17 17 17 17 17
31 31 31 31 31 30 30 30 29 28 27 25 24 23 23 22 22 21 20 20 19 19 19 19 19 18 19 19 18 18 18 18 18 17 17 17 17 17 17 17 17 17 17 17 17 17 17 17 17
30 31 32 31 31 30 31 30 30 28 27 26 25 24 23 22 22 21 21 20 20 20 19 19 19 19 19 18 18 18 18 18 18 17 17 17 17 17 17 17 17 17 17 17 17 17 17 17 17
31 32 31 31 31 30 31 31 30 28 27 26 25 24 23 22 22 21 21 21 20 20 20 20 19 19 19 18 18 18 18 18 17 17 17 17 17 17 17 17 17 17 17 17 17 17 17 17 17
31 31 31 31 31 31 31 31 30 28 28 27 26 24 23 22 22 21 21 21 21 20 20 20 20 19 19 19 18 18 18 18 18 17 17 17 17 17 17 17 17 17 17 17 17 17 17 17 17
31 32 31 31 31 31 31 31 30 28 28 28 26 25 24 23 22 22 21 21 21 21 20 20 20 19 19 19 18 18 18 18 18 18 18 18 18 17 17 17 17 17 17 17 17 17 17 17 17
31 31 31 31 31 31 31 31 30 29 28 28 27 26 25 24 23 21 21 21 21 21 20 20 20 20 19 19 18 18 18 18 18 18 18 18 18 17 18 17 17 17 17 17 17 17 17 17 17
30 31 31 30 30 31 31 31 31 30 29 28 27 26 25 24 23 21 21 21 21 21 21 20 20 20 19 19 19 19 18 18 18 18 18 18 18 18 17 17 17 17 17 17 17 17 17 17 17
30 30 31 30 30 31 31 31 30 30 28 28 27 27 26 24 23 22 21 21 21 21 21 20 20 20 20 19 19 18 18 18 18 18 18 18 18 18 18 17 17 17 17 17 17 17 17 17 17
30 30 30 30 30 31 30 31 31 30 30 29 28 27 26 25 24 23 22 21 21 21 20 20 20 20 20 19 19 18 18 18 18 18 18 18 18 18 18 18 17 17 17 17 17 17 17 17 17
30 30 30 30 30 31 31 30 31 30 30 30 29 27 26 25 24 23 22 21 21 21 20 20 20 20 19 19 19 18 18 18 18 18 18 18 18 18 17 17 17 17 17 17 17 17 17 17 17
29 29 29 30 31 29 30 30 31 31 30 30 29 27 26 25 24 23 22 21 21 20 20 20 20 20 19 19 19 18 18 18 18 18 18 18 18 18 18 18 18 18 17 17 17 17 17 17 17
29 29 29 29 29 29 30 29 31 31 30 29 28 27 25 24 23 22 21 21 21 20 20 20 20 20 19 19 18 18 18 18 18 18 17 18 18 17 17 17 18 17 17 17 17 17 17 17 17
29 30 29 29 29 30 29 30 31 30 28 27 27 26 25 24 23 22 21 21 21 20 20 20 19 19 19 19 18 18 18 18 17 18 17 17 17 17 17 17 18 18 17 17 17 17 17 17 17
29 30 32 31 30 30 30 30 30 29 29 28 27 26 25 24 23 22 21 21 20 20 20 20 19 19 19 18 18 18 18 18 17 17 17 17 17 17 17 17 17 17 17 17 17 17 17 17 17
30 31 30 30 28 28 29 29 30 30 29 28 27 26 25 24 23 22 21 21 20 20 19 19 19 19 19 18 18 18 18 18 18 17 17 17 17 17 17 17 17 17 17 17 17 17 17 17 17
28 29 30 30 30 29 29 30 31 30 29 28 27 26 24 24 23 22 21 20 20 19 19 19 19 18 18 18 18 18 17 17 17 17 17 17 17 17 17 17 17 17 17 17 16 16 16 16 16
30 30 29 29 28 29 29 30 30 30 29 28 26 25 24 23 22 21 20 20 19 19 19 18 18 18 18 18 18 18 18 17 17 17 17 17 17 17 17 17 16 16 16 16 16 16 16 16 16

GEFSSGP_850_meantemp_174.txt.gz
Temperature
27 26 26 26 28 29 30 30 31 31 30 30 29 29 27 27 26 24 23 22 21 20 21 20 20 19 19 19 19 19 19 19 19 19 18 18 18 18 18 18 18 18 18 18 18 18 18 18 18
27 26 27 29 28 29 29 31 30 31 30 30 29 28 27 26 25 24 23 22 21 20 20 20 20 19 19 19 19 19 19 19 19 18 18 18 18 18 18 18 18 18 18 18 18 18 18 18 18
27 27 29 30 29 30 30 31 31 31 31 30 28 27 26 26 25 24 23 22 21 20 20 20 20 19 19 19 19 19 19 19 18 18 18 18 18 18 18 18 18 18 18 18 18 18 18 18 18
27 30 31 31 31 31 31 32 32 31 31 30 28 27 25 25 24 23 23 22 21 20 20 20 20 19 19 19 19 19 19 18 18 18 18 18 18 18 18 18 18 18 18 18 18 18 18 18 18
29 30 30 30 32 32 33 32 32 31 31 29 27 26 25 24 24 23 23 22 21 20 20 20 20 19 19 19 19 19 19 18 18 18 18 18 18 18 18 18 18 18 18 18 18 18 18 18 18
30 31 30 30 32 33 33 32 32 31 30 29 27 26 25 24 24 23 23 22 22 20 20 21 20 20 19 19 19 19 18 18 18 18 18 18 18 18 18 18 18 18 18 18 18 18 18 18 18
31 31 30 32 32 32 33 32 32 31 31 30 28 26 25 24 24 24 23 23 22 21 20 20 20 20 20 19 19 19 19 18 18 18 18 18 18 18 18 18 18 18 18 18 18 18 18 18 18
32 32 31 32 32 32 33 32 32 31 30 30 29 27 25 24 24 24 23 23 22 21 20 20 19 20 19 19 19 19 19 19 19 19 18 18 18 18 18 18 18 18 18 18 18 18 18 18 18
33 31 31 33 33 33 33 32 31 30 30 29 29 27 25 24 24 24 23 23 22 21 21 20 19 19 19 19 19 19 19 19 19 18 18 18 18 18 18 18 18 18 18 18 18 18 18 18 18
34 32 33 34 34 34 33 33 31 30 29 28 27 26 24 24 24 24 23 23 22 22 21 21 20 20 19 19 19 19 18 18 18 18 18 18 18 18 18 18 18 18 18 18 18 18 18 18 18
34 33 34 35 34 34 34 33 32 31 29 28 26 25 24 24 24 24 24 23 22 22 21 21 20 20 20 19 19 19 18 18 18 18 18 18 18 18 18 18 18 18 18 18 18 18 18 18 18
35 35 34 34 34 34 34 33 32 31 30 28 27 26 25 24 24 24 24 23 22 22 22 21 20 20 20 20 19 19 19 19 18 18 18 18 18 18 18 18 18 18 18 18 18 18 18 18 18
34 35 35 34 34 33 33 32 32 31 30 28 27 26 25 25 25 24 24 23 22 22 21 21 20 20 20 20 19 19 19 19 19 19 18 18 18 18 18 18 18 18 18 18 18 18 18 18 18
35 35 35 34 34 33 32 32 31 31 30 28 27 26 26 25 25 24 23 22 22 21 21 21 20 20 20 20 19 19 19 19 19 19 18 18 18 18 18 18 18 18 18 18 18 18 18 18 18
34 34 34 35 34 33 31 30 30 30 30 29 28 27 26 26 25 24 23 22 22 21 21 21 20 20 20 19 19 19 19 19 19 19 18 18 18 18 18 18 18 18 18 18 18 18 18 18 18
34 33 32 34 34 33 31 28 30 30 30 29 28 27 27 26 25 24 23 23 22 21 21 21 20 20 20 19 19 19 19 19 19 19 18 18 18 18 18 18 18 18 18 18 18 18 18 18 18
33 32 32 32 34 34 32 29 30 30 30 30 29 28 27 26 25 24 23 23 22 21 21 21 20 20 20 20 19 19 19 19 19 19 18 18 18 18 18 18 18 18 18 18 18 18 18 18 18
33 33 33 32 34 34 33 31 31 31 31 30 29 28 27 26 25 24 24 23 22 21 21 21 20 20 20 20 19 19 19 19 19 19 19 18 18 18 18 18 18 18 18 18 18 18 18 18 18
33 33 33 33 34 34 33 32 32 32 31 30 30 29 28 26 26 25 24 23 22 21 21 21 21 20 20 20 19 19 19 19 19 19 19 19 18 18 18 18 18 18 18 18 18 18 18 18 18
33 33 33 33 34 34 33 32 33 32 32 31 30 29 28 27 26 25 24 23 22 21 21 21 21 20 20 20 19 19 19 19 19 19 19 19 18 18 18 18 18 18 18 18 18 18 18 18 18
33 33 33 33 34 34 33 32 31 31 31 31 31 29 29 27 26 24 24 23 22 21 21 21 21 20 20 20 19 19 19 19 19 19 19 19 18 18 18 18 18 18 18 18 18 18 18 18 18
32 34 34 33 33 32 33 30 29 30 30 31 31 30 29 28 26 25 24 23 22 21 21 21 21 20 20 20 19 19 19 19 19 19 19 19 18 18 18 18 18 18 18 18 18 18 18 18 18
33 34 34 33 33 32 33 31 29 29 29 30 31 31 29 28 27 25 24 23 23 22 21 21 21 20 20 20 19 19 19 19 19 19 19 18 18 18 18 18 18 18 18 18 18 18 18 18 18
34 33 33 33 32 31 32 31 29 29 30 30 31 30 29 28 27 26 24 23 23 22 21 20 20 20 20 20 19 19 19 19 19 18 18 18 18 18 18 18 18 18 18 18 18 18 18 18 18
33 31 30 30 30 30 31 31 30 31 32 32 31 30 29 28 27 25 24 23 23 22 21 21 20 20 20 20 19 19 19 19 19 19 18 18 18 18 18 18 18 18 18 18 18 18 18 18 18
32 32 30 29 30 30 30 30 31 33 32 32 31 30 29 27 26 25 24 23 22 22 21 21 20 20 20 19 19 19 19 19 18 18 18 18 18 18 18 18 18 18 18 18 18 18 17 17 17
32 32 33 32 31 30 30 30 30 32 32 32 31 30 29 28 26 25 24 23 22 22 21 20 20 20 19 19 19 19 19 18 18 18 18 18 18 18 18 18 18 18 18 18 18 17 17 17 17
33 33 32 31 30 29 30 30 30 30 32 32 31 30 29 27 26 25 24 23 22 21 21 20 20 20 19 19 19 18 18 18 18 18 18 18 18 18 18 18 18 17 17 17 17 17 17 17 17
32 32 32 31 31 30 29 28 31 31 32 32 31 30 28 27 26 25 24 23 22 21 21 20 20 19 19 19 18 18 18 18 18 18 18 18 18 18 17 17 17 17 17 17 17 17 16 16 16
33 32 32 30 30 31 30 29 32 32 32 32 30 29 28 27 26 24 24 22 22 21 20 20 19 19 18 18 18 18 18 18 18 17 17 17 17 17 17 17 17 17 16 16 16 16 16 16 16